[[{"header":{"parameterUnit":"m.s-1","parameterCategory":1,"la1":31.0,"la2":29.5877,"lo1":-88.7671,"lo2":-86.6584,"dy":0.0162,"dx":0.0185,"nx":115,"ny":88,"refTime":"2026-03-24T12:00:00:Z","depth":0,"parameterNumber":2,"parameterNumberName":"U-component_of_WINDS"},"data":[0.0,0.0,0.0,0.0,0.0,0.0,0.0,0.0,0.0,0.0,0.0,0.0,0.0,0.0,0.0,0.0,0.0,0.0,0.0,0.0,0.0,0.0,0.0,0.0,0.0,0.0,0.0,0.0,0.0,0.0,0.0,0.0,0.0,0.0,0.0,0.0,0.0,0.0,0.0,0.0,0.0,0.0,0.0,0.0,0.0,0.0,0.0,0.0,0.0,0.0,0.0,0.0,0.0,0.0,0.0,0.0,0.0,0.0,0.0,0.0,0.0,0.0,0.0,0.0,0.0,0.0,0.0,0.0,0.0,0.0,0.0,0.0,0.0,0.0,0.0,0.0,0.0,0.0,0.0,0.0,0.0,0.0,0.0,0.0,0.0,0.0,0.0,0.0,0.0,0.0,0.0,0.0,0.0,0.0,0.0,0.0,0.0,0.0,0.0,0.0,0.0,0.0,0.0,0.0,0.0,0.0,0.0,0.0,0.0,0.0,0.0,0.0,0.0,0.0,0.0,0.0,0.0,0.0,0.0,0.0,0.0,0.0,0.0,0.0,0.0,0.0,0.0,0.0,0.0,0.0,0.0,0.0,0.0,0.0,0.0,0.0,0.0,0.0,0.0,0.0,0.0,0.0,0.0,0.0,0.0,0.0,0.0,0.0,0.0,0.0,0.0,0.0,0.0,0.0,0.0,0.0,0.0,0.0,0.0,0.0,0.0,0.0,0.0,0.0,0.0,0.0,0.0,0.0,0.0,0.0,0.0,0.0,0.0,0.0,0.0,0.0,0.0,0.0,0.0,0.0,0.0,0.0,0.0,0.0,0.0,0.0,0.0,0.0,0.0,0.0,0.0,0.0,0.0,0.0,0.0,0.0,0.0,0.0,0.0,0.0,0.0,0.0,0.0,0.0,0.0,0.0,0.0,0.0,0.0,0.0,0.0,0.0,0.0,0.0,0.0,0.0,0.0,0.0,0.0,0.0,0.0,0.0,0.0,0.0,0.0,0.0,0.0,0.0,0.0,0.0,0.0,0.0,0.0,0.0,0.0,0.0,0.0,0.0,0.0,0.0,0.0,0.0,0.0,0.0,0.0,0.0,0.0,0.0,0.0,0.0,0.0,0.0,0.0,0.0,0.0,0.0,0.0,0.0,0.0,0.0,0.0,0.0,0.0,0.0,0.0,0.0,0.0,0.0,0.0,0.0,0.0,0.0,0.0,0.0,0.0,0.0,0.0,0.0,0.0,0.0,0.0,0.0,0.0,0.0,0.0,0.0,0.0,0.0,0.0,0.0,0.0,0.0,0.0,0.0,0.0,0.0,0.0,0.0,0.0,0.0,0.0,0.0,0.0,0.0,0.0,0.0,0.0,0.0,0.0,0.0,0.0,0.0,0.0,0.0,0.0,0.0,0.0,0.0,0.0,0.0,0.0,0.0,0.0,0.0,0.0,0.0,0.0,0.0,0.0,0.0,0.0,0.0,0.0,0.0,0.0,0.0,0.0,0.0,0.0,0.0,0.0,0.0,0.0,0.0,0.0,0.0,0.0,0.0,0.0,0.0,0.0,0.0,0.0,0.0,0.0,0.0,0.0,0.0,0.0,0.0,0.0,0.0,0.0,0.0,0.0,0.0,0.0,0.0,0.0,0.0,0.0,0.0,0.0,0.0,0.0,0.0,0.0,0.0,0.0,0.0,0.0,0.0,0.0,0.0,0.0,0.0,0.0,0.0,0.0,0.0,0.0,0.0,0.0,0.0,0.0,0.0,0.0,0.0,0.0,0.0,0.0,0.0,0.0,0.0,0.0,0.0,0.0,0.0,0.0,0.0,0.0,0.0,0.0,0.0,0.0,0.0,0.0,0.0,0.0,0.0,0.0,0.0,0.0,0.0,0.0,0.0,0.0,0.0,0.0,0.0,0.0,0.0,0.0,0.0,0.0,0.0,0.0,0.0,0.0,0.0,0.0,0.0,0.0,0.0,0.0,0.0,0.0,0.0,0.0,0.0,0.0,0.0,0.0,0.0,0.0,0.0,0.0,0.0,0.0,0.0,0.0,0.0,0.0,0.0,0.0,0.0,0.0,0.0,0.0,0.0,0.0,0.0,0.0,0.0,0.0,0.0,0.0,0.0,0.0,0.0,0.0,0.0,0.0,0.0,0.0,0.0,0.0,0.0,0.0,0.0,0.0,0.0,0.0,0.0,0.0,0.0,0.0,0.0,0.0,0.0,0.0,0.0,0.0,0.0,0.0,0.0,0.0,0.0,0.0,0.0,0.0,0.0,0.0,0.0,0.0,0.0,0.0,0.0,0.0,0.0,0.0,0.0,0.0,0.0,0.0,0.0,0.0,0.0,0.0,0.0,0.0,0.0,0.0,0.0,0.0,0.0,0.0,0.0,0.0,0.0,0.0,0.0,0.0,0.0,0.0,0.0,0.0,0.0,0.0,0.0,0.0,0.0,0.0,0.0,0.0,0.0,0.0,0.0,0.0,0.0,0.0,0.0,0.0,0.0,0.0,0.0,0.0,0.0,0.0,0.0,0.0,0.0,0.0,0.0,0.0,0.0,0.0,0.0,0.0,0.0,0.0,0.0,0.0,0.0,0.0,0.0,0.0,0.0,0.0,0.0,0.0,0.0,0.0,0.0,0.0,0.0,0.0,0.0,0.0,0.0,0.0,0.0,0.0,0.0,0.0,0.0,0.0,0.0,0.0,0.0,0.0,0.0,0.0,0.0,0.0,0.0,0.0,0.0,0.0,0.0,0.0,0.0,0.0,0.0,0.0,0.0,0.0,0.0,0.0,0.0,0.0,0.0,0.0,0.0,0.0,0.0,0.0,0.0,0.0,0.0,0.0,0.0,0.0,0.0,0.0,0.0,0.0,0.0,0.0,0.0,0.0,0.0,0.0,0.0,0.0,0.0,0.0,0.0,0.0,0.0,0.0,0.0,0.0,0.0,0.0,0.0,0.0,0.0,0.0,0.0,0.0,0.0,0.0,0.0,0.0,0.0,0.0,0.0,0.0,0.0,0.0,0.0,0.0,0.0,0.0,0.0,0.0,0.0,0.0,0.0,0.0,0.0,0.0,0.0,0.0,0.0,0.0,0.0,0.0,0.0,0.0,0.0,0.0,0.0,0.0,0.0,0.0,0.0,0.0,0.0,0.0,0.0,0.0,0.0,0.0,0.0,0.0,0.0,0.0,0.0,0.0,0.0,0.0,0.0,0.0,0.0,0.0,0.0,0.0,0.0,0.0,0.0,0.0,0.0,0.0,0.0,0.0,0.0,0.0,0.0,0.0,0.0,0.0,0.0,0.0,0.0,0.0,0.0,0.0,0.0,0.0,0.0,0.0,0.0,0.0,0.0,0.0,0.0,0.0,0.0,0.0,0.0,0.0,0.0,0.0,0.0,0.0,0.0,0.0,0.0,0.0,0.0,0.0,0.0,0.0,0.0,0.0,0.0,0.0,0.0,0.0,0.0,0.0,0.0,0.0,0.0,0.0,0.0,0.0,0.0,0.0,0.0,0.0,0.0,0.0,0.0,0.0,0.0,0.0,0.0,0.0,0.0,0.0,0.0,0.0,0.0,0.0,0.0,0.0,0.0,0.0,0.0,0.0,0.0,0.0,0.0,0.0,0.0,0.0,0.0,0.0,0.0,0.0,0.0,0.0,0.0,0.0,0.0,0.0,0.0,0.0,0.0,0.0,0.0,0.0,0.0,0.0,0.0,0.0,0.0,0.0,0.0,0.0,0.0,0.0,0.0,0.0,0.0,0.0,0.0,0.0,0.0,0.0,0.0,0.0,0.0,0.0,0.0,0.0,0.0,0.0,0.0,0.0,0.0,0.0,0.0,0.0,0.0,0.0,0.0,0.0,0.0,0.0,0.0,0.0,0.0,0.0,0.0,0.0,0.0,0.0,0.0,0.0,0.0,0.0,0.0,0.0,0.0,0.0,0.0,0.0,0.0,0.0,0.0,0.0,0.0,0.0,0.0,0.0,0.0,0.0,0.0,0.0,0.0,0.0,0.0,0.0,0.0,0.0,0.0,0.0,0.0,0.0,0.0,0.0,0.0,0.0,0.0,0.0,0.0,0.0,0.0,0.0,0.0,0.0,0.0,0.0,0.0,0.0,0.0,0.0,0.0,0.0,0.0,0.0,0.0,0.0,0.0,0.0,0.0,0.0,0.0,0.0,0.0,0.0,0.0,0.0,0.0,0.0,0.0,0.0,0.0,0.0,0.0,0.0,0.0,0.0,0.0,0.0,0.0,0.0,0.0,0.0,0.0,0.0,0.0,-3.7109,0.0,0.0,0.0,0.0,0.0,0.0,0.0,0.0,0.0,0.0,0.0,0.0,0.0,0.0,0.0,0.0,0.0,0.0,0.0,0.0,0.0,0.0,0.0,0.0,0.0,0.0,0.0,0.0,0.0,0.0,0.0,0.0,0.0,0.0,0.0,0.0,0.0,0.0,0.0,0.0,0.0,0.0,0.0,0.0,0.0,0.0,0.0,0.0,0.0,0.0,0.0,0.0,0.0,0.0,0.0,0.0,0.0,0.0,0.0,0.0,0.0,0.0,0.0,0.0,0.0,0.0,0.0,0.0,0.0,0.0,0.0,0.0,0.0,0.0,0.0,0.0,0.0,0.0,0.0,0.0,0.0,0.0,0.0,0.0,0.0,0.0,0.0,0.0,0.0,0.0,0.0,0.0,0.0,0.0,0.0,0.0,0.0,0.0,0.0,0.0,0.0,0.0,0.0,0.0,0.0,0.0,0.0,0.0,0.0,0.0,-4.1016,-4.0605,-3.9316,-3.8418,-3.7949,0.0,0.0,0.0,0.0,0.0,0.0,0.0,0.0,0.0,0.0,0.0,0.0,0.0,0.0,0.0,0.0,0.0,0.0,0.0,0.0,0.0,0.0,0.0,0.0,0.0,0.0,0.0,0.0,0.0,0.0,0.0,0.0,0.0,0.0,0.0,0.0,0.0,0.0,0.0,0.0,0.0,0.0,0.0,0.0,0.0,0.0,0.0,0.0,0.0,0.0,0.0,0.0,0.0,0.0,0.0,0.0,0.0,0.0,0.0,0.0,0.0,0.0,0.0,0.0,0.0,0.0,0.0,0.0,0.0,0.0,0.0,0.0,0.0,0.0,0.0,0.0,0.0,0.0,0.0,0.0,0.0,0.0,0.0,0.0,0.0,0.0,0.0,0.0,0.0,0.0,0.0,0.0,0.0,0.0,0.0,0.0,0.0,0.0,0.0,0.0,0.0,0.0,0.0,0.0,0.0,0.0,0.0,0.0,0.0,0.0,0.0,0.0,-3.9492,-3.8223,-3.7402,0.0,0.0,0.0,0.0,0.0,0.0,0.0,0.0,0.0,0.0,0.0,0.0,0.0,0.0,0.0,0.0,0.0,0.0,0.0,0.0,0.0,0.0,0.0,0.0,0.0,0.0,0.0,0.0,0.0,0.0,0.0,0.0,0.0,0.0,0.0,0.0,0.0,0.0,0.0,0.0,0.0,0.0,0.0,0.0,0.0,0.0,0.0,0.0,0.0,0.0,0.0,0.0,0.0,0.0,0.0,0.0,0.0,0.0,0.0,0.0,0.0,0.0,0.0,0.0,0.0,0.0,0.0,0.0,0.0,0.0,0.0,0.0,0.0,0.0,0.0,0.0,0.0,0.0,0.0,0.0,0.0,0.0,0.0,0.0,0.0,0.0,0.0,0.0,0.0,0.0,0.0,0.0,0.0,0.0,0.0,0.0,0.0,0.0,0.0,0.0,0.0,0.0,0.0,0.0,0.0,0.0,0.0,0.0,0.0,0.0,-4.1191,-4.1172,-3.9492,0.0,-3.4121,0.0,0.0,0.0,0.0,0.0,0.0,0.0,0.0,0.0,0.0,0.0,0.0,0.0,0.0,0.0,0.0,0.0,0.0,0.0,0.0,0.0,0.0,0.0,0.0,0.0,0.0,0.0,0.0,0.0,0.0,0.0,0.0,0.0,0.0,0.0,0.0,0.0,0.0,0.0,0.0,0.0,0.0,0.0,0.0,0.0,0.0,0.0,0.0,0.0,0.0,0.0,0.0,0.0,0.0,0.0,0.0,0.0,0.0,0.0,0.0,0.0,0.0,0.0,0.0,0.0,0.0,0.0,0.0,0.0,0.0,0.0,0.0,0.0,0.0,0.0,0.0,0.0,0.0,0.0,0.0,0.0,0.0,0.0,0.0,0.0,0.0,0.0,0.0,0.0,0.0,0.0,0.0,0.0,0.0,0.0,0.0,0.0,0.0,0.0,0.0,0.0,0.0,0.0,0.0,0.0,0.0,0.0,0.0,0.0,0.0,-4.0957,-4.0449,-3.873,-3.6445,0.0,0.0,0.0,0.0,0.0,0.0,0.0,0.0,0.0,0.0,0.0,0.0,0.0,0.0,0.0,0.0,0.0,0.0,0.0,0.0,0.0,0.0,0.0,0.0,0.0,0.0,0.0,0.0,0.0,0.0,0.0,0.0,0.0,0.0,0.0,0.0,0.0,0.0,0.0,0.0,0.0,0.0,0.0,0.0,0.0,0.0,0.0,0.0,0.0,0.0,0.0,0.0,0.0,0.0,0.0,0.0,0.0,0.0,0.0,0.0,0.0,0.0,0.0,0.0,0.0,0.0,0.0,0.0,0.0,0.0,0.0,0.0,0.0,0.0,0.0,0.0,0.0,0.0,0.0,0.0,0.0,0.0,0.0,0.0,0.0,0.0,0.0,0.0,0.0,0.0,0.0,0.0,0.0,0.0,0.0,0.0,0.0,0.0,0.0,0.0,0.0,0.0,0.0,0.0,0.0,0.0,0.0,0.0,0.0,0.0,-4.1105,-4.0684,-3.9551,-3.8086,-3.6074,-3.3476,0.0,0.0,0.0,0.0,0.0,0.0,0.0,0.0,0.0,0.0,0.0,0.0,0.0,0.0,0.0,0.0,0.0,0.0,0.0,0.0,0.0,0.0,0.0,0.0,0.0,0.0,0.0,0.0,0.0,0.0,0.0,0.0,0.0,0.0,0.0,0.0,0.0,0.0,0.0,0.0,0.0,0.0,0.0,0.0,0.0,0.0,0.0,0.0,0.0,0.0,0.0,0.0,0.0,0.0,0.0,0.0,0.0,0.0,0.0,0.0,0.0,0.0,0.0,0.0,0.0,0.0,0.0,0.0,0.0,0.0,0.0,0.0,0.0,0.0,0.0,0.0,0.0,0.0,0.0,0.0,0.0,0.0,0.0,0.0,0.0,0.0,0.0,0.0,0.0,0.0,0.0,0.0,0.0,0.0,0.0,0.0,0.0,0.0,0.0,0.0,0.0,0.0,0.0,0.0,0.0,0.0,0.0,0.0,0.0,-4.1056,-4.0371,-3.8711,-3.7754,-3.6074,0.0,0.0,0.0,0.0,0.0,0.0,0.0,0.0,0.0,0.0,0.0,0.0,0.0,0.0,0.0,0.0,0.0,0.0,0.0,0.0,0.0,0.0,0.0,0.0,0.0,0.0,0.0,0.0,0.0,0.0,0.0,0.0,0.0,0.0,0.0,0.0,0.0,0.0,0.0,0.0,0.0,0.0,0.0,0.0,0.0,0.0,0.0,0.0,0.0,0.0,0.0,0.0,0.0,0.0,0.0,0.0,0.0,0.0,0.0,0.0,0.0,0.0,0.0,0.0,0.0,0.0,0.0,0.0,0.0,0.0,0.0,0.0,0.0,0.0,0.0,0.0,0.0,0.0,0.0,0.0,0.0,0.0,0.0,0.0,0.0,0.0,0.0,0.0,0.0,0.0,0.0,0.0,0.0,0.0,0.0,0.0,0.0,0.0,0.0,0.0,0.0,0.0,0.0,0.0,0.0,0.0,0.0,0.0,0.0,-4.0766,-3.9981,-3.9258,-3.8574,-3.668,-3.4922,0.0,0.0,0.0,0.0,0.0,0.0,0.0,0.0,0.0,0.0,0.0,0.0,0.0,0.0,0.0,0.0,0.0,0.0,0.0,0.0,0.0,0.0,0.0,0.0,0.0,0.0,0.0,0.0,0.0,0.0,0.0,0.0,0.0,0.0,0.0,0.0,0.0,0.0,0.0,0.0,0.0,0.0,0.0,0.0,0.0,0.0,0.0,0.0,0.0,0.0,0.0,0.0,0.0,0.0,0.0,0.0,0.0,0.0,0.0,0.0,0.0,0.0,0.0,0.0,0.0,0.0,0.0,0.0,0.0,0.0,0.0,0.0,0.0,0.0,0.0,0.0,0.0,0.0,0.0,0.0,0.0,0.0,0.0,0.0,0.0,0.0,0.0,0.0,0.0,0.0,0.0,0.0,0.0,0.0,0.0,0.0,0.0,0.0,0.0,0.0,0.0,0.0,0.0,0.0,0.0,0.0,0.0,0.0,0.0,-3.9987,0.0,-3.8143,0.0,-3.6191,-3.457,0.0,0.0,0.0,0.0,0.0,0.0,0.0,0.0,0.0,0.0,0.0,0.0,0.0,0.0,0.0,0.0,0.0,0.0,0.0,0.0,0.0,0.0,0.0,0.0,0.0,0.0,0.0,0.0,0.0,0.0,0.0,0.0,0.0,0.0,0.0,0.0,0.0,0.0,0.0,0.0,0.0,0.0,0.0,0.0,0.0,0.0,0.0,0.0,0.0,0.0,0.0,0.0,0.0,0.0,0.0,0.0,0.0,0.0,0.0,0.0,0.0,0.0,0.0,0.0,0.0,0.0,0.0,0.0,0.0,0.0,0.0,0.0,0.0,0.0,0.0,0.0,0.0,0.0,0.0,0.0,0.0,0.0,0.0,0.0,0.0,0.0,0.0,0.0,0.0,0.0,0.0,0.0,0.0,0.0,0.0,0.0,0.0,0.0,0.0,0.0,0.0,0.0,0.0,0.0,0.0,0.0,0.0,0.0,-3.9056,-3.8436,-3.7661,-3.7309,-3.7305,-3.6426,-3.5156,0.0,0.0,0.0,0.0,0.0,0.0,0.0,0.0,0.0,0.0,0.0,0.0,0.0,0.0,0.0,0.0,0.0,0.0,0.0,0.0,0.0,0.0,0.0,0.0,0.0,0.0,0.0,0.0,0.0,0.0,0.0,0.0,0.0,0.0,0.0,0.0,0.0,0.0,0.0,0.0,0.0,0.0,0.0,0.0,0.0,0.0,0.0,0.0,0.0,0.0,0.0,0.0,0.0,0.0,0.0,0.0,0.0,0.0,0.0,0.0,0.0,0.0,0.0,0.0,0.0,0.0,0.0,0.0,0.0,0.0,0.0,0.0,0.0,0.0,0.0,0.0,0.0,0.0,0.0,0.0,0.0,0.0,0.0,0.0,0.0,0.0,0.0,0.0,0.0,0.0,0.0,0.0,0.0,0.0,0.0,0.0,0.0,0.0,0.0,0.0,0.0,0.0,0.0,0.0,0.0,0.0,0.0,0.0,0.0,-3.827,-3.7602,-3.7523,-3.8086,-3.6191,-3.5117,0.0,0.0,0.0,0.0,0.0,0.0,0.0,0.0,0.0,0.0,0.0,0.0,0.0,0.0,0.0,0.0,0.0,0.0,0.0,0.0,0.0,0.0,0.0,0.0,0.0,0.0,0.0,0.0,0.0,0.0,0.0,0.0,0.0,0.0,0.0,0.0,0.0,0.0,0.0,0.0,0.0,0.0,0.0,0.0,0.0,0.0,0.0,0.0,0.0,0.0,0.0,0.0,0.0,0.0,0.0,0.0,0.0,0.0,0.0,0.0,0.0,0.0,0.0,0.0,0.0,0.0,0.0,0.0,0.0,0.0,0.0,0.0,0.0,0.0,0.0,0.0,0.0,0.0,0.0,0.0,0.0,0.0,0.0,0.0,0.0,0.0,0.0,0.0,0.0,0.0,0.0,0.0,0.0,0.0,0.0,0.0,0.0,0.0,0.0,0.0,0.0,0.0,0.0,0.0,0.0,0.0,0.0,0.0,0.0,-3.7727,-3.7398,-3.7327,-3.7637,-3.6348,-3.5605,-3.5508,0.0,0.0,0.0,0.0,0.0,0.0,0.0,0.0,0.0,0.0,0.0,0.0,0.0,0.0,0.0,0.0,0.0,0.0,0.0,0.0,0.0,0.0,0.0,0.0,0.0,0.0,0.0,0.0,0.0,0.0,0.0,0.0,0.0,0.0,0.0,0.0,0.0,0.0,0.0,0.0,0.0,0.0,0.0,0.0,0.0,0.0,0.0,0.0,0.0,0.0,0.0,0.0,0.0,0.0,0.0,0.0,0.0,0.0,0.0,0.0,0.0,0.0,0.0,0.0,0.0,0.0,0.0,0.0,0.0,0.0,0.0,0.0,0.0,0.0,0.0,0.0,0.0,0.0,0.0,0.0,0.0,0.0,0.0,0.0,0.0,0.0,0.0,0.0,0.0,0.0,0.0,0.0,0.0,0.0,0.0,0.0,0.0,0.0,0.0,0.0,0.0,0.0,0.0,0.0,0.0,0.0,0.0,0.0,-3.7063,-3.721,-3.6939,-3.625,-3.6914,-3.6523,0.0,0.0,0.0,0.0,0.0,0.0,0.0,0.0,0.0,0.0,0.0,0.0,0.0,0.0,0.0,0.0,0.0,0.0,0.0,0.0,0.0,0.0,0.0,0.0,0.0,0.0,0.0,0.0,0.0,0.0,0.0,0.0,0.0,0.0,0.0,0.0,0.0,0.0,0.0,0.0,0.0,0.0,0.0,0.0,0.0,0.0,0.0,0.0,0.0,0.0,0.0,0.0,0.0,0.0,0.0,0.0,0.0,0.0,0.0,0.0,0.0,0.0,0.0,0.0,0.0,0.0,0.0,0.0,0.0,0.0,0.0,0.0,0.0,0.0,0.0,0.0,0.0,0.0,0.0,0.0,0.0,0.0,0.0,0.0,0.0,0.0,0.0,0.0,0.0,0.0,0.0,0.0,0.0,0.0,0.0,0.0,0.0,0.0,0.0,0.0,0.0,0.0,0.0,0.0,0.0,0.0,0.0,0.0,0.0,-3.7966,-3.817,-3.8143,-3.791,-3.7519,-3.707,0.0,0.0,0.0,0.0,0.0,0.0,0.0,0.0,0.0,0.0,0.0,0.0,0.0,0.0,0.0,0.0,0.0,0.0,0.0,0.0,0.0,0.0,0.0,0.0,0.0,0.0,0.0,0.0,0.0,0.0,0.0,0.0,0.0,0.0,0.0,0.0,0.0,0.0,0.0,0.0,0.0,0.0,0.0,0.0,0.0,0.0,0.0,0.0,0.0,0.0,0.0,0.0,0.0,0.0,0.0,0.0,0.0,0.0,0.0,0.0,0.0,0.0,0.0,0.0,0.0,0.0,0.0,0.0,0.0,0.0,0.0,0.0,0.0,0.0,0.0,0.0,0.0,0.0,0.0,0.0,0.0,0.0,0.0,0.0,0.0,0.0,0.0,0.0,0.0,0.0,0.0,0.0,0.0,0.0,0.0,0.0,0.0,0.0,0.0,0.0,0.0,0.0,0.0,0.0,0.0,0.0,0.0,0.0,-3.6529,-3.8307,-3.8456,-3.8728,-3.9141,-3.8672,-3.8027,0.0,0.0,0.0,0.0,0.0,0.0,0.0,0.0,0.0,0.0,0.0,0.0,0.0,0.0,0.0,0.0,0.0,0.0,0.0,0.0,0.0,0.0,0.0,0.0,0.0,0.0,0.0,0.0,0.0,0.0,0.0,0.0,0.0,0.0,0.0,0.0,0.0,0.0,0.0,0.0,0.0,0.0,0.0,0.0,0.0,0.0,0.0,0.0,0.0,0.0,0.0,0.0,0.0,0.0,0.0,0.0,0.0,0.0,0.0,0.0,0.0,0.0,0.0,0.0,0.0,0.0,0.0,0.0,0.0,0.0,0.0,0.0,0.0,0.0,0.0,0.0,0.0,0.0,0.0,0.0,0.0,0.0,0.0,0.0,0.0,0.0,0.0,0.0,0.0,0.0,0.0,0.0,0.0,0.0,0.0,0.0,0.0,0.0,0.0,0.0,0.0,0.0,0.0,0.0,0.0,0.0,0.0,0.0,-3.6536,-3.8406,-3.8397,-3.893,-3.998,-3.9844,-3.8984,0.0,0.0,0.0,0.0,0.0,0.0,0.0,0.0,0.0,0.0,0.0,0.0,0.0,0.0,0.0,0.0,0.0,0.0,0.0,0.0,0.0,0.0,0.0,0.0,0.0,0.0,0.0,0.0,0.0,0.0,0.0,0.0,0.0,0.0,0.0,0.0,0.0,0.0,0.0,0.0,0.0,0.0,0.0,0.0,0.0,0.0,0.0,0.0,0.0,0.0,0.0,0.0,0.0,0.0,0.0,0.0,0.0,0.0,0.0,0.0,0.0,0.0,0.0,0.0,0.0,0.0,0.0,0.0,0.0,0.0,0.0,0.0,0.0,0.0,0.0,0.0,0.0,0.0,0.0,0.0,0.0,0.0,0.0,0.0,0.0,0.0,0.0,0.0,0.0,0.0,0.0,0.0,0.0,0.0,0.0,0.0,0.0,0.0,0.0,0.0,0.0,0.0,0.0,0.0,0.0,0.0,0.0,0.0,-3.6808,-3.9232,-3.8727,-3.9224,-4.0859,-3.959,-3.8398,0.0,0.0,0.0,0.0,0.0,0.0,0.0,0.0,0.0,0.0,0.0,0.0,0.0,0.0,0.0,0.0,0.0,0.0,0.0,0.0,0.0,0.0,0.0,0.0,0.0,0.0,0.0,0.0,0.0,0.0,0.0,0.0,0.0,0.0,0.0,0.0,0.0,0.0,0.0,0.0,0.0,0.0,0.0,0.0,0.0,0.0,0.0,0.0,-3.572,0.0,0.0,0.0,0.0,0.0,0.0,0.0,0.0,0.0,0.0,0.0,0.0,0.0,0.0,0.0,0.0,0.0,0.0,0.0,0.0,0.0,0.0,0.0,0.0,0.0,0.0,0.0,0.0,0.0,0.0,0.0,0.0,0.0,0.0,0.0,0.0,0.0,0.0,0.0,0.0,0.0,0.0,0.0,0.0,0.0,0.0,0.0,0.0,0.0,0.0,0.0,0.0,0.0,0.0,0.0,0.0,0.0,0.0,0.0,-3.6654,-3.8829,-3.8562,-3.9234,-4.0947,-3.9491,-3.8379,0.0,0.0,0.0,0.0,0.0,0.0,0.0,0.0,0.0,0.0,0.0,0.0,0.0,0.0,0.0,0.0,0.0,0.0,0.0,0.0,0.0,0.0,0.0,0.0,0.0,0.0,0.0,0.0,0.0,0.0,0.0,0.0,0.0,0.0,0.0,0.0,0.0,0.0,0.0,0.0,0.0,0.0,0.0,0.0,0.0,0.0,0.0,0.0,0.0,0.0,0.0,0.0,0.0,0.0,0.0,0.0,0.0,0.0,0.0,0.0,0.0,0.0,0.0,0.0,0.0,0.0,0.0,0.0,0.0,0.0,0.0,0.0,0.0,0.0,0.0,0.0,0.0,0.0,0.0,0.0,0.0,0.0,0.0,0.0,0.0,0.0,0.0,0.0,0.0,0.0,0.0,0.0,0.0,0.0,0.0,0.0,0.0,0.0,0.0,0.0,0.0,0.0,0.0,0.0,0.0,0.0,0.0,-3.575,-3.6563,-3.8299,-3.8451,-3.9301,-4.0916,-3.9448,-3.8613,-3.8594,0.0,0.0,0.0,0.0,0.0,0.0,0.0,0.0,0.0,0.0,0.0,0.0,0.0,0.0,0.0,0.0,0.0,0.0,0.0,0.0,0.0,0.0,0.0,0.0,0.0,0.0,0.0,0.0,0.0,0.0,0.0,0.0,0.0,0.0,0.0,0.0,0.0,0.0,-3.4648,-3.5979,0.0,0.0,0.0,0.0,0.0,0.0,0.0,0.0,-3.6308,0.0,0.0,0.0,0.0,0.0,0.0,0.0,0.0,0.0,0.0,0.0,0.0,0.0,0.0,0.0,0.0,0.0,0.0,0.0,0.0,0.0,0.0,0.0,0.0,0.0,0.0,0.0,0.0,0.0,0.0,0.0,0.0,0.0,0.0,0.0,0.0,0.0,0.0,0.0,0.0,0.0,0.0,0.0,0.0,0.0,0.0,0.0,0.0,0.0,0.0,0.0,0.0,0.0,0.0,0.0,0.0,-3.7565,-3.6865,-3.7372,-3.9146,-3.9321,-3.9902,-4.0896,-3.9428,-3.8613,-3.8535,0.0,0.0,0.0,0.0,0.0,0.0,0.0,0.0,0.0,0.0,0.0,0.0,0.0,0.0,0.0,0.0,0.0,0.0,0.0,0.0,0.0,0.0,0.0,0.0,0.0,0.0,0.0,0.0,0.0,0.0,0.0,0.0,0.0,0.0,0.0,0.0,0.0,0.0,0.0,-3.7365,-3.7526,0.0,0.0,0.0,0.0,0.0,0.0,0.0,0.0,-3.6692,0.0,0.0,0.0,0.0,0.0,0.0,0.0,0.0,0.0,0.0,0.0,0.0,0.0,0.0,0.0,0.0,0.0,0.0,0.0,0.0,0.0,0.0,0.0,0.0,0.0,0.0,0.0,0.0,0.0,0.0,0.0,0.0,0.0,0.0,0.0,0.0,0.0,0.0,0.0,0.0,0.0,0.0,0.0,0.0,0.0,0.0,0.0,0.0,0.0,0.0,0.0,0.0,0.0,0.0,0.0,-3.7269,-3.7353,-3.8019,-3.929,-3.945,-3.9721,-4.012,-3.9051,-3.8274,0.0,0.0,0.0,0.0,0.0,0.0,0.0,0.0,0.0,0.0,0.0,0.0,0.0,0.0,0.0,0.0,0.0,0.0,0.0,0.0,0.0,0.0,0.0,0.0,0.0,0.0,0.0,0.0,0.0,0.0,0.0,0.0,0.0,0.0,0.0,0.0,0.0,0.0,0.0,0.0,-3.7024,-3.7033,-3.8014,0.0,0.0,0.0,0.0,0.0,0.0,-3.6805,-3.6875,0.0,0.0,0.0,0.0,0.0,0.0,0.0,0.0,0.0,0.0,0.0,0.0,0.0,0.0,0.0,0.0,0.0,0.0,0.0,0.0,0.0,0.0,0.0,0.0,0.0,0.0,0.0,0.0,0.0,0.0,0.0,0.0,0.0,0.0,0.0,0.0,0.0,0.0,0.0,0.0,0.0,0.0,0.0,0.0,0.0,0.0,0.0,0.0,0.0,0.0,0.0,0.0,0.0,0.0,0.0,-3.6962,-3.7642,-3.8411,-3.9253,-3.9199,-3.9146,-3.9132,-3.8438,-3.7744,0.0,0.0,0.0,0.0,0.0,0.0,0.0,0.0,0.0,0.0,0.0,0.0,0.0,0.0,0.0,0.0,0.0,0.0,0.0,0.0,0.0,0.0,0.0,0.0,0.0,0.0,0.0,0.0,0.0,0.0,0.0,0.0,0.0,0.0,0.0,0.0,0.0,0.0,0.0,0.0,0.0,-3.6996,-3.7994,-3.7233,0.0,0.0,0.0,0.0,-3.6731,-3.7083,0.0,0.0,0.0,0.0,0.0,0.0,0.0,0.0,0.0,0.0,0.0,0.0,0.0,0.0,0.0,0.0,0.0,0.0,0.0,0.0,0.0,0.0,0.0,0.0,0.0,0.0,0.0,0.0,0.0,0.0,0.0,0.0,0.0,0.0,0.0,0.0,0.0,0.0,0.0,0.0,0.0,0.0,0.0,0.0,0.0,0.0,0.0,0.0,0.0,0.0,0.0,0.0,0.0,0.0,0.0,0.0,-3.7808,-3.795,-3.8411,-3.9215,-3.8677,-3.8338,-3.8319,-3.7568,-3.7121,0.0,0.0,0.0,0.0,0.0,0.0,0.0,0.0,0.0,0.0,0.0,0.0,0.0,0.0,0.0,0.0,0.0,0.0,0.0,0.0,0.0,0.0,0.0,0.0,0.0,0.0,0.0,0.0,0.0,0.0,0.0,0.0,0.0,0.0,0.0,0.0,0.0,0.0,0.0,0.0,0.0,-3.8801,-3.7738,-3.7471,-3.7118,0.0,0.0,-3.7584,-3.6834,-3.8003,0.0,0.0,0.0,0.0,0.0,0.0,0.0,0.0,0.0,0.0,0.0,0.0,0.0,0.0,0.0,0.0,0.0,0.0,0.0,0.0,0.0,0.0,0.0,0.0,0.0,0.0,0.0,0.0,0.0,0.0,0.0,0.0,0.0,0.0,0.0,0.0,0.0,0.0,0.0,0.0,0.0,0.0,0.0,0.0,0.0,0.0,0.0,0.0,0.0,0.0,0.0,0.0,0.0,0.0,0.0,-3.6312,-3.6813,-3.7441,-3.7948,-3.8312,-3.8178,-3.7868,-3.7347,-3.7002,-3.6401,0.0,0.0,0.0,0.0,0.0,0.0,0.0,0.0,0.0,0.0,0.0,0.0,0.0,0.0,0.0,0.0,0.0,0.0,0.0,0.0,0.0,0.0,0.0,0.0,0.0,0.0,0.0,0.0,0.0,0.0,0.0,0.0,0.0,0.0,0.0,0.0,0.0,0.0,0.0,0.0,0.0,0.0,-3.7499,-3.7393,0.0,0.0,0.0,-3.7142,-3.6776,0.0,0.0,0.0,0.0,0.0,0.0,0.0,0.0,0.0,0.0,0.0,0.0,0.0,0.0,0.0,0.0,0.0,0.0,0.0,0.0,0.0,0.0,0.0,0.0,0.0,0.0,0.0,0.0,0.0,0.0,0.0,0.0,0.0,0.0,0.0,0.0,0.0,0.0,0.0,0.0,0.0,0.0,0.0,0.0,0.0,0.0,0.0,0.0,0.0,0.0,0.0,0.0,0.0,0.0,0.0,0.0,0.0,-3.5914,-3.6739,-3.7157,-3.7185,-3.7165,-3.6864,-3.6224,-3.6059,0.0,0.0,0.0,0.0,0.0,0.0,0.0,0.0,0.0,0.0,0.0,0.0,0.0,0.0,0.0,0.0,0.0,0.0,0.0,0.0,0.0,0.0,0.0,0.0,0.0,0.0,0.0,-2.475,0.0,0.0,0.0,0.0,0.0,0.0,0.0,0.0,0.0,0.0,0.0,0.0,0.0,0.0,-3.6758,-3.6993,-3.7006,-3.7129,0.0,0.0,-3.645,-3.6312,-3.6665,-3.6296,0.0,0.0,0.0,0.0,0.0,0.0,0.0,0.0,0.0,0.0,0.0,0.0,0.0,0.0,0.0,0.0,0.0,0.0,0.0,0.0,0.0,0.0,0.0,0.0,0.0,0.0,0.0,0.0,0.0,0.0,0.0,0.0,0.0,0.0,0.0,0.0,0.0,0.0,0.0,0.0,0.0,0.0,0.0,0.0,0.0,0.0,0.0,0.0,0.0,0.0,0.0,0.0,0.0,0.0,0.0,-3.5866,-3.5972,-3.601,-3.6001,-3.5283,-3.4886,-3.483,-3.4286,-3.3936,0.0,0.0,0.0,0.0,0.0,0.0,0.0,0.0,0.0,0.0,0.0,0.0,0.0,0.0,0.0,0.0,0.0,0.0,0.0,0.0,0.0,0.0,0.0,0.0,0.0,0.0,0.0,0.0,0.0,0.0,0.0,0.0,0.0,0.0,0.0,0.0,0.0,0.0,0.0,0.0,0.0,-3.7266,-3.5851,-3.6261,-3.6472,0.0,-3.5848,-3.5799,-3.5287,-3.6512,-3.678,-3.4563,0.0,0.0,0.0,0.0,0.0,0.0,0.0,0.0,0.0,0.0,0.0,0.0,0.0,0.0,0.0,0.0,0.0,0.0,0.0,0.0,0.0,0.0,0.0,0.0,0.0,0.0,0.0,0.0,0.0,0.0,0.0,0.0,0.0,0.0,0.0,0.0,0.0,0.0,0.0,0.0,0.0,0.0,0.0,0.0,0.0,0.0,0.0,0.0,0.0,0.0,0.0,0.0,0.0,-3.3445,-3.3875,-3.4498,-3.4851,-3.4843,-3.4743,-3.4694,-3.4694,-3.3951,-3.3306,0.0,0.0,0.0,0.0,0.0,0.0,0.0,0.0,0.0,0.0,0.0,0.0,0.0,0.0,0.0,0.0,0.0,0.0,0.0,0.0,0.0,0.0,0.0,0.0,0.0,0.0,0.0,0.0,-2.7145,-2.753,-2.8033,0.0,0.0,0.0,0.0,0.0,0.0,0.0,0.0,0.0,0.0,-3.5887,-3.5296,-3.5632,0.0,0.0,-3.6055,-3.583,-3.5618,-3.5732,-3.5154,-3.3249,-3.3655,0.0,0.0,0.0,0.0,0.0,0.0,0.0,0.0,0.0,0.0,0.0,0.0,0.0,0.0,0.0,0.0,0.0,0.0,0.0,0.0,0.0,0.0,0.0,0.0,0.0,0.0,0.0,0.0,0.0,0.0,0.0,0.0,0.0,0.0,0.0,0.0,0.0,0.0,0.0,0.0,0.0,0.0,0.0,0.0,0.0,0.0,0.0,0.0,0.0,0.0,0.0,0.0,-3.2472,-3.2949,-3.3709,-3.4074,-3.4093,-3.4307,-3.4326,-3.4056,-3.3298,-3.254,0.0,0.0,0.0,0.0,0.0,0.0,0.0,0.0,0.0,0.0,0.0,0.0,0.0,0.0,0.0,0.0,0.0,0.0,0.0,0.0,0.0,0.0,0.0,0.0,0.0,0.0,0.0,0.0,-2.7465,-2.7694,-2.8276,0.0,0.0,0.0,0.0,0.0,0.0,0.0,0.0,0.0,0.0,-3.459,-3.4469,-3.4853,-3.5325,-3.5775,-3.5515,-3.5297,-3.5378,-3.4918,-3.4083,-3.2769,0.0,0.0,0.0,0.0,0.0,0.0,0.0,0.0,0.0,0.0,0.0,0.0,0.0,0.0,0.0,0.0,0.0,0.0,0.0,0.0,0.0,0.0,0.0,0.0,0.0,0.0,0.0,-3.3684,0.0,0.0,-3.1843,0.0,0.0,0.0,0.0,0.0,0.0,0.0,0.0,0.0,0.0,0.0,0.0,0.0,0.0,0.0,0.0,0.0,0.0,0.0,0.0,0.0,0.0,-3.2161,-3.3702,-3.3738,-3.3788,-3.377,-3.3815,-3.343,-3.2658,-3.211,-3.1432,-3.0642,0.0,0.0,0.0,0.0,0.0,0.0,0.0,0.0,0.0,0.0,0.0,0.0,0.0,0.0,0.0,0.0,0.0,0.0,0.0,0.0,0.0,0.0,0.0,0.0,0.0,0.0,-2.6774,-2.6737,-2.6796,0.0,0.0,0.0,0.0,0.0,0.0,0.0,0.0,0.0,-3.1223,-3.2692,-3.3602,-3.3298,-3.3915,-3.4286,-3.3936,-3.3894,-3.3939,-3.4196,-3.4206,-3.4012,0.0,0.0,0.0,0.0,0.0,0.0,0.0,0.0,0.0,0.0,0.0,0.0,0.0,0.0,0.0,0.0,0.0,0.0,0.0,0.0,0.0,0.0,0.0,0.0,0.0,0.0,0.0,-3.3515,-3.2089,0.0,0.0,0.0,0.0,0.0,0.0,0.0,0.0,0.0,0.0,0.0,-2.9465,-2.9181,0.0,0.0,0.0,0.0,0.0,0.0,0.0,0.0,0.0,0.0,0.0,0.0,-3.0869,-3.1422,-3.243,-3.2699,-3.2224,-3.2463,-3.2246,-3.1497,-3.0999,-3.0165,-2.8962,0.0,0.0,0.0,0.0,0.0,0.0,0.0,0.0,0.0,0.0,0.0,0.0,0.0,0.0,0.0,0.0,0.0,0.0,0.0,0.0,0.0,0.0,0.0,0.0,0.0,-2.7419,0.0,0.0,0.0,0.0,0.0,0.0,0.0,0.0,0.0,0.0,0.0,-3.0466,-3.1211,-3.2235,-3.285,-3.2749,-3.2961,-3.3078,0.0,0.0,0.0,0.0,0.0,0.0,0.0,0.0,0.0,0.0,0.0,0.0,0.0,0.0,-3.5332,-3.2791,-3.1912,-3.1593,-3.1776,0.0,0.0,0.0,0.0,0.0,0.0,0.0,0.0,0.0,0.0,0.0,0.0,0.0,0.0,-3.2131,-3.0958,-3.0676,0.0,0.0,0.0,0.0,0.0,0.0,0.0,0.0,-2.9849,-2.939,-2.8696,-2.8696,-2.8435,-2.7998,-2.796,-2.8103,0.0,0.0,0.0,0.0,0.0,0.0,0.0,0.0,-3.034,-3.0656,-3.1613,-3.1878,-3.143,-3.1395,-3.1045,-3.0302,-2.97,-2.8822,-2.7665,-2.7391,-2.6622,0.0,0.0,0.0,0.0,0.0,0.0,0.0,0.0,0.0,0.0,0.0,0.0,0.0,0.0,0.0,0.0,0.0,0.0,0.0,0.0,0.0,0.0,0.0,-2.6819,0.0,0.0,0.0,0.0,0.0,0.0,0.0,0.0,0.0,-2.8858,-2.9686,-3.0435,-3.1185,-3.1725,-3.2092,-3.2248,0.0,0.0,0.0,0.0,0.0,0.0,0.0,-3.2166,-3.2184,-3.1757,-3.1562,-3.2057,-3.3219,-3.4035,-3.3745,0.0,0.0,-3.3308,-3.2504,-3.21,-3.2392,-3.2716,-3.2708,-3.1932,-3.2415,-3.2576,0.0,0.0,0.0,0.0,-3.4418,0.0,0.0,0.0,-3.0846,-3.0526,0.0,-2.9765,0.0,0.0,0.0,0.0,-2.9454,-3.0085,0.0,0.0,-3.0039,-3.003,-2.9355,-2.93,-2.9323,-2.9307,-2.9236,-2.8876,-2.8137,-2.7283,0.0,0.0,0.0,0.0,0.0,0.0,-3.0519,-3.119,-3.1262,-3.1312,-3.1225,-3.0599,-2.9852,-2.9104,-2.8315,-2.7593,-2.6829,-2.7451,-2.6768,-2.4537,-2.5083,0.0,0.0,0.0,0.0,0.0,0.0,0.0,0.0,0.0,0.0,0.0,0.0,0.0,0.0,0.0,0.0,0.0,0.0,0.0,0.0,-2.6258,0.0,0.0,0.0,0.0,0.0,0.0,0.0,0.0,0.0,0.0,-2.8609,-2.9546,-3.034,-3.1052,0.0,0.0,0.0,0.0,-3.195,-3.2384,-3.2451,-3.2451,-3.2434,-3.2414,-3.2378,-3.2413,0.0,0.0,-3.1372,-3.1901,-3.2197,-3.1439,-3.2001,-3.3203,-3.5488,-3.4269,-3.3364,-3.3998,-3.2715,-3.1703,-3.2271,-3.2374,-3.2165,-3.3443,0.0,0.0,0.0,0.0,-3.2329,-3.22,-3.2942,-3.2245,-3.1318,-3.04,-3.0208,0.0,0.0,0.0,0.0,0.0,0.0,-2.8967,-2.8748,-2.8528,-2.8308,-2.81,-2.8125,-2.7856,-2.7407,-2.7407,-2.6995,-2.6227,-2.5968,-2.6246,-2.6996,0.0,0.0,0.0,0.0,-2.8596,-2.8836,-2.9403,-2.942,-2.8836,-2.8912,-2.8726,-2.8248,-2.8003,-2.7791,-2.7565,-2.7232,-2.6741,-2.6025,-2.512,0.0,0.0,0.0,0.0,0.0,0.0,0.0,0.0,0.0,0.0,0.0,0.0,0.0,0.0,0.0,0.0,0.0,0.0,0.0,-2.6352,-2.6079,-2.5438,0.0,0.0,0.0,0.0,0.0,0.0,0.0,0.0,0.0,-2.7036,-2.8091,-2.9258,0.0,0.0,-3.076,-3.1312,-3.137,-3.1411,-3.1543,-3.1581,0.0,-3.1581,-3.0888,-3.0558,-3.1115,-3.1064,-3.0735,-3.0169,-3.0554,-3.0863,-3.0617,-3.0758,-3.1186,-3.1846,-3.2465,-3.2749,-3.293,-3.2548,-3.2235,-3.2396,-3.186,-3.1132,-3.2394,-3.2748,-3.2568,-3.2771,-3.3072,-3.1905,-3.1777,-3.2331,-3.1665,-3.0859,-3.0049,-2.9503,-2.8826,-2.8007,-2.7727,0.0,0.0,0.0,-2.814,-2.814,-2.776,-2.745,-2.721,-2.721,-2.6866,-2.6213,-2.6198,-2.5967,-2.5482,-2.5207,-2.5491,-2.6282,0.0,0.0,-2.6104,-2.6834,-2.7308,-2.754,-2.7993,-2.8101,-2.7807,-2.7742,-2.7645,-2.7428,-2.7409,-2.7409,-2.7407,-2.6961,-2.6564,-2.6251,-2.5333,-2.4774,0.0,0.0,0.0,0.0,0.0,0.0,0.0,0.0,0.0,0.0,0.0,-2.5313,-2.3874,0.0,0.0,0.0,-2.4805,-2.5502,-2.5674,-2.5426,0.0,0.0,0.0,0.0,0.0,0.0,0.0,-2.5496,-2.5591,-2.5618,-2.5649,-2.6564,-2.7709,-2.8981,-2.9151,-2.9276,-2.9639,0.0,-2.9696,-2.9696,-2.9679,-2.9716,-2.9683,-2.913,-2.8903,-2.9598,-2.9765,-2.969,-2.9437,-2.9607,-2.9772,-2.9789,-2.9789,-2.9789,-2.9789,-3.0523,-3.1167,-3.1318,-3.12,-3.1115,-3.1115,-3.0525,-2.9953,-3.1278,-3.1348,-3.1902,-3.229,-3.2427,-3.1713,-3.1043,-3.0462,-2.9921,-2.9621,-2.9415,-2.8136,-2.7529,-2.7403,-2.6783,0.0,-2.7433,-2.7433,-2.7408,-2.7418,-2.7388,-2.7056,-2.6514,-2.6454,-2.612,-2.5525,-2.5525,-2.551,-2.5405,-2.4799,-2.4767,-2.5244,-2.5127,-2.5125,-2.525,-2.5862,-2.6471,-2.6944,-2.6928,-2.7149,-2.7565,-2.6926,-2.6573,-2.6573,-2.659,-2.6573,-2.6573,-2.6573,-2.627,-2.5613,-2.5512,-2.4872,-2.3575,0.0,0.0,0.0,0.0,0.0,0.0,0.0,0.0,0.0,0.0,0.0,0.0,0.0,0.0,0.0,-2.4621,0.0,-2.5128,-2.4512,0.0,0.0,0.0,-2.4108,-2.4071,-2.4237,-2.4328,-2.4328,0.0,0.0,-2.453,-2.5053,-2.5857,-2.6957,-2.724,-2.7345,-2.7387,-2.7497,-2.7407,-2.755,-2.746,-2.7439,-2.7655,-2.7478,-2.751,-2.7871,-2.8369,-2.8578,-2.8578,-2.8595,-2.8664,-2.8598,-2.8664,-2.8647,-2.8682,-2.8648,-2.8827,-2.9214,-2.9212,-2.9063,-2.915,-2.9047,-2.8741,-2.9597,-2.9572,-2.9328,-3.0206,-3.1724,-3.1558,-3.1112,-3.0507,-3.0342,-2.9744,-2.879,-2.7915,-2.6915,-2.5905,-2.5764,-2.5778,-2.5932,-2.5919,-2.5919,-2.589,-2.545,-2.5414,-2.573,-2.534,-2.5041,-2.4836,-2.4829,-2.456,-2.4088,-2.3924,-2.3899,-2.3999,-2.3997,-2.4405,-2.5182,-2.5362,-2.5535,-2.565,-2.565,-2.5707,-2.5805,-2.5642,-2.5542,-2.5561,-2.5561,-2.5561,-2.5561,-2.5561,-2.548,-2.5283,-2.4762,-2.4288,-2.3964,-2.3075,0.0,0.0,0.0,0.0,0.0,0.0,0.0,0.0,0.0,-2.4068,-2.1585,0.0,-2.3732,0.0,-2.3488,-2.4137,-2.4536,-2.4416,0.0,0.0,-2.4096,-2.4177,-2.3762,-2.3767,-2.3794,-2.3773,-2.3816,-2.3849,-2.3849,-2.3984,-2.4183,-2.4493,-2.5805,-2.6861,-2.7325,-2.7407,-2.7407,-2.7334,-2.7318,-2.7407,-2.7286,-2.6916,-2.6402,-2.5989,-2.6043,-2.61,-2.6119,-2.6084,-2.6084,-2.61,-2.61,-2.6119,-2.6187,-2.61,-2.6323,-2.6846,-2.7986,-2.8993,-2.8976,-2.8518,-2.8027,-2.8837,-2.8605,-2.8304,-2.8739,-2.9624,-2.961,-2.9407,-2.9058,-2.8783,-2.829,-2.7569,-2.6871,-2.6133,-2.5398,-2.5398,-2.5398,-2.5398,-2.5398,-2.5398,-2.5356,-2.4803,-2.4558,-2.4629,-2.4081,-2.365,-2.3305,-2.3305,-2.3103,-2.2778,-2.2764,-2.2928,-2.3187,-2.3187,-2.3629,-2.445,-2.4491,-2.4597,-2.4835,-2.5086,-2.5202,-2.5202,-2.5202,-2.5202,-2.5202,-2.5202,-2.5202,-2.5202,-2.5202,-2.5202,-2.5202,-2.4814,-2.4425,-2.4103,-2.3353,-2.2777,0.0,0.0,0.0,0.0,0.0,0.0,0.0,0.0,0.0,0.0,0.0,-2.2856,-2.2502,-2.3158,-2.3709,-2.4012,-2.4048,-2.3921,-2.3638,-2.3858,-2.3906,-2.3616,-2.3355,-2.3187,-2.3187,-2.2935,-2.2868,-2.3143,-2.3201,-2.3297,-2.3566,-2.4552,-2.5342,-2.5611,-2.568,-2.5717,-2.5717,-2.5717,-2.5717,-2.5717,-2.5586,-2.5313,-2.4966,-2.5047,-2.5202,-2.5202,-2.5202,-2.5202,-2.5202,-2.5202,-2.5202,-2.5202,-2.5202,-2.5316,-2.5675,-2.6512,-2.7409,-2.7872,-2.7447,-2.7003,-2.8347,-2.7862,-2.7807,-2.744,-2.685,-2.6811,-2.6913,-2.7161,-2.6632,-2.6283,-2.61,-2.5507,-2.5203,-2.5091,-2.5119,-2.5091,-2.5119,-2.5133,-2.5078,-2.4969,-2.4381,-2.3846,-2.3336,-2.2743,-2.22,-2.1724,-2.1697,-2.1697,-2.1697,-2.1697,-2.1993,-2.2543,-2.2581,-2.2852,-2.3341,-2.3363,-2.3672,-2.4287,-2.4756,-2.4992,-2.5008,-2.5008,-2.5008,-2.5008,-2.4992,-2.5008,-2.5008,-2.4992,-2.4973,-2.4992,-2.4973,-2.4699,-2.4075,-2.3964,-2.3628,0.0,-2.2893,0.0,0.0,0.0,0.0,0.0,0.0,0.0,0.0,-2.2229,-2.1947,-2.2503,-2.3036,-2.3363,-2.3363,-2.3363,-2.3363,-2.3363,-2.3341,-2.3363,-2.3341,-2.2883,-2.2581,-2.2581,-2.2053,-2.1946,-2.2475,-2.2581,-2.2793,-2.3187,-2.3341,-2.3444,-2.3414,-2.3633,-2.3808,-2.3595,-2.3595,-2.3902,-2.3887,-2.4094,-2.4333,-2.4364,-2.4632,-2.4973,-2.4934,-2.4858,-2.4842,-2.4921,-2.4835,-2.4823,-2.4976,-2.4953,-2.4992,-2.5086,-2.5224,-2.5543,-2.6274,-2.6273,-2.5924,-2.6627,-2.605,-2.564,-2.5128,-2.4577,-2.4102,-2.4935,-2.6576,-2.6465,-2.5763,-2.4711,-2.4563,-2.4147,-2.356,-2.3531,-2.3531,-2.3531,-2.3531,-2.3304,-2.2856,-2.2334,-2.2029,-2.1941,-2.1407,-2.1342,-2.1687,-2.1697,-2.1697,-2.1697,-2.1697,-2.1781,-2.1875,-2.1875,-2.1946,-2.2049,0.0,0.0,0.0,-2.3837,-2.3885,-2.3921,-2.39,-2.39,-2.39,-2.39,0.0,-2.3921,-2.3921,-2.39,-2.3921,-2.3885,0.0,0.0,0.0,0.0,0.0,0.0,0.0,0.0,0.0,0.0,0.0,-2.0784,-2.0624,-2.1864,-2.1812,-2.1743,-2.187,-2.2007,-2.2049,-2.2049,-2.2063,-2.2049,-2.2049,-2.2086,-2.2072,-2.2049,-2.1969,-2.1899,-2.1899,-2.1781,-2.172,-2.1852,-2.1899,-2.1946,-2.2109,-2.2049,-2.2049,-2.2095,-2.2935,-2.3551,-2.3595,-2.3508,-2.3551,-2.3595,-2.3644,-2.3672,-2.3773,-2.3794,-2.3891,-2.3909,-2.3477,-2.3416,-2.3766,-2.3512,-2.3371,-2.3791,-2.39,-2.4003,-2.4455,-2.4521,-2.4736,-2.5354,-2.5395,-2.5354,-2.5711,-2.5172,-2.4632,-2.4061,0.0,-2.3221,-2.3714,-2.476,-2.476,-2.438,-2.3721,-2.3708,-2.3484,-2.3095,-2.3095,-2.3095,-2.3095,-2.3095,-2.2807,-2.2284,-2.1744,-2.1371,-2.1145,-2.0579,-2.0484,-2.0756,-2.0769,-2.0769,-2.0781,-2.0756,-2.0928,-2.1259,-2.1245,-2.1414,-2.1673,-2.1697,-2.2193,-2.3143,-2.3143,-2.3312,-2.3573,-2.3595,-2.3595,-2.3595,-2.3595,0.0,0.0,0.0,0.0,0.0,0.0,0.0,0.0,0.0,0.0,-2.2235,-2.1902,-2.1564,-2.1284,-2.1202,-2.1203,-2.1237,-2.094,-2.0882,-2.1248,-2.1522,-2.1694,-2.1693,-2.1697,-2.1697,-2.1697,-2.1697,-2.1697,-2.1697,-2.1697,-2.1697,-2.1673,-2.1438,-2.1259,-2.1221,-2.0953,-2.0879,-2.1234,-2.1245,-2.1414,-2.1663,-2.1697,-2.1673,-2.1744,-2.2248,-2.2651,-2.2674,-2.2674,-2.2674,-2.2688,-2.2674,-2.2809,-2.3024,-2.2878,-2.281,-2.311,-2.2607,-2.2328,-2.2577,-2.2398,-2.2308,-2.2562,-2.2652,-2.277,-2.297,-2.3051,-2.3131,-2.3448,-2.3901,-2.4311,-2.5297,-2.4738,-2.4217,-2.3634,-2.3095,-2.3095,-2.3095,-2.3095,-2.3095,0.0,0.0,-2.3095,-2.3095,-2.3095,-2.3095,-2.3095,-2.3095,-2.3095,-2.2757,-2.2117,-2.1694,-2.1169,-2.0528,-2.0037,-1.9798,-1.9798,-1.9798,-1.9798,-1.9798,-1.9798,-2.008,-2.0585,-2.0622,-2.0881,-2.1328,-2.1339,-2.17,-2.2337,-2.2489,-2.2748,-2.3238,-2.326,-2.326,-2.326,-2.3275,-2.326,-2.326,-2.326,-2.326,-2.326,-2.326,-2.3039,-2.2566,-2.2535,-2.2276,-2.1744,-2.1697,-2.1489,-2.1001,-2.1331,-2.1281,-2.065,-2.1081,-2.1196,-2.0817,-2.126,-2.1496,-2.1387,-2.1363,-2.1339,-2.1363,-2.1363,-2.1363,-2.1363,-2.1376,-2.1363,-2.1328,-2.0928,-2.0635,-2.0572,-2.0169,-2.0003,-2.0547,-2.0622,-2.0782,-2.1232,-2.1242,-2.1363,-2.1387,-2.1578,-2.1815,-2.1815,-2.1862,-2.1767,-2.1706,-2.1652,-2.1806,-2.2224,-2.182,-2.1636,-2.1974,-2.1691,-2.1371,-2.1609,-2.1486,-2.1491,-2.1645,-2.1784,-2.1695,-2.1695,-2.1695,-2.165,-2.1629,-2.2245,-2.2971,-2.5285,-2.4738,-2.423,-2.3665,-2.3095,-2.3095,-2.3095,-2.3095,-2.3095,-2.3095,-2.3095,-2.3095,-2.3095,-2.3095,-2.3095,-2.3095,-2.3095,-2.3095,-2.2556,-2.1619,-2.1531,-2.0941,-1.9936,-1.9849,-1.9798,-1.9798,-1.9798,-1.9798,-1.9798,-1.9798,-1.985,-1.9927,-1.9952,-1.9991,-2.0067,-2.0067,-2.0383,-2.1066,-2.1568,-2.1862,-2.1955,-2.1955,-2.1955,-2.1955,-2.1993,-2.1955,-2.1979,-2.1979,-2.1955,-2.1979,-2.1955,-2.1908,-2.1852,-2.1852,-2.1791,-2.1697,-2.1697,-2.1655,-2.1562,-2.1156,-2.0632,-2.0016,-2.0029,-2.0257,-2.0764,-2.089,-2.0683,-2.0156,-2.0105,-2.0093,-2.0067,-2.0131,-2.0156,-2.0131,-2.008,-2.0067,-2.0131,-2.0067,-1.9978,-1.9978,-1.9875,-1.9798,-1.9888,-1.9978,-2.0003,-2.0067,-2.0219,-2.0131,-2.0345,-2.1013,-2.1625,-2.1697,-2.1697,-2.1697,-2.1513,-2.1268,-2.1057,-2.1115,-2.0695,-2.0342,-2.0543,-2.0054,-1.9937,-2.0802,-2.0474,-2.0547,-2.1297,-2.1695,-2.1481,-2.1431,-2.1396,-2.1327,-2.0831,-2.0961,-2.1463,-2.4594,-2.4318,-2.3735,-2.3346,-2.3095,-2.3095,-2.3095,-2.3095,-2.3095,-2.3095,-2.3095,-2.3095,-2.3095,-2.3095,-2.3095,-2.3095,-2.3095,-2.3095,-2.2669,-2.1945,-2.1631,-2.1081,-2.0314,-1.9936,-1.9798,-1.9798,-1.9798,-1.9798,-1.9798,-1.9798,-1.9798,-1.9798,-1.9798,-1.9798,-1.9798,-1.9798,-1.9952,-2.0258,-2.0906,-2.1352,-2.1673,-2.1697,-2.1697,-2.1697,-2.1697,-2.1697,-2.1697,-2.1697,-2.1697,-2.1697,-2.1697,-2.1568,-2.1221,-2.1197,-2.1051,-2.072,-2.0682,-2.0695,-2.0657,-2.0408,-2.0118,-1.9824,-1.9798,-1.9927,-2.022,-2.0258,-2.0131,-1.985,-1.9798,-1.9798,-1.9798,-1.9798,-1.9798,-1.9798,-1.9798,-1.9798,-1.9798,-1.9798,-1.9798,-1.9798,-1.9798,-1.9643,-1.9254,-1.9553,-1.9618,-1.9345,-1.9501,-1.9773,-1.976,-2.0,-2.0366,-2.0576,-2.042,-2.0381,-2.055,-1.9969,-1.9767,-2.028,-1.9647,-1.9285,-1.9404,-1.9003,-1.8876,-1.9232,-1.9117,-1.9154,-1.9751,-1.9737,-1.9751,-1.9766,-1.9732,-1.9559,-1.9372,-1.9545,-2.0253,-2.3527,-2.3648,-2.3089,-2.2823,-2.2811,-2.2598,-2.2537,-2.2525,-2.2525,-2.2537,-2.2598,-2.2914,-2.3095,-2.3095,-2.3095,-2.3095,-2.3095,-2.3095,-2.2819,-2.2284,-2.1744,-2.1232,-2.0666,-2.0075,-1.9798,-1.9798,-1.9798,-1.9798,-1.9798,-1.9798,-1.9798,-1.9798,-1.9798,-1.9798,-1.9798,-1.9798,-1.9798,-1.985,-2.0334,-2.0807,-2.1256,-2.128,-2.1242,-2.128,-2.1256,-2.1266,-2.1266,-2.1266,-2.1212,-2.1104,-2.1212,-2.1008,-2.0451,-2.0506,-2.0346,-1.9875,-1.9798,-1.9798,-1.9798,-1.9798,-1.9798,-1.9798,-1.9643,-1.9553,-1.9553,-1.9397,-1.9397,-1.9501,-1.9333,-1.9254,-1.9228,-1.9254,-1.9307,-1.9319,-1.9307,-1.9228,-1.9281,-1.9307,-1.9319,-1.9319,-1.9281,-1.9044,-1.8727,-1.8927,-1.9018,-1.8635,-1.8965,-1.9293,-1.927,-1.904,-1.9131,-1.9182,-1.9046,-1.9032,-1.9321,-1.8692,-1.8525,-1.9316,-1.8541,-1.813,-1.8244,-1.8031,-1.7882,-1.7949,-1.7982,-1.8095,-1.81,-1.8187,-1.8268,-1.8349,-1.8397,-1.824,-1.8288,-1.8779,-1.9498,-2.212,-2.2687,-2.2205,-2.2013,-2.1939,-2.1195,-2.091,-2.091,-2.0846,-2.0814,-2.1069,-2.2402,-2.3047,-2.3095,-2.3035,-2.3005,-2.3005,-2.3095,-2.276,-2.2222,-2.1744,-2.1192,-2.0611,-2.0048,-1.9798,-1.9773,-1.9773,-1.9747,-1.9798,-1.9798,-1.9798,-1.9798,-1.9798,-1.9798,-1.9798,-1.9798,-1.9798,-1.9798,-1.985,-1.9927,-1.9965,-1.9965,-1.9965,-1.9965,-1.9991,-1.9978,-2.0042,-1.9965,-1.9762,-1.9357,-1.975,-1.9763,-1.9308,-1.9623,-1.9875,-1.9798,-1.9798,-1.9798,-1.9773,-1.9798,-1.9747,-1.9747,-1.9162,-1.8794,-1.8768,-1.8194,-1.8085,-1.8489,-1.8194,-1.7934,-1.7813,-1.7879,-1.7961,-1.8015,-1.7961,-1.7797,-1.7907,-1.7786,-1.7813,-1.7786,-1.7988,-1.7797,-1.777,-1.7825,-1.7852,-1.7852,-1.795,-1.807,-1.8085,-1.8333,-1.8374,-1.8204,-1.8118,-1.8246,-1.8343,-1.7877,-1.768,-1.7698,-1.7159,-1.6939,-1.6978,-1.694,-1.6774,-1.7312,-1.736,-1.7504,-1.7847,-1.8092,-1.8013,-1.7867,-1.7894,-1.8013,-1.8141,-1.8493,-1.9272,-2.1153,-2.1431,-2.1224,-2.1144,-2.1069,-2.0719,-2.059,-2.059,-2.059,-2.059,-2.0655,-2.1342,-2.1635,-2.1647,-2.1604,-2.1604,-2.1647,-2.1616,-2.1498,-2.1252,-2.0728,-2.0211,-1.9724,-1.9179,-1.897,-1.9135,-1.915,-1.9385,-1.9747,-1.9798,-1.9798,-1.9798,-1.9798,-1.9798,-1.9798,-1.9798,-1.9798,-1.9798,-1.9798,-1.9798,-1.9798,-1.9798,-1.9798,-1.9798,-1.9798,-1.9635,-1.9371,-1.9321,-1.907,-1.8607,-1.9033,-1.9233,-1.902,-1.9522,-1.9798,-1.9773,-1.9359,-1.8953,-1.8516,-1.8489,-1.8501,-1.8501,-1.8232,-1.8043,-1.8004,-1.7385,-1.709,-1.733,-1.7523,-1.7605,-1.7578,-1.7605,-1.7605,-1.7605,-1.7605,-1.7578,-1.7605,-1.7605,-1.7605,-1.7605,-1.7605,-1.7385,-1.7052,-1.695,-1.7135,-1.7468,-1.7578,-1.7523,-1.7594,-1.7603,-1.7325,-1.697,-1.6697,-1.7063,-1.7756,-1.7413,-1.7124,-1.7174,-1.6898,-1.6513,-1.6513,-1.6513,-1.6595,-1.6816,-1.6858,-1.6909,-1.7055,-1.7146,-1.7167,-1.7209,-1.7167,-1.7146,-1.7167,-1.7371,-1.7921,-2.0042,-2.0236,-2.0236,-2.0236,-2.0204,-1.9977,-1.9879,-1.989,-1.9879,-1.9879,-1.9879,-1.989,-1.9879,-1.9955,-2.0365,-2.059,-2.059,-2.059,-2.059,-2.0512,-1.9921,-1.9448,-1.9048,-1.8404,-1.8215,-1.8387,-1.8382,-1.8661,-1.9176,-1.9423,-1.9501,-1.9501,-1.9501,-1.9618,-1.9773,-1.9643,-1.9592,-1.9798,-1.9798,-1.9798,-1.9798,-1.9798,-1.9798,-1.9798,-1.9798,-1.9534,-1.9045,-1.9008,-1.8669,-1.8028,-1.8619,-1.8821,-1.8536,-1.9105,-1.9423,-1.9176,-1.8688,-1.8178,-1.7633,-1.7605,-1.7605,-1.7605,-1.744,-1.7313,-1.7174,-1.6624,-1.6226,-1.6255,-1.6698,-1.694,-1.6996,-1.6996,-1.6996,-1.6996,-1.6985,-1.6996,-1.6957,-1.6996,-1.694,-1.6996,-1.6856,-1.68,-1.634,-1.6197,-1.6397,-1.68,-1.694,-1.6996,-1.7019,-1.6786,-1.66,-1.6148,-1.5764,-1.6096,-1.7177,-1.6821,-1.6578,-1.6851,-1.6722,-1.6513,-1.6513,-1.6513,-1.6513,-1.6637,-1.6543,-1.6543,-1.6701,-1.6616,-1.6552,-1.6522,-1.6543,-1.6565,-1.6637,-1.6556,-1.6693,-1.8586,-1.9309,-1.9365,-1.9375,-1.9299,-1.8519,-1.8178,-1.8293,-1.8202,-1.8168,-1.8236,-1.8192,-1.8134,-1.8327,-1.9792,-2.0558,-2.0558,-2.0462,-2.043,-2.0341,-1.9538,-1.9097,-1.9015,-1.8109,-1.7623,-1.7672,-1.766,-1.7715,-1.7825,-1.8421,-1.8741,-1.8768,-1.8741,-1.9085,-1.9501,-1.9044,-1.9097,-1.9579,-1.9643,-1.9721,-1.9747,-1.9747,-1.9695,-1.9669,-1.976,-1.9433,-1.8971,-1.8958,-1.8445,-1.7453,-1.8321,-1.8388,-1.7445,-1.8193,-1.8436,-1.7825,-1.7688,-1.7633,-1.7523,-1.7468,-1.7495,-1.744,-1.6866,-1.6549,-1.651,-1.595,-1.5584,-1.5497,-1.5633,-1.5661,-1.5661,-1.5777,-1.569,-1.5661,-1.5613,-1.5613,-1.5584,-1.5748,-1.5526,-1.5613,-1.569,-1.5729,-1.5526,-1.5429,-1.5555,-1.5661,-1.5584,-1.5642,-1.5796,-1.6128,-1.6172,-1.5917,-1.5812,-1.6026,-1.5831,-1.5739,-1.5959,-1.6271,-1.6452,-1.6479,-1.6513,-1.6513,-1.6513,-1.6513,-1.6513,-1.6513,-1.6513,-1.6513,-1.6522,-1.6513,-1.6513,-1.6513,-1.6513,-1.6513,-1.6607,-1.8168,-1.8462,-1.8462,-1.8462,-1.8428,-1.811,-1.8008,-1.8008,-1.8008,-1.8008,-1.8008,-1.8008,-1.8008,-1.8052,-1.8654,-1.8944,-1.8921,-1.8954,-1.8954,-1.887,-1.8572,-1.8119,-1.7554,-1.7174,-1.6967,-1.6902,-1.6894,-1.7146,-1.7605,-1.7868,-1.8004,-1.7988,-1.8015,-1.814,-1.8301,-1.8151,-1.814,-1.8367,-1.8409,-1.8394,-1.8447,-1.8382,-1.8382,-1.8397,-1.8602,-1.8231,-1.7217,-1.6925,-1.6525,-1.6068,-1.6781,-1.7124,-1.7017,-1.7611,-1.7649,-1.7006,-1.6894,-1.6698,-1.6273,-1.6187,-1.6197,-1.6169,-1.5968,-1.5845,-1.5748,-1.5555,-1.542,-1.542,-1.542,-1.542,-1.542,-1.542,-1.542,-1.542,-1.542,-1.542,-1.542,-1.542,-1.542,-1.542,-1.542,-1.542,-1.542,-1.542,-1.542,-1.542,-1.542,-1.542,-1.5439,-1.5661,-1.5656,-1.5225,-1.4989,-1.4841,-1.4884,-1.497,-1.5197,-1.5644,-1.593,-1.6151,-1.625,-1.6328,-1.6328,-1.625,-1.6293,-1.6293,-1.6228,-1.6337,-1.6371,-1.6414,-1.6436,-1.6513,-1.6513,-1.6513,-1.6513,-1.8008,-1.8008,-1.8008,-1.8008,-1.8008,-1.8008,-1.8008,-1.8008,-1.8008,-1.8008,-1.8008,-1.8008,-1.8008,-1.8008,-1.8008,-1.8008,-1.8008,-1.8008,-1.8008,-1.7988,-1.7871,-1.7467,-1.695,-1.665,-1.6476,-1.6359,-1.6212,-1.6425,-1.6866,-1.7135,-1.7257,-1.7246,-1.7246,-1.7396,-1.7523,-1.7385,-1.733,-1.7523,-1.7605,-1.7605,-1.7605,-1.7605,-1.7468,-1.7291,-1.7338,-1.7111,-1.6397,-1.6087,-1.5793,-1.5641,-1.5972,-1.6287,-1.6539,-1.6737,-1.6669,-1.6236,-1.614,-1.596,-1.5497,-1.542,-1.541,-1.542,-1.542,-1.542,-1.542,-1.542,-1.542,-1.542,-1.542,-1.542,-1.542,-1.542,-1.542,-1.542,-1.542,-1.542,-1.542,-1.542,-1.542,-1.542,-1.542,-1.542,-1.542,-1.542,-1.542,-1.542,-1.542,-1.542,-1.542,-1.54,-1.5332,-1.499,-1.452,-1.4357,-1.4241,-1.4247,-1.4545,-1.5005,-1.5298,-1.5599,-1.5832,-1.5954,-1.602,-1.5964,-1.5942,-1.592,-1.5998,-1.6107,-1.6173,-1.6194,-1.6402,-1.6513,-1.6513,-1.6513,-1.6513,-1.8008,-1.8008,-1.8008,-1.8008,-1.8008,-1.8008,-1.8008,-1.8008,-1.8008,-1.8008,-1.8008,-1.8008,-1.8008,-1.8008,-1.8008,-1.8008,-1.8008,-1.8008,-1.8008,-1.7978,-1.7646,-1.7451,-1.7285,-1.6643,-1.6222,-1.6127,-1.5664,-1.5478,-1.5642,-1.6208,-1.6482,-1.651,-1.6482,-1.6782,-1.7523,-1.6838,-1.6838,-1.7246,-1.7357,-1.744,-1.7578,-1.7413,-1.7118,-1.6525,-1.6191,-1.6229,-1.6667,-1.6605,-1.6251,-1.5942,-1.6033,-1.6089,-1.5932,-1.5746,-1.5468,-1.5526,-1.5468,-1.5429,-1.541,-1.542,-1.542,-1.542,-1.542,-1.542,-1.542,-1.542,-1.542,-1.542,-1.542,-1.542,-1.542,-1.542,-1.542,-1.542,-1.542,-1.542,-1.542,-1.542,-1.542,-1.542,-1.542,-1.542,-1.542,-1.542,-1.542,-1.542,-1.542,-1.542,-1.542,-1.542,-1.54,-1.5234,-1.466,-1.4172,-1.3841,-1.3578,-1.3959,-1.4326,-1.4571,-1.4835,-1.5039,-1.5209,-1.5254,-1.5242,-1.5265,-1.5242,-1.531,-1.5421,-1.5543,-1.5666,-1.6042,-1.6315,-1.6315,-1.6293,-1.6479,-1.8008,-1.8008,-1.8008,-1.8008,-1.8008,-1.8008,-1.8008,-1.8008,-1.8008,-1.8008,-1.8008,-1.8008,-1.8008,-1.8008,-1.8008,-1.8008,-1.8008,-1.8008,-1.8008,-1.7978,-1.7861,-1.7656,-1.7363,-1.709,-1.6692,-1.6105,-1.5615,-1.542,-1.5439,-1.5642,-1.5729,-1.5748,-1.5758,-1.5864,-1.6112,-1.5864,-1.5911,-1.6054,-1.6083,-1.6073,-1.6083,-1.6073,-1.5968,-1.5757,-1.5608,-1.5681,-1.5782,-1.526,-1.5063,-1.5185,-1.5216,-1.5337,-1.5469,-1.5448,-1.541,-1.542,-1.542,-1.542,-1.542,-1.542,-1.542,-1.542,-1.542,-1.542,-1.542,-1.542,-1.542,-1.542,-1.542,-1.542,-1.542,-1.542,-1.542,-1.542,-1.542,-1.542,-1.542,-1.542,-1.542,-1.542,-1.542,-1.542,-1.542,-1.542,-1.542,-1.542,-1.542,-1.542,-1.542,-1.542,-1.541,-1.5342,-1.465,-1.4172,-1.3997,-1.374,-1.3701,-1.3969,-1.4137,-1.4269,-1.4437,-1.4532,-1.4567,-1.4579,-1.4592,-1.4627,-1.4685,-1.4811,-1.5006,-1.513,-1.5444,-1.5666,-1.5864,-1.6035,-1.6208,-1.8008,-1.8008,-1.8008,-1.8008,-1.8008,-1.8008,-1.8008,-1.8008,-1.8008,-1.8008,-1.8008,-1.8008,-1.8008,-1.8008,-1.8008,-1.8008,-1.8008,-1.8008,-1.8008,-1.8008,-1.8008,-1.7783,-1.7353,-1.7044,-1.6672,-1.6124,-1.5625,-1.542,-1.542,-1.542,-1.542,-1.542,-1.542,-1.5449,-1.542,-1.542,-1.542,-1.542,-1.5439,-1.542,-1.542,-1.542,-1.542,-1.541,-1.542,-1.542,-1.5371,-1.4855,-1.4727,-1.4961,-1.501,-1.5088,-1.5195,-1.5312,-1.542,-1.542,-1.542,-1.542,-1.542,-1.542,-1.542,-1.542,-1.542,-1.542,-1.542,-1.542,-1.542,-1.542,-1.542,-1.542,-1.542,-1.542,-1.542,-1.542,-1.542,-1.542,-1.542,-1.542,-1.542,-1.542,-1.542,-1.542,-1.542,-1.542,-1.542,-1.542,-1.542,-1.542,-1.542,-1.542,-1.542,-1.5303,-1.4863,-1.4531,-1.4365,-1.4014,-1.3584,-1.365,-1.3816,-1.3908,-1.4035,-1.4059,-1.4073,-1.4059,-1.4049,-1.4046,-1.4084,-1.4441,-1.4681,-1.4795,-1.4891,-1.5107,-1.5345,-1.5658,-1.5865,-1.8008,-1.8008,-1.8008,-1.8008,-1.8008,-1.8008,-1.8008,-1.8008,-1.8008,-1.8008,-1.8008,-1.8008,-1.8008,-1.8008,-1.8008,-1.8008,-1.8008,-1.8008,-1.8008,-1.8008,-1.7988,-1.7793,-1.7376,-1.6633,-1.6212,-1.6056,-1.5625,-1.543,-1.542,-1.542,-1.542,-1.542,-1.542,-1.542,-1.542,-1.542,-1.542,-1.542,-1.542,-1.542,-1.542,-1.542,-1.542,-1.542,-1.542,-1.542,-1.54,-1.5322,-1.5332,-1.54,-1.5361,-1.5215,-1.5028,-1.5205,-1.542,-1.542,-1.542,-1.542,-1.542,-1.542,-1.542,-1.542,-1.542,-1.542,-1.542,-1.542,-1.542,-1.542,-1.542,-1.542,-1.542,-1.542,-1.542,-1.542,-1.542,-1.542,-1.542,-1.542,-1.542,-1.542,-1.542,-1.542,-1.542,-1.542,-1.542,-1.542,-1.542,-1.542,-1.542,-1.542,-1.542,-1.5215,-1.4941,-1.4746,-1.4551,-1.4182,-1.3821,-1.4057,-1.4054,-1.3999,-1.3912,-1.3872,-1.3872,-1.3805,-1.378,-1.3688,-1.3755,-1.4179,-1.4324,-1.4307,-1.4427,-1.46,-1.4967,-1.5398,-1.5703,-1.8008,-1.8008,-1.8008,-1.8008,-1.8008,-1.8008,-1.8008,-1.8008,-1.8008,-1.8008,-1.8008,-1.8008,-1.8008,-1.8008,-1.8008,-1.8008,-1.8008,-1.8008,-1.8008,-1.8008,-1.8008,-1.7773,-1.7308,-1.6525,-1.6125,-1.6036,-1.5635,-1.542,-1.542,-1.542,-1.542,-1.542,-1.542,-1.542,-1.542,-1.542,-1.542,-1.542,-1.542,-1.542,-1.542,-1.542,-1.542,-1.542,-1.542,-1.542,-1.542,-1.542,-1.542,-1.542,-1.542,-1.5352,-1.5244,-1.5352,-1.542,-1.542,-1.542,-1.542,-1.542,-1.542,-1.542,-1.542,-1.542,-1.542,-1.542,-1.542,-1.542,-1.542,-1.542,-1.542,-1.542,-1.542,-1.542,-1.542,-1.542,-1.542,-1.542,-1.542,-1.542,-1.542,-1.542,-1.542,-1.542,-1.542,-1.542,-1.542,-1.542,-1.542,-1.542,-1.542,-1.542,-1.5293,-1.5078,-1.4893,-1.4668,-1.4309,-1.4211,-1.4512,-1.4537,-1.439,-1.4228,-1.4041,-1.4034,-1.3991,-1.407,-1.4027,-1.4001,-1.4192,-1.4069,-1.4063,-1.4373,-1.4751,-1.5064,-1.5463,-1.5706,-1.8008,-1.8008,-1.8008,-1.8008,-1.8008,-1.8008,-1.8008,-1.8008,-1.8008,-1.8008,-1.8008,-1.8008,-1.8008,-1.8008,-1.8008,-1.8008,-1.8008,-1.8008,-1.8008,-1.7935,-1.7822,-1.7598,-1.7207,-1.6525,-1.6125,-1.6046,-1.5625,-1.5439,-1.542,-1.542,-1.542,-1.542,-1.542,-1.542,-1.542,-1.542,-1.542,-1.542,-1.542,-1.542,-1.542,-1.542,-1.542,-1.542,-1.542,-1.542,-1.542,-1.542,-1.542,-1.542,-1.542,-1.542,-1.542,-1.542,-1.542,-1.542,-1.542,-1.542,-1.542,-1.542,-1.542,-1.542,-1.542,-1.542,-1.542,-1.542,-1.542,-1.542,-1.542,-1.542,-1.542,-1.542,-1.542,-1.542,-1.542,-1.542,-1.542,-1.542,-1.542,-1.542,-1.542,-1.542,-1.542,-1.542,-1.542,-1.542,-1.542,-1.542,-1.542,-1.542,-1.54,-1.5303,-1.5264,-1.5127,-1.5059,-1.4786,-1.465,-1.4922,-1.4932,-1.4814,-1.4562,-1.4328,-1.4289,-1.4309,-1.4348,-1.4387,-1.4387,-1.4338,-1.4272,-1.438,-1.4643,-1.4745,-1.4923,-1.5331,-1.5616,-1.8008,-1.8008,-1.8008,-1.8008,-1.8008,-1.8008,-1.8008,-1.8008,-1.8008,-1.8008,-1.8008,-1.8008,-1.8008,-1.8008,-1.8008,-1.8008,-1.8008,-1.8008,-1.8008,-1.792,-1.7725,-1.749,-1.7328,-1.6643,-1.6153,-1.5968,-1.5596,-1.5478,-1.5439,-1.542,-1.542,-1.542,-1.542,-1.542,-1.542,-1.542,-1.542,-1.542,-1.542,-1.542,-1.542,-1.542,-1.542,-1.542,-1.542,-1.542,-1.542,-1.542,-1.542,-1.542,-1.542,-1.542,-1.542,-1.542,-1.542,-1.542,-1.542,-1.542,-1.542,-1.542,-1.542,-1.542,-1.542,-1.542,-1.542,-1.542,-1.5449,-1.5557,-1.5478,-1.5586,-1.5644,-1.5615,-1.5634,-1.5693,-1.5605,-1.5488,-1.5469,-1.5439,-1.542,-1.542,-1.542,-1.542,-1.542,-1.542,-1.542,-1.542,-1.542,-1.542,-1.542,-1.542,-1.542,-1.5391,-1.5381,-1.54,-1.5371,-1.5342,-1.5273,-1.5303,-1.5273,-1.5156,-1.4941,-1.4756,-1.4678,-1.4678,-1.4767,-1.4844,-1.4853,-1.4766,-1.4629,-1.4627,-1.4849,-1.4609,-1.4419,-1.4992,-1.5378,-1.8008,-1.8008,-1.8008,-1.8008,-1.8008,-1.8008,-1.8008,-1.8008,-1.8008,-1.8008,-1.8008,-1.8008,-1.8008,-1.8008,-1.8008,-1.8008,-1.8008,-1.8008,-1.8008,-1.7998,-1.7949,-1.7666,-1.7373,-1.6826,-1.6219,-1.585,-1.5889,-1.5732,-1.5518,-1.5439,-1.542,-1.542,-1.542,-1.542,-1.542,-1.542,-1.542,-1.542,-1.542,-1.542,-1.542,-1.542,-1.542,-1.542,-1.542,-1.542,-1.542,-1.542,-1.542,-1.542,-1.542,-1.542,-1.542,-1.542,-1.542,-1.542,-1.542,-1.542,-1.542,-1.542,-1.542,-1.542,-1.5459,-1.542,-1.542,-1.5469,-1.5615,-1.584,-1.5968,-1.6055,-1.6258,-1.6395,-1.6336,-1.6248,-1.6103,-1.5958,-1.5899,-1.5615,-1.5439,-1.542,-1.542,-1.542,-1.542,-1.542,-1.542,-1.542,-1.542,-1.542,-1.542,-1.542,-1.542,-1.542,-1.542,-1.542,-1.542,-1.542,-1.542,-1.542,-1.542,-1.541,-1.5195,-1.5117,-1.5029,-1.5107,-1.5225,-1.5254,-1.5156,-1.5205,-1.5078,-1.5078,-1.502,-1.4933,-1.4913,-1.5166,-1.5186,-1.8008,-1.8008,-1.8008,-1.8008,-1.8008,-1.8008,-1.8008,-1.8008,-1.8008,-1.8008,-1.8008,-1.8008,-1.8008,-1.8008,-1.8008,-1.8008,-1.8008,-1.8008,-1.8008,-1.8008,-1.7988,-1.7773,-1.751,-1.7305,-1.6853,-1.6122,-1.6046,-1.5938,-1.5732,-1.5518,-1.542,-1.542,-1.542,-1.542,-1.542,-1.542,-1.542,-1.542,-1.542,-1.542,-1.542,-1.542,-1.542,-1.542,-1.542,-1.542,-1.542,-1.542,-1.542,-1.542,-1.542,-1.542,-1.542,-1.542,-1.542,-1.542,-1.542,-1.542,-1.542,-1.542,-1.542,-1.542,-1.5586,-1.5693,-1.5791,-1.5879,-1.6113,-1.6299,-1.6387,-1.6463,-1.6668,-1.6687,-1.6697,-1.6668,-1.6502,-1.6387,-1.6279,-1.582,-1.542,-1.542,-1.542,-1.542,-1.542,-1.5323,-1.541,-1.5381,-1.5352,-1.5352,-1.542,-1.542,-1.542,-1.542,-1.542,-1.542,-1.542,-1.542,-1.542,-1.542,-1.542,-1.542,-1.5332,-1.5342,-1.5371,-1.54,-1.5362,-1.54,-1.5332,-1.541,-1.542,-1.5322,-1.5283,-1.5371,-1.5391,-1.5322,-1.5312,-1.8008,-1.8008,-1.8008,-1.8008,-1.8008,-1.8008,-1.8008,-1.8008,-1.8008,-1.8008,-1.8008,-1.8008,-1.8008,-1.8008,-1.8008,-1.8008,-1.8008,-1.8008,-1.8008,-1.8008,-1.8008,-1.7832,-1.7627,-1.7598,-1.7422,-1.6785,-1.6416,-1.6212,-1.5977,-1.5654,-1.543,-1.542,-1.542,-1.542,-1.542,-1.542,-1.542,-1.542,-1.542,-1.542,-1.542,-1.542,-1.542,-1.542,-1.542,-1.542,-1.542,-1.542,-1.5449,-1.5498,-1.5449,-1.5498,-1.5586,-1.5439,-1.542,-1.542,-1.542,-1.542,-1.5449,-1.5478,-1.5527,-1.5459,-1.5898,-1.6105,-1.6173,-1.6367,-1.6641,-1.6816,-1.6882,-1.696,-1.6902,-1.7009,-1.6989,-1.6899,-1.6776,-1.6562,-1.6417,-1.5779,-1.5193,-1.5377,-1.5287,-1.5219,-1.5163,-1.5096,-1.5244,-1.5352,-1.5274,-1.5284,-1.5313,-1.5264,-1.5177,-1.5381,-1.542,-1.542,-1.542,-1.542,-1.542,-1.542,-1.542,-1.542,-1.542,-1.542,-1.542,-1.542,-1.541,-1.542,-1.542,-1.542,-1.542,-1.542,-1.542,-1.542,-1.542,-1.542,-1.542,-1.8008,-1.8008,-1.8008,-1.8008,-1.8008,-1.8008,-1.8008,-1.8008,-1.8008,-1.8008,-1.8008,-1.8008,-1.8008,-1.8008,-1.8008,-1.8008,-1.8008,-1.8008,-1.7988,-1.7978,-1.7988,-1.79,-1.7793,-1.7676,-1.7451,-1.7217,-1.6816,-1.6455,-1.6065,-1.5644,-1.543,-1.542,-1.542,-1.542,-1.5459,-1.542,-1.5439,-1.5478,-1.5449,-1.542,-1.542,-1.542,-1.542,-1.542,-1.542,-1.5439,-1.5449,-1.5449,-1.5566,-1.5899,-1.5605,-1.5829,-1.6133,-1.582,-1.5557,-1.5527,-1.5547,-1.5576,-1.5527,-1.5801,-1.5713,-1.5703,-1.6162,-1.6387,-1.6359,-1.6523,-1.6973,-1.7266,-1.7539,-1.7744,-1.7793,-1.7566,-1.7687,-1.7485,-1.6693,-1.6081,-1.5824,-1.5219,-1.462,-1.4987,-1.4993,-1.4879,-1.4717,-1.4666,-1.4729,-1.4713,-1.4637,-1.4777,-1.4946,-1.4821,-1.4638,-1.4991,-1.542,-1.542,-1.542,-1.542,-1.542,-1.542,-1.542,-1.542,-1.542,-1.542,-1.542,-1.542,-1.542,-1.542,-1.542,-1.542,-1.542,-1.542,-1.542,-1.542,-1.542,-1.542,-1.542,-1.8008,-1.8008,-1.8008,-1.8008,-1.8008,-1.8008,-1.8008,-1.8008,-1.8008,-1.8008,-1.8008,-1.8008,-1.8008,-1.8008,-1.8008,-1.8008,-1.7998,-1.8008,-1.7891,-1.7783,-1.7891,-1.7871,-1.7754,-1.7646,-1.7568,-1.7393,-1.7129,-1.668,-1.6114,-1.5625,-1.5469,-1.542,-1.542,-1.5518,-1.5625,-1.5527,-1.5576,-1.5635,-1.5557,-1.5439,-1.5439,-1.5439,-1.543,-1.543,-1.5459,-1.5527,-1.5762,-1.5752,-1.5967,-1.6269,-1.6211,-1.6336,-1.6443,-1.6375,-1.6054,-1.6054,-1.6034,-1.5957,-1.5869,-1.6163,-1.6201,-1.5958,-1.6572,-1.6934,-1.6924,-1.7158,-1.7441,-1.7666,-1.7803,-1.8008,-1.7969,-1.7579,-1.7329,-1.7076,-1.6206,-1.5627,-1.5403,-1.4855,-1.4627,-1.4511,-1.4354,-1.4204,-1.405,-1.4044,-1.4134,-1.4096,-1.4009,-1.4206,-1.4511,-1.4257,-1.3982,-1.4609,-1.5084,-1.535,-1.54,-1.5478,-1.5586,-1.5596,-1.5576,-1.5576,-1.5498,-1.5537,-1.5478,-1.542,-1.542,-1.542,-1.542,-1.542,-1.542,-1.542,-1.542,-1.542,-1.542,-1.542,-1.542,-1.8008,-1.8008,-1.8008,-1.8008,-1.8008,-1.8008,-1.8008,-1.8008,-1.8008,-1.8008,-1.8008,-1.7998,-1.7959,-1.79,-1.7871,-1.7871,-1.7867,-1.793,-1.7793,-1.7549,-1.7686,-1.7656,-1.7451,-1.75,-1.75,-1.7197,-1.7148,-1.6926,-1.6348,-1.5947,-1.5693,-1.5615,-1.5566,-1.5693,-1.5938,-1.5742,-1.587,-1.5947,-1.5898,-1.5664,-1.5644,-1.5644,-1.5674,-1.5654,-1.5674,-1.5879,-1.6162,-1.6201,-1.6426,-1.668,-1.6726,-1.6755,-1.6902,-1.6882,-1.6872,-1.6921,-1.6804,-1.6533,-1.6426,-1.6602,-1.667,-1.6289,-1.7031,-1.7353,-1.7474,-1.7578,-1.7949,-1.7974,-1.7725,-1.7647,-1.7457,-1.6862,-1.6428,-1.614,-1.5508,-1.4871,-1.4767,-1.4391,-1.3825,-1.3686,-1.3638,-1.3567,-1.3489,-1.3453,-1.3591,-1.3791,-1.3684,-1.3716,-1.3922,-1.3481,-1.3406,-1.4136,-1.469,-1.5164,-1.5374,-1.5613,-1.5799,-1.6006,-1.5976,-1.5976,-1.585,-1.5713,-1.5644,-1.5605,-1.542,-1.542,-1.542,-1.542,-1.542,-1.542,-1.542,-1.542,-1.542,-1.542,-1.542,-1.8008,-1.8008,-1.8008,-1.8008,-1.8008,-1.8008,-1.8008,-1.8008,-1.8008,-1.8008,-1.8008,-1.7988,-1.7822,-1.7607,-1.751,-1.748,-1.7598,-1.7773,-1.7705,-1.7373,-1.748,-1.7314,-1.6853,-1.6814,-1.7051,-1.6982,-1.6934,-1.6746,-1.659,-1.6543,-1.6318,-1.6085,-1.5996,-1.6095,-1.6242,-1.6114,-1.6251,-1.6562,-1.6541,-1.6492,-1.6473,-1.6453,-1.6453,-1.6463,-1.6463,-1.6502,-1.6621,-1.666,-1.6833,-1.7197,-1.6921,-1.7106,-1.7594,-1.749,-1.7568,-1.751,-1.7213,-1.6687,-1.6707,-1.6912,-1.6938,-1.6715,-1.7346,-1.7594,-1.7656,-1.7653,-1.7862,-1.7974,-1.7354,-1.6922,-1.6775,-1.593,-1.5508,-1.5048,-1.4486,-1.4027,-1.3854,-1.3673,-1.3127,-1.2967,-1.2949,-1.3017,-1.3038,-1.3014,-1.3019,-1.3222,-1.3406,-1.3372,-1.3317,-1.2962,-1.2885,-1.3589,-1.425,-1.4702,-1.5074,-1.5355,-1.5716,-1.609,-1.6305,-1.6315,-1.6219,-1.6084,-1.6007,-1.5919,-1.5664,-1.5449,-1.542,-1.542,-1.542,-1.542,-1.542,-1.542,-1.542,-1.542,-1.542,-1.8008,-1.8008,-1.8008,-1.8008,-1.8008,-1.8008,-1.8008,-1.8008,-1.8008,-1.8008,-1.8008,-1.8008,-1.79,-1.7686,-1.7519,-1.7562,-1.7676,-1.7715,-1.7422,-1.7285,-1.7383,-1.7227,-1.6748,-1.6999,-1.7272,-1.6892,-1.7126,-1.7363,-1.7158,-1.6824,-1.656,-1.6494,-1.6465,-1.6611,-1.6692,-1.6543,-1.6728,-1.6894,-1.6833,-1.6697,-1.6697,-1.6707,-1.6707,-1.6707,-1.6726,-1.6853,-1.7051,-1.7109,-1.7314,-1.7617,-1.751,-1.7598,-1.7847,-1.7774,-1.7663,-1.7114,-1.6883,-1.6817,-1.7035,-1.6983,-1.6689,-1.667,-1.7197,-1.7881,-1.7735,-1.7411,-1.7501,-1.7974,-1.7139,-1.6636,-1.621,-1.519,-1.4593,-1.4063,-1.3564,-1.3237,-1.2952,-1.2703,-1.2452,-1.2342,-1.2335,-1.2535,-1.2691,-1.2678,-1.2613,-1.2609,-1.2698,-1.2637,-1.2706,-1.2695,-1.2736,-1.3058,-1.368,-1.4257,-1.4603,-1.4914,-1.5305,-1.5761,-1.6401,-1.6432,-1.6558,-1.6514,-1.6265,-1.6132,-1.5968,-1.5723,-1.5518,-1.542,-1.542,-1.542,-1.542,-1.542,-1.542,-1.542,-1.542,-1.8008,-1.8008,-1.8008,-1.8008,-1.8008,-1.8008,-1.8008,-1.8008,-1.8008,-1.8008,-1.7969,-1.79,-1.7842,-1.7803,-1.7572,-1.7553,-1.7803,-1.766,-1.7295,-1.7275,-1.7344,-1.7158,-1.6875,-1.7256,-1.7461,-1.6914,-1.7578,-1.7744,-1.7529,-1.7266,-1.7048,-1.6882,-1.6863,-1.7041,-1.7187,-1.71,-1.71,-1.7461,-1.7243,-1.7116,-1.7087,-1.7077,-1.7077,-1.7058,-1.7067,-1.7207,-1.748,-1.7539,-1.7744,-1.7881,-1.758,-1.7459,-1.7526,-1.712,-1.6782,-1.6254,-1.5896,-1.5964,-1.6278,-1.6351,-1.6094,-1.6195,-1.6435,-1.7026,-1.706,-1.6611,-1.6393,-1.7054,-1.6193,-1.5825,-1.5535,-1.4235,-1.3629,-1.3164,-1.2806,-1.2482,-1.2305,-1.2305,-1.2305,-1.2305,-1.2305,-1.2305,-1.2398,-1.2345,-1.2244,-1.2089,-1.2013,-1.1971,-1.2155,-1.2423,-1.2535,-1.2757,-1.3207,-1.3767,-1.4125,-1.4488,-1.4921,-1.5373,-1.5988,-1.642,-1.6505,-1.6427,-1.6211,-1.6136,-1.6148,-1.5997,-1.5772,-1.5576,-1.542,-1.542,-1.542,-1.542,-1.542,-1.542,-1.542,-1.8008,-1.8008,-1.8008,-1.8008,-1.8008,-1.8008,-1.8008,-1.8008,-1.8008,-1.8008,-1.7959,-1.7666,-1.7539,-1.7494,-1.748,-1.7432,-1.749,-1.7812,-1.7588,-1.7402,-1.7363,-1.7158,-1.7002,-1.7148,-1.748,-1.7373,-1.7793,-1.7959,-1.7939,-1.7783,-1.7578,-1.7393,-1.7344,-1.7353,-1.7435,-1.7412,-1.75,-1.7793,-1.7754,-1.7773,-1.7783,-1.7793,-1.7803,-1.7832,-1.7871,-1.7939,-1.7925,-1.7867,-1.7629,-1.7691,-1.7217,-1.6749,-1.6645,-1.6193,-1.5737,-1.5269,-1.47,-1.4795,-1.5018,-1.5309,-1.5342,-1.5307,-1.5315,-1.5517,-1.5869,-1.5517,-1.5411,-1.5561,-1.5057,-1.4386,-1.3882,-1.3091,-1.2696,-1.2592,-1.2482,-1.2409,-1.2305,-1.2305,-1.2305,-1.2305,-1.2305,-1.2305,-1.2305,-1.2305,-1.2305,-1.2158,-1.2144,-1.2138,-1.2171,-1.2367,-1.2349,-1.2502,-1.2855,-1.3294,-1.3658,-1.4057,-1.4486,-1.4881,-1.5386,-1.5935,-1.6325,-1.6206,-1.5907,-1.6283,-1.6313,-1.6164,-1.6046,-1.5918,-1.5742,-1.5518,-1.5449,-1.5557,-1.5527,-1.5488,-1.5459,-1.8008,-1.8008,-1.8008,-1.8008,-1.8008,-1.8008,-1.8008,-1.8008,-1.8008,-1.8008,-1.7998,-1.7842,-1.7773,-1.7705,-1.748,-1.7539,-1.7715,-1.7607,-1.7539,-1.7549,-1.7529,-1.7314,-1.7174,-1.7334,-1.7666,-1.7549,-1.7803,-1.8008,-1.7998,-1.8008,-1.7959,-1.7803,-1.7734,-1.7773,-1.7764,-1.7725,-1.7852,-1.792,-1.8008,-1.8008,-1.8008,-1.8008,-1.8008,-1.8008,-1.8008,-1.7647,-1.731,-1.775,-1.726,-1.6689,-1.6498,-1.6184,-1.5755,-1.5269,-1.4807,-1.4378,-1.3781,-1.3673,-1.3585,-1.4019,-1.4522,-1.4843,-1.4299,-1.3875,-1.4764,-1.4629,-1.4744,-1.4637,-1.4243,-1.36,-1.3564,-1.2915,-1.2378,-1.2305,-1.2305,-1.2305,-1.2305,-1.2305,-1.2305,-1.2305,-1.2305,-1.2305,-1.2305,-1.2305,-1.2305,-1.2291,-1.2298,-1.2305,-1.2305,-1.2305,-1.2305,-1.2305,-1.2609,-1.2676,-1.3048,-1.3555,-1.4052,-1.4371,-1.47,-1.5163,-1.5579,-1.565,-1.5549,-1.6008,-1.6333,-1.6056,-1.5971,-1.6193,-1.6122,-1.5888,-1.583,-1.587,-1.5742,-1.5586,-1.5478,-1.8008,-1.8008,-1.8008,-1.8008,-1.8008,-1.8008,-1.8008,-1.8008,-1.8008,-1.8008,-1.8008,-1.8008,-1.8008,-1.792,-1.7754,-1.7705,-1.7861,-1.7764,-1.7637,-1.7686,-1.7764,-1.7574,-1.751,-1.7578,-1.7842,-1.7686,-1.7803,-1.8008,-1.8008,-1.8008,-1.7978,-1.7978,-1.8008,-1.7978,-1.7978,-1.8008,-1.8008,-1.8008,-1.8008,-1.8008,-1.8008,-1.7681,-1.7535,-1.7432,-1.7182,-1.6759,-1.6402,-1.6576,-1.6367,-1.5763,-1.5403,-1.5296,-1.4871,-1.4406,-1.3947,-1.3557,-1.3208,-1.2915,-1.2696,-1.2872,-1.3593,-1.381,-1.3237,-1.3273,-1.3702,-1.3702,-1.3629,-1.3947,-1.3557,-1.3273,-1.3273,-1.2629,-1.2305,-1.2305,-1.2305,-1.2305,-1.2305,-1.2305,-1.2305,-1.2305,-1.2305,-1.2311,-1.2325,-1.2331,-1.2351,-1.2338,-1.2305,-1.2305,-1.2305,-1.2305,-1.2305,-1.2305,-1.2382,-1.2382,-1.2372,-1.2873,-1.3266,-1.3252,-1.3629,-1.4171,-1.4522,-1.4649,-1.5051,-1.5541,-1.5758,-1.5764,-1.5758,-1.578,-1.6037,-1.6297,-1.6221,-1.6105,-1.5899,-1.5693,-1.5498,-1.7964,-1.8008,-1.7974,-1.8008,-1.8008,-1.8008,-1.8008,-1.8008,-1.8008,-1.8008,-1.8008,-1.8008,-1.8008,-1.7998,-1.791,-1.7949,-1.7978,-1.7959,-1.792,-1.7939,-1.7949,-1.7939,-1.793,-1.7959,-1.7969,-1.7998,-1.8008,-1.8008,-1.8008,-1.8008,-1.8008,-1.794,-1.7862,-1.7896,-1.7974,-1.8008,-1.8008,-1.7974,-1.7896,-1.7828,-1.7501,-1.6932,-1.668,-1.6463,-1.6088,-1.5666,-1.5376,-1.5587,-1.5411,-1.4799,-1.4343,-1.4127,-1.3774,-1.3091,-1.2703,-1.2556,-1.2452,-1.2378,-1.2342,-1.2372,-1.2592,-1.2769,-1.2452,-1.2592,-1.2519,-1.2452,-1.2556,-1.3055,-1.2629,-1.2489,-1.2378,-1.2342,-1.2305,-1.2305,-1.2305,-1.2305,-1.2305,-1.2311,-1.2311,-1.2418,-1.2371,-1.2325,-1.2338,-1.2358,-1.2392,-1.2385,-1.2325,-1.2311,-1.2318,-1.2305,-1.2305,-1.2305,-1.2305,-1.2305,-1.2305,-1.2305,-1.2439,-1.2409,-1.2659,-1.3273,-1.3505,-1.3554,-1.4075,-1.4871,-1.5053,-1.4949,-1.5112,-1.5273,-1.5632,-1.5984,-1.6299,-1.6271,-1.6056,-1.584,-1.5674,-1.707,-1.7139,-1.7716,-1.8008,-1.8008,-1.8008,-1.8008,-1.8008,-1.8008,-1.8008,-1.8008,-1.8008,-1.8008,-1.8008,-1.8008,-1.8008,-1.8008,-1.8008,-1.8008,-1.8008,-1.8008,-1.8008,-1.8008,-1.8008,-1.8008,-1.8008,-1.8008,-1.8008,-1.8008,-1.8008,-1.8008,-1.794,-1.7467,-1.7457,-1.7828,-1.793,-1.7784,-1.7207,-1.7001,-1.6784,-1.6219,-1.5869,-1.5658,-1.5649,-1.5269,-1.4772,-1.4307,-1.4629,-1.4478,-1.3766,-1.331,-1.3382,-1.2989,-1.2342,-1.2305,-1.2305,-1.2305,-1.2305,-1.2305,-1.2305,-1.2305,-1.2305,-1.2305,-1.2305,-1.2305,-1.2305,-1.2305,-1.2305,-1.2305,-1.2305,-1.2305,-1.2305,-1.2305,-1.2305,-1.2305,-1.2305,-1.2305,-1.2311,-1.2345,-1.2583,-1.2636,-1.2726,-1.2779,-1.2712,-1.2705,-1.2639,-1.2599,-1.2412,-1.2365,-1.2325,-1.2305,-1.2305,-1.2305,-1.2305,-1.2305,-1.2305,-1.2305,-1.2342,-1.2372,-1.2549,-1.2663,-1.2739,-1.3194,-1.4009,-1.4098,-1.4135,-1.4566,-1.4978,-1.5298,-1.5641,-1.5982,-1.6322,-1.6278,-1.611,-1.5987,-1.6105,-1.6184,-1.6759,-1.7226,-1.7535,-1.7862,-1.8008,-1.8008,-1.8008,-1.7828,-1.7613,-1.7828,-1.7794,-1.7681,-1.7862,-1.8008,-1.8008,-1.8008,-1.8008,-1.8008,-1.8008,-1.8008,-1.8008,-1.7974,-1.8008,-1.7974,-1.7974,-1.8008,-1.8008,-1.8008,-1.7784,-1.7354,-1.6888,-1.6749,-1.6975,-1.6793,-1.6645,-1.6184,-1.6044,-1.5904,-1.5376,-1.495,-1.4673,-1.4557,-1.4279,-1.3846,-1.3557,-1.3557,-1.3658,-1.2835,-1.2696,-1.2952,-1.2452,-1.2305,-1.2305,-1.2305,-1.2305,-1.2305,-1.2305,-1.2305,-1.2305,-1.2305,-1.2305,-1.2305,-1.2305,-1.2305,-1.2305,-1.2305,-1.2305,-1.2305,-1.2305,-1.2305,-1.2305,-1.2305,-1.2325,-1.2325,-1.2458,-1.2472,-1.2605,-1.2831,-1.2985,-1.3093,-1.3186,-1.314,-1.308,-1.2979,-1.2886,-1.2679,-1.2485,-1.2432,-1.2378,-1.2345,-1.2318,-1.2305,-1.2305,-1.2305,-1.2305,-1.2305,-1.2305,-1.2298,-1.2328,-1.2501,-1.2821,-1.3018,-1.3157,-1.3454,-1.4204,-1.4668,-1.4762,-1.518,-1.5765,-1.6107,-1.6413,-1.6081,-1.5657,-1.5163,-1.5155,-1.5199,-1.5763,-1.6636,-1.7364,-1.7828,-1.7974,-1.794,-1.7432,-1.6706,-1.751,-1.7226,-1.6828,-1.7476,-1.7828,-1.7896,-1.794,-1.8008,-1.8008,-1.8008,-1.8008,-1.794,-1.7862,-1.7716,-1.7794,-1.7647,-1.7295,-1.7794,-1.7442,-1.7035,-1.6636,-1.6175,-1.5825,-1.5482,-1.5163,-1.5163,-1.5084,-1.5191,-1.4992,-1.4584,-1.4111,-1.385,-1.3616,-1.3177,-1.282,-1.2592,-1.2629,-1.2556,-1.2342,-1.2378,-1.2342,-1.2305,-1.2305,-1.2305,-1.2305,-1.2305,-1.2305,-1.2305,-1.2305,-1.2305,-1.2305,-1.2305,-1.2305,-1.2305,-1.2305,-1.2305,-1.2305,-1.2305,-1.2305,-1.2305,-1.2305,-1.2305,-1.2325,-1.2351,-1.2472,-1.2697,-1.2824,-1.2939,-1.31,-1.3247,-1.336,-1.3407,-1.3387,-1.3434,-1.3414,-1.3313,-1.316,-1.2939,-1.269,-1.2579,-1.2412,-1.2378,-1.2311,-1.2305,-1.2305,-1.2305,-1.2305,-1.2305,-1.2305,-1.2305,-1.2305,-1.2519,-1.2592,-1.2415,-1.2739,-1.3419,-1.381,-1.3983,-1.4474,-1.4746,-1.5313,-1.5455,-1.5068,-1.4656,-1.4135,-1.4199,-1.4914,-1.5367,-1.5614,-1.5913,-1.6724,-1.7828,-1.732,-1.6784,-1.6593,-1.6149,-1.5948,-1.5693,-1.6576,-1.6922,-1.7285,-1.7613,-1.794,-1.8008,-1.8008,-1.8008,-1.7794,-1.7467,-1.7139,-1.6862,-1.6576,-1.6367,-1.6123,-1.6123,-1.6088,-1.5587,-1.5084,-1.4557,-1.4055,-1.3491,-1.3774,-1.4029,-1.4312,-1.408,-1.3756,-1.3273,-1.31,-1.2886,-1.2624,-1.2325,-1.2305,-1.2305,-1.2305,-1.2305,-1.2305,-1.2305,-1.2305,-1.2305,-1.2305,-1.2305,-1.2305,-1.2305,-1.2305,-1.2305,-1.2305,-1.2305,-1.2305,-1.2305,-1.2305,-1.2305,-1.2305,-1.2305,-1.2305,-1.2305,-1.2305,-1.2305,-1.2345,-1.2392,-1.2465,-1.269,-1.2884,-1.3046,-1.3206,-1.344,-1.3587,-1.3667,-1.3694,-1.3741,-1.3788,-1.3814,-1.3754,-1.3587,-1.338,-1.3119,-1.279,-1.2579,-1.2458,-1.2398,-1.2325,-1.2305,-1.2305,-1.2305,-1.2305,-1.2305,-1.2305,-1.2305,-1.2305,-1.2305,-1.2305,-1.2342,-1.2549,-1.2908,-1.3237,-1.2952,-1.3208,-1.3914,-1.4411,-1.409,-1.3926,-1.3135,-1.3237,-1.3774,-1.4271,-1.4637,-1.5021,-1.5913,-1.6689,-1.6289,-1.6079,-1.5965,-1.5482,-1.4985,-1.4772,-1.5579,-1.6245,-1.6697,-1.7104,-1.7535,-1.8008,-1.7974,-1.8008,-1.7716,-1.7389,-1.7364,-1.6793,-1.6289,-1.6105,-1.5508,-1.5199,-1.5171,-1.4557,-1.389,-1.3528,-1.3135,-1.2769,-1.2732,-1.3045,-1.3211,-1.3063,-1.2849,-1.2636,-1.2616,-1.2596,-1.2378,-1.2331,-1.2305,-1.2305,-1.2305,-1.2305,-1.2305,-1.2305,-1.2305,-1.2305,-1.2305,-1.2305,-1.2305,-1.2305,-1.2305,-1.2305,-1.2305,-1.2305,-1.2305,-1.2305,-1.2305,-1.2305,-1.2305,-1.2305,-1.2305,-1.2305,-1.2305,-1.2318,-1.2398,-1.2509,-1.2697,-1.2884,-1.3053,-1.3267,-1.3473,-1.3726,-1.3915,-1.4001,-1.4055,-1.4088,-1.4075,-1.4008,-1.3968,-1.3901,-1.3707,-1.346,-1.3053,-1.2764,-1.263,-1.2492,-1.2425,-1.2385,-1.2378,-1.2371,-1.2305,-1.2305,-1.2311,-1.2311,-1.2311,-1.2311,-1.2305,-1.2342,-1.2409,-1.2342,-1.2482,-1.2305,-1.2305,-1.2924,-1.3425,-1.3294,-1.3276,-1.2305,-1.2342,-1.2305,-1.2952,-1.3745,-1.4557,-1.5013,-1.5163,-1.5013,-1.5021,-1.5013,-1.4942,-1.4314,-1.3882,-1.4629,-1.5403,-1.5965,-1.6498,-1.7139,-1.7862,-1.7681,-1.7681,-1.7647,-1.7623,-1.662,-1.6906,-1.6507,-1.5076,-1.557,-1.5048,-1.4099,-1.36,-1.3491,-1.3163,-1.2658,-1.2516,-1.2564,-1.2791,-1.276,-1.2635,-1.2526,-1.2392,-1.2358,-1.2371,-1.2338,-1.2305,-1.2305,-1.2305,-1.2305,-1.2305,-1.2305,-1.2305,-1.2305,-1.2305,-1.2305,-1.2305,-1.2305,-1.2305,-1.2305,-1.2305,-1.2305,-1.2305,-1.2305,-1.2305,-1.2305,-1.2305,-1.2305,-1.2305,-1.2305,-1.2305,-1.2305,-1.2425,-1.2563,-1.2723,-1.2924,-1.3113,-1.3313,-1.3507,-1.3748,-1.3948,-1.4001,-1.4088,-1.4088,-1.4088,-1.4088,-1.4088,-1.4082,-1.4062,-1.3968,-1.3748,-1.3427,-1.3018,-1.2839,-1.2746,-1.2652,-1.2605,-1.2518,-1.2458,-1.2425,-1.2398,-1.2465,-1.2412,-1.2318,-1.2358,-1.2405,-1.2331,-1.2305,-1.2305,-1.2305,-1.2305,-1.2305,-1.2305,-1.2432,-1.2588,-1.267,-1.2305,-1.2305,-1.2305,-1.2842,-1.3564,-1.3164,-1.3875,-1.4985,-1.3585,-1.3448,-1.3846,-1.3382,-1.2989,-1.2952,-1.3665,-1.4343,-1.47,-1.5755,-1.6602,-1.6853,-1.6932,-1.6932,-1.6611,-1.5939,-1.5234,-1.4414,-1.3911,-1.373,-1.3694,-1.3302,-1.3018,-1.2703,-1.2746,-1.2587,-1.262,-1.2603,-1.2703,-1.2786,-1.2811,-1.271,-1.2683,-1.2826,-1.2919,-1.2659,-1.2485,-1.2338,-1.2318,-1.2305,-1.2305,-1.2305,-1.2305,-1.2305,-1.2305,-1.2305,-1.2305,-1.2305,-1.2305,-1.2305,-1.2305,-1.2305,-1.2305,-1.2305,-1.2305,-1.2305,-1.2305,-1.2305,-1.2305,-1.2305,-1.2305,-1.2305,-1.2371,-1.2563,-1.2744,-1.2958,-1.312,-1.3387,-1.3606,-1.3773,-1.3988,-1.4035,-1.4075,-1.4088,-1.4088,-1.4088,-1.4088,-1.4088,-1.4088,-1.4082,-1.4075,-1.3941,-1.3801,-1.3434,-1.32,-1.3073,-1.2946,-1.2859,-1.2792,-1.2766,-1.2752,-1.2705,-1.2683,-1.2525,-1.2432,-1.2529,-1.2556,-1.2452,-1.2378,-1.2305,-1.2305,-1.2305,-1.2305,-1.2305,-1.2305,-1.2432,-1.2365,-1.2305,-1.2305,-1.2305,-1.2586,-1.2915,-1.2519,-1.2945,-1.3593,-1.2769,-1.2592,-1.2989,-1.2556,-1.2305,-1.2305,-1.2879,-1.3419,-1.3774,-1.4736,-1.5438,-1.5834,-1.5965,-1.5965,-1.5367,-1.4736,-1.4879,-1.4171,-1.3382,-1.2981,-1.2425,-1.2342,-1.2378,-1.2311,-1.2325,-1.2392,-1.2623,-1.2717,-1.2884,-1.3012,-1.3092,-1.3092,-1.2965,-1.2906,-1.2879,-1.2643,-1.2512,-1.2398,-1.2425,-1.2398,-1.2305,-1.2305,-1.2305,-1.2305,-1.2305,-1.2305,-1.2305,-1.2305,-1.2305,-1.2305,-1.2318,-1.2325,-1.2318,-1.2311,-1.2305,-1.2305,-1.2305,-1.2305,-1.2305,-1.2305,-1.2305,-1.2305,-1.2543,-1.271,-1.2973,-1.3227,-1.3394,-1.356,-1.3801,-1.3968,-1.4048,-1.4062,-1.4088,-1.4088,-1.4088,-1.4088,-1.4088,-1.4088,-1.4088,-1.4088,-1.4088,-1.4088,-1.3968,-1.3834,-1.3561,-1.3307,-1.312,-1.3086,-1.3093,-1.308,-1.3086,-1.3013,-1.2926,-1.2685,-1.2589,-1.2726,-1.279,-1.263,-1.2549,-1.2445,-1.2331,-1.2305,-1.2305,-1.2305,-1.2305,-1.2305,-1.2305,-1.2305,-1.2305,-1.2305,-1.2305,-1.2305,-1.2305,-1.2342,-1.2342,-1.2305,-1.2305,-1.2378,-1.2342,-1.2305,-1.2305,-1.2335,-1.2915,-1.3455,-1.3991,-1.4486,-1.4807,-1.4977,-1.4977,-1.4906,-1.4665,-1.4397,-1.4162,-1.3645,-1.3054,-1.2532,-1.2472,-1.2418,-1.2358,-1.2331,-1.2345,-1.2472,-1.2659,-1.2965,-1.3219,-1.3327,-1.3427,-1.314,-1.2759,-1.2746,-1.2672,-1.2579,-1.2545,-1.2599,-1.2552,-1.2385,-1.2345,-1.2358,-1.2365,-1.2358,-1.2365,-1.2458,-1.2465,-1.2458,-1.2438,-1.2405,-1.2425,-1.2371,-1.2325,-1.2318,-1.2325,-1.2331,-1.2371,-1.2371,-1.2398,-1.2398,-1.2492,-1.273,-1.2971,-1.3247,-1.344,-1.36,-1.3781,-1.3941,-1.4124,-1.4082,-1.4088,-1.4088,-1.4088,-1.4088,-1.4088,-1.4088,-1.4088,-1.4088,-1.4088,-1.4088,-1.4088,-1.4035,-1.3968,-1.3828,-1.3581,-1.3394,-1.338,-1.344,-1.342,-1.3414,-1.3327,-1.3206,-1.2979,-1.2926,-1.3106,-1.308,-1.2891,-1.275,-1.2645,-1.2518,-1.2385,-1.2425,-1.2445,-1.2305,-1.2305,-1.2305,-1.2305,-1.2305,-1.2305,-1.2305,-1.2305,-1.2305,-1.2305,-1.2305,-1.2305,-1.2305,-1.2311,-1.2311,-1.2305,-1.2311,-1.2305,-1.2597,-1.2959,-1.333,-1.3622,-1.3954,-1.4128,-1.4067,-1.392,-1.3696,-1.3202,-1.3196,-1.3285,-1.3067,-1.2779,-1.2705,-1.269,-1.2663,-1.2378,-1.2538,-1.2986,-1.3146,-1.3287,-1.3507,-1.3574,-1.3593,-1.358,-1.3287,-1.3106,-1.3019,-1.2946,-1.2898,-1.2837,-1.2744,-1.271,-1.2636,-1.2529,-1.2525,-1.2538,-1.2538,-1.2625,-1.2772,-1.2752,-1.2723,-1.2703,-1.2665,-1.2625,-1.2452,-1.2452,-1.2432,-1.2492,-1.265,-1.2683,-1.2726,-1.2759,-1.2866,-1.3053,-1.3293,-1.3527,-1.364,-1.3821,-1.3921,-1.4055,-1.4082,-1.4088,-1.4088,-1.4088,-1.4088,-1.4088,-1.4088,-1.4088,-1.4088,-1.4088,-1.4088,-1.4088,-1.4088,-1.4088,-1.4048,-1.4001,-1.4028,-1.3921,-1.3821,-1.3834,-1.3801,-1.3714,-1.3581,-1.34,-1.324,-1.3253,-1.346,-1.3327,-1.308,-1.2966,-1.2899,-1.2719,-1.2612,-1.2683,-1.2656,-1.2445,-1.2305,-1.2305]},{"header":{"parameterUnit":"m.s-1","parameterCategory":1,"la1":31.0,"la2":29.5877,"lo1":-88.7671,"lo2":-86.6584,"dy":0.0162,"dx":0.0185,"nx":115,"ny":88,"refTime":"2026-03-24T12:00:00:Z","depth":0,"parameterNumber":3,"parameterNumberName":"V-component_of_WINDS"},"data":[0.0,0.0,0.0,0.0,0.0,0.0,0.0,0.0,0.0,0.0,0.0,0.0,0.0,0.0,0.0,0.0,0.0,0.0,0.0,0.0,0.0,0.0,0.0,0.0,0.0,0.0,0.0,0.0,0.0,0.0,0.0,0.0,0.0,0.0,0.0,0.0,0.0,0.0,0.0,0.0,0.0,0.0,0.0,0.0,0.0,0.0,0.0,0.0,0.0,0.0,0.0,0.0,0.0,0.0,0.0,0.0,0.0,0.0,0.0,0.0,0.0,0.0,0.0,0.0,0.0,0.0,0.0,0.0,0.0,0.0,0.0,0.0,0.0,0.0,0.0,0.0,0.0,0.0,0.0,0.0,0.0,0.0,0.0,0.0,0.0,0.0,0.0,0.0,0.0,0.0,0.0,0.0,0.0,0.0,0.0,0.0,0.0,0.0,0.0,0.0,0.0,0.0,0.0,0.0,0.0,0.0,0.0,0.0,0.0,0.0,0.0,0.0,0.0,0.0,0.0,0.0,0.0,0.0,0.0,0.0,0.0,0.0,0.0,0.0,0.0,0.0,0.0,0.0,0.0,0.0,0.0,0.0,0.0,0.0,0.0,0.0,0.0,0.0,0.0,0.0,0.0,0.0,0.0,0.0,0.0,0.0,0.0,0.0,0.0,0.0,0.0,0.0,0.0,0.0,0.0,0.0,0.0,0.0,0.0,0.0,0.0,0.0,0.0,0.0,0.0,0.0,0.0,0.0,0.0,0.0,0.0,0.0,0.0,0.0,0.0,0.0,0.0,0.0,0.0,0.0,0.0,0.0,0.0,0.0,0.0,0.0,0.0,0.0,0.0,0.0,0.0,0.0,0.0,0.0,0.0,0.0,0.0,0.0,0.0,0.0,0.0,0.0,0.0,0.0,0.0,0.0,0.0,0.0,0.0,0.0,0.0,0.0,0.0,0.0,0.0,0.0,0.0,0.0,0.0,0.0,0.0,0.0,0.0,0.0,0.0,0.0,0.0,0.0,0.0,0.0,0.0,0.0,0.0,0.0,0.0,0.0,0.0,0.0,0.0,0.0,0.0,0.0,0.0,0.0,0.0,0.0,0.0,0.0,0.0,0.0,0.0,0.0,0.0,0.0,0.0,0.0,0.0,0.0,0.0,0.0,0.0,0.0,0.0,0.0,0.0,0.0,0.0,0.0,0.0,0.0,0.0,0.0,0.0,0.0,0.0,0.0,0.0,0.0,0.0,0.0,0.0,0.0,0.0,0.0,0.0,0.0,0.0,0.0,0.0,0.0,0.0,0.0,0.0,0.0,0.0,0.0,0.0,0.0,0.0,0.0,0.0,0.0,0.0,0.0,0.0,0.0,0.0,0.0,0.0,0.0,0.0,0.0,0.0,0.0,0.0,0.0,0.0,0.0,0.0,0.0,0.0,0.0,0.0,0.0,0.0,0.0,0.0,0.0,0.0,0.0,0.0,0.0,0.0,0.0,0.0,0.0,0.0,0.0,0.0,0.0,0.0,0.0,0.0,0.0,0.0,0.0,0.0,0.0,0.0,0.0,0.0,0.0,0.0,0.0,0.0,0.0,0.0,0.0,0.0,0.0,0.0,0.0,0.0,0.0,0.0,0.0,0.0,0.0,0.0,0.0,0.0,0.0,0.0,0.0,0.0,0.0,0.0,0.0,0.0,0.0,0.0,0.0,0.0,0.0,0.0,0.0,0.0,0.0,0.0,0.0,0.0,0.0,0.0,0.0,0.0,0.0,0.0,0.0,0.0,0.0,0.0,0.0,0.0,0.0,0.0,0.0,0.0,0.0,0.0,0.0,0.0,0.0,0.0,0.0,0.0,0.0,0.0,0.0,0.0,0.0,0.0,0.0,0.0,0.0,0.0,0.0,0.0,0.0,0.0,0.0,0.0,0.0,0.0,0.0,0.0,0.0,0.0,0.0,0.0,0.0,0.0,0.0,0.0,0.0,0.0,0.0,0.0,0.0,0.0,0.0,0.0,0.0,0.0,0.0,0.0,0.0,0.0,0.0,0.0,0.0,0.0,0.0,0.0,0.0,0.0,0.0,0.0,0.0,0.0,0.0,0.0,0.0,0.0,0.0,0.0,0.0,0.0,0.0,0.0,0.0,0.0,0.0,0.0,0.0,0.0,0.0,0.0,0.0,0.0,0.0,0.0,0.0,0.0,0.0,0.0,0.0,0.0,0.0,0.0,0.0,0.0,0.0,0.0,0.0,0.0,0.0,0.0,0.0,0.0,0.0,0.0,0.0,0.0,0.0,0.0,0.0,0.0,0.0,0.0,0.0,0.0,0.0,0.0,0.0,0.0,0.0,0.0,0.0,0.0,0.0,0.0,0.0,0.0,0.0,0.0,0.0,0.0,0.0,0.0,0.0,0.0,0.0,0.0,0.0,0.0,0.0,0.0,0.0,0.0,0.0,0.0,0.0,0.0,0.0,0.0,0.0,0.0,0.0,0.0,0.0,0.0,0.0,0.0,0.0,0.0,0.0,0.0,0.0,0.0,0.0,0.0,0.0,0.0,0.0,0.0,0.0,0.0,0.0,0.0,0.0,0.0,0.0,0.0,0.0,0.0,0.0,0.0,0.0,0.0,0.0,0.0,0.0,0.0,0.0,0.0,0.0,0.0,0.0,0.0,0.0,0.0,0.0,0.0,0.0,0.0,0.0,0.0,0.0,0.0,0.0,0.0,0.0,0.0,0.0,0.0,0.0,0.0,0.0,0.0,0.0,0.0,0.0,0.0,0.0,0.0,0.0,0.0,0.0,0.0,0.0,0.0,0.0,0.0,0.0,0.0,0.0,0.0,0.0,0.0,0.0,0.0,0.0,0.0,0.0,0.0,0.0,0.0,0.0,0.0,0.0,0.0,0.0,0.0,0.0,0.0,0.0,0.0,0.0,0.0,0.0,0.0,0.0,0.0,0.0,0.0,0.0,0.0,0.0,0.0,0.0,0.0,0.0,0.0,0.0,0.0,0.0,0.0,0.0,0.0,0.0,0.0,0.0,0.0,0.0,0.0,0.0,0.0,0.0,0.0,0.0,0.0,0.0,0.0,0.0,0.0,0.0,0.0,0.0,0.0,0.0,0.0,0.0,0.0,0.0,0.0,0.0,0.0,0.0,0.0,0.0,0.0,0.0,0.0,0.0,0.0,0.0,0.0,0.0,0.0,0.0,0.0,0.0,0.0,0.0,0.0,0.0,0.0,0.0,0.0,0.0,0.0,0.0,0.0,0.0,0.0,0.0,0.0,0.0,0.0,0.0,0.0,0.0,0.0,0.0,0.0,0.0,0.0,0.0,0.0,0.0,0.0,0.0,0.0,0.0,0.0,0.0,0.0,0.0,0.0,0.0,0.0,0.0,0.0,0.0,0.0,0.0,0.0,0.0,0.0,0.0,0.0,0.0,0.0,0.0,0.0,0.0,0.0,0.0,0.0,0.0,0.0,0.0,0.0,0.0,0.0,0.0,0.0,0.0,0.0,0.0,0.0,0.0,0.0,0.0,0.0,0.0,0.0,0.0,0.0,0.0,0.0,0.0,0.0,0.0,0.0,0.0,0.0,0.0,0.0,0.0,0.0,0.0,0.0,0.0,0.0,0.0,0.0,0.0,0.0,0.0,0.0,0.0,0.0,0.0,0.0,0.0,0.0,0.0,0.0,0.0,0.0,0.0,0.0,0.0,0.0,0.0,0.0,0.0,0.0,0.0,0.0,0.0,0.0,0.0,0.0,0.0,0.0,0.0,0.0,0.0,0.0,0.0,0.0,0.0,0.0,0.0,0.0,0.0,0.0,0.0,0.0,0.0,0.0,0.0,0.0,0.0,0.0,0.0,0.0,0.0,0.0,0.0,0.0,0.0,0.0,0.0,0.0,0.0,0.0,0.0,0.0,0.0,0.0,0.0,0.0,0.0,0.0,0.0,0.0,0.0,0.0,0.0,0.0,0.0,0.0,0.0,0.0,0.0,0.0,0.0,0.0,0.0,0.0,0.0,0.0,0.0,0.0,0.0,0.0,0.0,0.0,0.0,0.0,0.0,0.0,0.0,0.0,0.0,0.0,0.0,0.0,0.0,0.0,0.0,0.0,0.0,0.0,0.0,0.0,0.0,0.0,0.0,0.0,0.0,0.0,0.0,0.0,0.0,0.0,0.0,0.0,0.0,0.0,0.0,0.0,0.0,0.0,0.0,0.0,0.0,0.0,0.0,0.0,0.0,0.0,0.0,0.0,0.0,0.0,0.0,0.0,0.0,0.0,0.0,0.0,0.0,0.0,0.0,0.0,0.0,0.0,0.0,0.0,0.0,0.0,0.0,0.0,0.0,0.0,0.0,0.0,0.0,0.0,0.0,0.0,0.0,0.0,0.0,0.0,0.0,0.0,0.0,0.0,0.0,0.0,0.0,0.0,0.0,0.0,0.0,0.0,0.0,0.0,0.0,0.0,0.0,0.0,0.0,0.0,0.0,0.0,0.0,0.0,0.0,0.0,0.0,0.0,0.0,0.0,0.0,0.0,0.0,0.0,0.0,0.0,0.0,0.0,0.0,0.0,0.0,0.0,0.0,0.0,0.0,0.0,0.0,0.0,0.0,0.0,0.0,0.0,0.0,0.0,0.0,0.0,0.0,0.0,0.0,0.0,0.0,0.0,0.0,0.0,0.0,0.0,0.0,0.0,0.0,0.0,0.0,0.0,0.0,0.0,0.0,0.0,0.0,0.0,0.0,0.0,0.0,0.0,0.0,0.0,0.0,0.0,0.0,0.0,0.0,0.0,0.0,0.0,0.0,0.0,0.0,0.0,0.0,0.0,0.0,0.0,0.0,0.0,0.0,0.0,0.0,0.0,0.0,0.0,0.0,0.0,0.0,0.0,0.0,0.0,0.0,0.0,0.0,0.0,0.0,0.0,0.0,0.0,0.0,0.0,0.0,0.0,0.0,0.0,0.0,0.0,0.0,0.0,0.0,0.0,0.0,0.0,0.0,0.0,0.0,0.0,0.0,0.0,0.0,0.0,0.0,0.0,0.0,0.0,0.0,0.0,0.0,0.0,0.0,0.0,0.0,0.0,0.0,0.0,0.0,0.0,0.0,0.0,0.0,0.0,0.0,0.0,0.0,0.0,0.0,0.0,0.0,0.0,0.0,0.0,0.0,0.0,0.0,0.0,0.0,0.0,0.0,0.0,0.0,0.0,0.0,0.0,0.0,0.0,0.0,0.0,0.0,0.0,0.0,0.0,0.0,0.0,0.0,0.0,0.0,0.0,0.0,0.0,0.0,0.0,0.0,0.0,0.0,0.0,0.0,0.0,0.0,0.0,0.0,0.0,0.0,0.0,0.0,0.0,0.0,0.0,0.0,0.0,0.0,0.0,0.0,0.0,0.0,0.0,0.0,0.0,0.0,0.0,0.0,0.0,0.0,0.0,0.0,0.0,0.0,0.0,0.0,0.0,0.0,0.0,0.0,0.0,0.0,0.0,0.0,0.0,0.0,0.0,0.0,0.0,0.0,0.0,0.0,0.0,0.0,0.0,0.0,0.0,0.0,0.0,0.0,0.0,0.0,0.0,0.0,0.0,0.0,0.0,0.0,0.0,0.0,0.0,0.0,0.0,0.0,0.0,0.0,0.0,0.0,0.0,0.0,0.0,0.0,0.0,0.0,0.0,0.0,0.0,0.0,0.0,0.0,0.0,0.0,0.0,0.0,0.0,0.0,0.0,0.0,0.0,0.0,0.0,0.0,0.0,0.0,0.0,0.0,0.0,0.0,0.0,0.0,0.0,0.0,0.0,0.0,0.0,0.0,0.0,0.0,0.0,0.0,0.0,0.0,0.0,0.0,0.0,0.0,0.0,0.0,0.0,0.0,0.0,0.0,0.0,0.0,0.0,0.0,0.0,0.0,0.0,0.0,0.0,0.0,0.0,0.0,0.0,0.0,0.0,0.0,0.0,0.0,0.0,0.0,0.0,0.0,0.0,0.0,0.0,0.0,0.0,0.0,0.0,0.0,0.0,0.0,0.0,0.0,0.0,0.0,0.0,0.0,0.0,0.0,0.0,0.0,0.0,0.0,0.0,0.0,0.0,0.0,0.0,0.0,0.0,0.0,0.0,0.0,0.0,0.0,0.0,0.0,0.0,0.0,0.0,0.0,0.0,0.0,0.0,0.0,0.0,0.0,0.0,0.0,0.0,0.0,0.0,0.0,0.0,0.0,0.0,0.0,0.0,0.0,0.0,0.0,0.0,0.0,0.0,0.0,0.0,0.0,0.0,0.0,0.0,0.0,0.0,0.0,0.0,0.0,0.0,0.0,0.0,0.0,0.0,0.0,0.0,0.0,0.0,0.0,0.0,0.0,0.0,0.0,0.0,0.0,0.0,0.0,0.0,0.0,0.0,0.0,0.0,0.0,0.0,0.0,0.0,0.0,0.0,0.0,0.0,0.0,0.0,0.0,0.0,0.0,0.0,0.0,0.0,0.0,0.0,0.0,0.0,0.0,0.0,0.0,0.0,0.0,0.0,0.0,0.0,0.0,0.0,0.0,0.0,0.0,0.0,0.0,0.0,0.0,0.0,0.0,0.0,0.0,0.0,0.0,0.0,0.0,0.0,0.0,0.0,0.0,0.0,0.0,0.0,0.0,0.0,0.0,0.0,0.0,0.0,0.0,0.0,0.0,0.0,0.0,0.0,0.0,0.0,0.0,0.0,0.0,0.0,0.0,0.0,0.0,0.0,0.0,0.0,0.0,0.0,0.0,0.0,0.0,0.0,0.0,0.0,0.0,0.0,0.0,0.0,0.0,0.0,0.0,0.0807,0.0,0.0,0.0,0.0,0.0,0.0,0.0,0.0,0.0,0.0,0.0,0.0,0.0,0.0,0.0,0.0,0.0,0.0,0.0,0.0,0.0,0.0,0.0,0.0,0.0,0.0,0.0,0.0,0.0,0.0,0.0,0.0,0.0,0.0,0.0,0.0,0.0,0.0,0.0,0.0,0.0,0.0,0.0,0.0,0.0,0.0,0.0,0.0,0.0,0.0,0.0,0.0,0.0,0.0,0.0,0.0,0.0,0.0,0.0,0.0,0.0,0.0,0.0,0.0,0.0,0.0,0.0,0.0,0.0,0.0,0.0,0.0,0.0,0.0,0.0,0.0,0.0,0.0,0.0,0.0,0.0,0.0,0.0,0.0,0.0,0.0,0.0,0.0,0.0,0.0,0.0,0.0,0.0,0.0,0.0,0.0,0.0,0.0,0.0,0.0,0.0,0.0,0.0,0.0,0.0,0.0,0.0,0.0,0.0,0.0,0.0,0.0,0.0,0.0,0.121,0.0,0.0,0.0,0.0,0.0,0.0,0.0,0.0,0.0,0.0,0.0,0.0,0.0,0.0,0.0,0.0,0.0,0.0,0.0,0.0,0.0,0.0,0.0,0.0,0.0,0.0,0.0,0.0,0.0,0.0,0.0,0.0,0.0,0.0,0.0,0.0,0.0,0.0,0.0,0.0,0.0,0.0,0.0,0.0,0.0,0.0,0.0,0.0,0.0,0.0,0.0,0.0,0.0,0.0,0.0,0.0,0.0,0.0,0.0,0.0,0.0,0.0,0.0,0.0,0.0,0.0,0.0,0.0,0.0,0.0,0.0,0.0,0.0,0.0,0.0,0.0,0.0,0.0,0.0,0.0,0.0,0.0,0.0,0.0,0.0,0.0,0.0,0.0,0.0,0.0,0.0,0.0,0.0,0.0,0.0,0.0,0.0,0.0,0.0,0.0,0.0,0.0,0.0,0.0,0.0,0.0,0.0,0.0,0.0,0.0,0.0,0.0,0.0,0.3522,0.1222,0.0,0.0,0.0,0.0,0.0,0.0,0.0,0.0,0.0,0.0,0.0,0.0,0.0,0.0,0.0,0.0,0.0,0.0,0.0,0.0,0.0,0.0,0.0,0.0,0.0,0.0,0.0,0.0,0.0,0.0,0.0,0.0,0.0,0.0,0.0,0.0,0.0,0.0,0.0,0.0,0.0,0.0,0.0,0.0,0.0,0.0,0.0,0.0,0.0,0.0,0.0,0.0,0.0,0.0,0.0,0.0,0.0,0.0,0.0,0.0,0.0,0.0,0.0,0.0,0.0,0.0,0.0,0.0,0.0,0.0,0.0,0.0,0.0,0.0,0.0,0.0,0.0,0.0,0.0,0.0,0.0,0.0,0.0,0.0,0.0,0.0,0.0,0.0,0.0,0.0,0.0,0.0,0.0,0.0,0.0,0.0,0.0,0.0,0.0,0.0,0.0,0.0,0.0,0.0,0.0,0.0,0.0,0.0,0.0,0.0,0.0,0.0,0.0,0.2972,0.0,0.0374,0.0,0.0,0.0,0.0,0.0,0.0,0.0,0.0,0.0,0.0,0.0,0.0,0.0,0.0,0.0,0.0,0.0,0.0,0.0,0.0,0.0,0.0,0.0,0.0,0.0,0.0,0.0,0.0,0.0,0.0,0.0,0.0,0.0,0.0,0.0,0.0,0.0,0.0,0.0,0.0,0.0,0.0,0.0,0.0,0.0,0.0,0.0,0.0,0.0,0.0,0.0,0.0,0.0,0.0,0.0,0.0,0.0,0.0,0.0,0.0,0.0,0.0,0.0,0.0,0.0,0.0,0.0,0.0,0.0,0.0,0.0,0.0,0.0,0.0,0.0,0.0,0.0,0.0,0.0,0.0,0.0,0.0,0.0,0.0,0.0,0.0,0.0,0.0,0.0,0.0,0.0,0.0,0.0,0.0,0.0,0.0,0.0,0.0,0.0,0.0,0.0,0.0,0.0,0.0,0.0,0.0,0.0,0.0,0.0,0.0,0.0,0.3976,0.1762,0.1603,0.1058,0.0,0.0,0.0,0.0,0.0,0.0,0.0,0.0,0.0,0.0,0.0,0.0,0.0,0.0,0.0,0.0,0.0,0.0,0.0,0.0,0.0,0.0,0.0,0.0,0.0,0.0,0.0,0.0,0.0,0.0,0.0,0.0,0.0,0.0,0.0,0.0,0.0,0.0,0.0,0.0,0.0,0.0,0.0,0.0,0.0,0.0,0.0,0.0,0.0,0.0,0.0,0.0,0.0,0.0,0.0,0.0,0.0,0.0,0.0,0.0,0.0,0.0,0.0,0.0,0.0,0.0,0.0,0.0,0.0,0.0,0.0,0.0,0.0,0.0,0.0,0.0,0.0,0.0,0.0,0.0,0.0,0.0,0.0,0.0,0.0,0.0,0.0,0.0,0.0,0.0,0.0,0.0,0.0,0.0,0.0,0.0,0.0,0.0,0.0,0.0,0.0,0.0,0.0,0.0,0.0,0.0,0.0,0.0,0.0,0.0,0.0,0.0,0.2886,0.2012,0.1105,0.0,0.0,0.0,0.0,0.0,0.0,0.0,0.0,0.0,0.0,0.0,0.0,0.0,0.0,0.0,0.0,0.0,0.0,0.0,0.0,0.0,0.0,0.0,0.0,0.0,0.0,0.0,0.0,0.0,0.0,0.0,0.0,0.0,0.0,0.0,0.0,0.0,0.0,0.0,0.0,0.0,0.0,0.0,0.0,0.0,0.0,0.0,0.0,0.0,0.0,0.0,0.0,0.0,0.0,0.0,0.0,0.0,0.0,0.0,0.0,0.0,0.0,0.0,0.0,0.0,0.0,0.0,0.0,0.0,0.0,0.0,0.0,0.0,0.0,0.0,0.0,0.0,0.0,0.0,0.0,0.0,0.0,0.0,0.0,0.0,0.0,0.0,0.0,0.0,0.0,0.0,0.0,0.0,0.0,0.0,0.0,0.0,0.0,0.0,0.0,0.0,0.0,0.0,0.0,0.0,0.0,0.0,0.0,0.0,0.0,0.0,0.0,0.3301,0.2165,0.11,0.0,0.0,0.0,0.0,0.0,0.0,0.0,0.0,0.0,0.0,0.0,0.0,0.0,0.0,0.0,0.0,0.0,0.0,0.0,0.0,0.0,0.0,0.0,0.0,0.0,0.0,0.0,0.0,0.0,0.0,0.0,0.0,0.0,0.0,0.0,0.0,0.0,0.0,0.0,0.0,0.0,0.0,0.0,0.0,0.0,0.0,0.0,0.0,0.0,0.0,0.0,0.0,0.0,0.0,0.0,0.0,0.0,0.0,0.0,0.0,0.0,0.0,0.0,0.0,0.0,0.0,0.0,0.0,0.0,0.0,0.0,0.0,0.0,0.0,0.0,0.0,0.0,0.0,0.0,0.0,0.0,0.0,0.0,0.0,0.0,0.0,0.0,0.0,0.0,0.0,0.0,0.0,0.0,0.0,0.0,0.0,0.0,0.0,0.0,0.0,0.0,0.0,0.0,0.0,0.0,0.0,0.0,0.0,0.0,0.0,0.0,0.0,0.3039,0.2032,0.1008,0.0,0.0,0.0,0.0,0.0,0.0,0.0,0.0,0.0,0.0,0.0,0.0,0.0,0.0,0.0,0.0,0.0,0.0,0.0,0.0,0.0,0.0,0.0,0.0,0.0,0.0,0.0,0.0,0.0,0.0,0.0,0.0,0.0,0.0,0.0,0.0,0.0,0.0,0.0,0.0,0.0,0.0,0.0,0.0,0.0,0.0,0.0,0.0,0.0,0.0,0.0,0.0,0.0,0.0,0.0,0.0,0.0,0.0,0.0,0.0,0.0,0.0,0.0,0.0,0.0,0.0,0.0,0.0,0.0,0.0,0.0,0.0,0.0,0.0,0.0,0.0,0.0,0.0,0.0,0.0,0.0,0.0,0.0,0.0,0.0,0.0,0.0,0.0,0.0,0.0,0.0,0.0,0.0,0.0,0.0,0.0,0.0,0.0,0.0,0.0,0.0,0.0,0.0,0.0,0.0,0.0,0.0,0.0,0.0,0.0,0.0,0.0,0.2156,0.1,0.0291,0.0,0.0,0.0,0.0,0.0,0.0,0.0,0.0,0.0,0.0,0.0,0.0,0.0,0.0,0.0,0.0,0.0,0.0,0.0,0.0,0.0,0.0,0.0,0.0,0.0,0.0,0.0,0.0,0.0,0.0,0.0,0.0,0.0,0.0,0.0,0.0,0.0,0.0,0.0,0.0,0.0,0.0,0.0,0.0,0.0,0.0,0.0,0.0,0.0,0.0,0.0,0.0,0.0,0.0,0.0,0.0,0.0,0.0,0.0,0.0,0.0,0.0,0.0,0.0,0.0,0.0,0.0,0.0,0.0,0.0,0.0,0.0,0.0,0.0,0.0,0.0,0.0,0.0,0.0,0.0,0.0,0.0,0.0,0.0,0.0,0.0,0.0,0.0,0.0,0.0,0.0,0.0,0.0,0.0,0.0,0.0,0.0,0.0,0.0,0.0,0.0,0.0,0.0,0.0,0.0,0.0,0.0,0.0,0.0,0.0,0.0,0.3316,0.2343,0.1259,0.0465,0.0,0.0,0.0,0.0,0.0,0.0,0.0,0.0,0.0,0.0,0.0,0.0,0.0,0.0,0.0,0.0,0.0,0.0,0.0,0.0,0.0,0.0,0.0,0.0,0.0,0.0,0.0,0.0,0.0,0.0,0.0,0.0,0.0,0.0,0.0,0.0,0.0,0.0,0.0,0.0,0.0,0.0,0.0,0.0,0.0,0.0,0.0,0.0,0.0,0.0,0.0,0.0,0.0,0.0,0.0,0.0,0.0,0.0,0.0,0.0,0.0,0.0,0.0,0.0,0.0,0.0,0.0,0.0,0.0,0.0,0.0,0.0,0.0,0.0,0.0,0.0,0.0,0.0,0.0,0.0,0.0,0.0,0.0,0.0,0.0,0.0,0.0,0.0,0.0,0.0,0.0,0.0,0.0,0.0,0.0,0.0,0.0,0.0,0.0,0.0,0.0,0.0,0.0,0.0,0.0,0.0,0.0,0.0,0.0,0.0,0.0,0.4203,0.3149,0.2138,0.1104,0.0,0.0,0.0,0.0,0.0,0.0,0.0,0.0,0.0,0.0,0.0,0.0,0.0,0.0,0.0,0.0,0.0,0.0,0.0,0.0,0.0,0.0,0.0,0.0,0.0,0.0,0.0,0.0,0.0,0.0,0.0,0.0,0.0,0.0,0.0,0.0,0.0,0.0,0.0,0.0,0.0,0.0,0.0,0.0,0.0,0.0,0.0,0.0,0.0,0.0,0.0,0.0,0.0,0.0,0.0,0.0,0.0,0.0,0.0,0.0,0.0,0.0,0.0,0.0,0.0,0.0,0.0,0.0,0.0,0.0,0.0,0.0,0.0,0.0,0.0,0.0,0.0,0.0,0.0,0.0,0.0,0.0,0.0,0.0,0.0,0.0,0.0,0.0,0.0,0.0,0.0,0.0,0.0,0.0,0.0,0.0,0.0,0.0,0.0,0.0,0.0,0.0,0.0,0.0,0.0,0.0,0.0,0.0,0.0,0.0,0.0,0.4234,0.3346,0.2199,0.107,0.0,0.0,0.0,0.0,0.0,0.0,0.0,0.0,0.0,0.0,0.0,0.0,0.0,0.0,0.0,0.0,0.0,0.0,0.0,0.0,0.0,0.0,0.0,0.0,0.0,0.0,0.0,0.0,0.0,0.0,0.0,0.0,0.0,0.0,0.0,0.0,0.0,0.0,0.0,0.0,0.0,0.0,0.0,0.0,0.0,0.0,0.0,0.0,0.0,0.0,0.0,0.2929,0.0,0.0,0.0,0.0,0.0,0.0,0.0,0.0,0.0,0.0,0.0,0.0,0.0,0.0,0.0,0.0,0.0,0.0,0.0,0.0,0.0,0.0,0.0,0.0,0.0,0.0,0.0,0.0,0.0,0.0,0.0,0.0,0.0,0.0,0.0,0.0,0.0,0.0,0.0,0.0,0.0,0.0,0.0,0.0,0.0,0.0,0.0,0.0,0.0,0.0,0.0,0.0,0.0,0.0,0.0,0.0,0.0,0.0,0.0,0.4988,0.4081,0.2908,0.1842,0.0893,0.0302,0.0,0.0,0.0,0.0,0.0,0.0,0.0,0.0,0.0,0.0,0.0,0.0,0.0,0.0,0.0,0.0,0.0,0.0,0.0,0.0,0.0,0.0,0.0,0.0,0.0,0.0,0.0,0.0,0.0,0.0,0.0,0.0,0.0,0.0,0.0,0.0,0.0,0.0,0.0,0.0,0.0,0.0,0.0,0.0,0.0,0.0,0.0,0.0,0.0,0.0,0.0,0.0,0.0,0.0,0.0,0.0,0.0,0.0,0.0,0.0,0.0,0.0,0.0,0.0,0.0,0.0,0.0,0.0,0.0,0.0,0.0,0.0,0.0,0.0,0.0,0.0,0.0,0.0,0.0,0.0,0.0,0.0,0.0,0.0,0.0,0.0,0.0,0.0,0.0,0.0,0.0,0.0,0.0,0.0,0.0,0.0,0.0,0.0,0.0,0.0,0.0,0.0,0.0,0.0,0.0,0.0,0.0,0.0,0.6344,0.5873,0.4915,0.3745,0.2705,0.1831,0.0646,0.0,0.0,0.0,0.0,0.0,0.0,0.0,0.0,0.0,0.0,0.0,0.0,0.0,0.0,0.0,0.0,0.0,0.0,0.0,0.0,0.0,0.0,0.0,0.0,0.0,0.0,0.0,0.0,0.0,0.0,0.0,0.0,0.0,0.0,0.0,0.0,0.0,0.0,0.0,0.0,0.607,0.6506,0.0,0.0,0.0,0.0,0.0,0.0,0.0,0.0,0.4137,0.0,0.0,0.0,0.0,0.0,0.0,0.0,0.0,0.0,0.0,0.0,0.0,0.0,0.0,0.0,0.0,0.0,0.0,0.0,0.0,0.0,0.0,0.0,0.0,0.0,0.0,0.0,0.0,0.0,0.0,0.0,0.0,0.0,0.0,0.0,0.0,0.0,0.0,0.0,0.0,0.0,0.0,0.0,0.0,0.0,0.0,0.0,0.0,0.0,0.0,0.0,0.0,0.0,0.0,0.0,0.0,0.6624,0.6542,0.6003,0.5067,0.3873,0.279,0.183,0.0645,0.0,0.0,0.0,0.0,0.0,0.0,0.0,0.0,0.0,0.0,0.0,0.0,0.0,0.0,0.0,0.0,0.0,0.0,0.0,0.0,0.0,0.0,0.0,0.0,0.0,0.0,0.0,0.0,0.0,0.0,0.0,0.0,0.0,0.0,0.0,0.0,0.0,0.0,0.0,0.0,0.0,0.7475,0.7763,0.0,0.0,0.0,0.0,0.0,0.0,0.0,0.0,0.4546,0.0,0.0,0.0,0.0,0.0,0.0,0.0,0.0,0.0,0.0,0.0,0.0,0.0,0.0,0.0,0.0,0.0,0.0,0.0,0.0,0.0,0.0,0.0,0.0,0.0,0.0,0.0,0.0,0.0,0.0,0.0,0.0,0.0,0.0,0.0,0.0,0.0,0.0,0.0,0.0,0.0,0.0,0.0,0.0,0.0,0.0,0.0,0.0,0.0,0.0,0.0,0.0,0.0,0.0,0.0,0.6613,0.6586,0.6405,0.6003,0.4844,0.4,0.351,0.2346,0.142,0.0,0.0,0.0,0.0,0.0,0.0,0.0,0.0,0.0,0.0,0.0,0.0,0.0,0.0,0.0,0.0,0.0,0.0,0.0,0.0,0.0,0.0,0.0,0.0,0.0,0.0,0.0,0.0,0.0,0.0,0.0,0.0,0.0,0.0,0.0,0.0,0.0,0.0,0.0,0.0,0.8761,0.8976,0.8645,0.0,0.0,0.0,0.0,0.0,0.0,0.5583,0.51,0.0,0.0,0.0,0.0,0.0,0.0,0.0,0.0,0.0,0.0,0.0,0.0,0.0,0.0,0.0,0.0,0.0,0.0,0.0,0.0,0.0,0.0,0.0,0.0,0.0,0.0,0.0,0.0,0.0,0.0,0.0,0.0,0.0,0.0,0.0,0.0,0.0,0.0,0.0,0.0,0.0,0.0,0.0,0.0,0.0,0.0,0.0,0.0,0.0,0.0,0.0,0.0,0.0,0.0,0.0,0.6559,0.6637,0.6773,0.6833,0.5684,0.5067,0.5022,0.3871,0.2846,0.0,0.0,0.0,0.0,0.0,0.0,0.0,0.0,0.0,0.0,0.0,0.0,0.0,0.0,0.0,0.0,0.0,0.0,0.0,0.0,0.0,0.0,0.0,0.0,0.0,0.0,0.0,0.0,0.0,0.0,0.0,0.0,0.0,0.0,0.0,0.0,0.0,0.0,0.0,0.0,0.0,0.9913,0.9959,0.8982,0.0,0.0,0.0,0.0,0.6518,0.5832,0.0,0.0,0.0,0.0,0.0,0.0,0.0,0.0,0.0,0.0,0.0,0.0,0.0,0.0,0.0,0.0,0.0,0.0,0.0,0.0,0.0,0.0,0.0,0.0,0.0,0.0,0.0,0.0,0.0,0.0,0.0,0.0,0.0,0.0,0.0,0.0,0.0,0.0,0.0,0.0,0.0,0.0,0.0,0.0,0.0,0.0,0.0,0.0,0.0,0.0,0.0,0.0,0.0,0.0,0.0,0.0,0.6709,0.6692,0.6773,0.6826,0.5608,0.492,0.4917,0.3742,0.3044,0.0,0.0,0.0,0.0,0.0,0.0,0.0,0.0,0.0,0.0,0.0,0.0,0.0,0.0,0.0,0.0,0.0,0.0,0.0,0.0,0.0,0.0,0.0,0.0,0.0,0.0,0.0,0.0,0.0,0.0,0.0,0.0,0.0,0.0,0.0,0.0,0.0,0.0,0.0,0.0,0.0,1.0035,0.8799,0.8479,0.8356,0.0,0.0,0.6627,0.6495,0.6615,0.0,0.0,0.0,0.0,0.0,0.0,0.0,0.0,0.0,0.0,0.0,0.0,0.0,0.0,0.0,0.0,0.0,0.0,0.0,0.0,0.0,0.0,0.0,0.0,0.0,0.0,0.0,0.0,0.0,0.0,0.0,0.0,0.0,0.0,0.0,0.0,0.0,0.0,0.0,0.0,0.0,0.0,0.0,0.0,0.0,0.0,0.0,0.0,0.0,0.0,0.0,0.0,0.0,0.0,0.0,0.8634,0.8288,0.7788,0.7548,0.7621,0.6517,0.5871,0.579,0.5324,0.4671,0.0,0.0,0.0,0.0,0.0,0.0,0.0,0.0,0.0,0.0,0.0,0.0,0.0,0.0,0.0,0.0,0.0,0.0,0.0,0.0,0.0,0.0,0.0,0.0,0.0,0.0,0.0,0.0,0.0,0.0,0.0,0.0,0.0,0.0,0.0,0.0,0.0,0.0,0.0,0.0,0.0,0.0,1.142,1.0238,0.0,0.0,0.0,0.6549,0.6485,0.0,0.0,0.0,0.0,0.0,0.0,0.0,0.0,0.0,0.0,0.0,0.0,0.0,0.0,0.0,0.0,0.0,0.0,0.0,0.0,0.0,0.0,0.0,0.0,0.0,0.0,0.0,0.0,0.0,0.0,0.0,0.0,0.0,0.0,0.0,0.0,0.0,0.0,0.0,0.0,0.0,0.0,0.0,0.0,0.0,0.0,0.0,0.0,0.0,0.0,0.0,0.0,0.0,0.0,0.0,0.0,0.0,0.9497,0.8863,0.8536,0.85,0.7773,0.7291,0.7205,0.6928,0.0,0.0,0.0,0.0,0.0,0.0,0.0,0.0,0.0,0.0,0.0,0.0,0.0,0.0,0.0,0.0,0.0,0.0,0.0,0.0,0.0,0.0,0.0,0.0,0.0,0.0,0.0,0.8978,0.0,0.0,0.0,0.0,0.0,0.0,0.0,0.0,0.0,0.0,0.0,0.0,0.0,0.0,1.2927,1.2964,1.1624,1.0603,0.0,0.0,0.7168,0.6853,0.6878,0.6727,0.0,0.0,0.0,0.0,0.0,0.0,0.0,0.0,0.0,0.0,0.0,0.0,0.0,0.0,0.0,0.0,0.0,0.0,0.0,0.0,0.0,0.0,0.0,0.0,0.0,0.0,0.0,0.0,0.0,0.0,0.0,0.0,0.0,0.0,0.0,0.0,0.0,0.0,0.0,0.0,0.0,0.0,0.0,0.0,0.0,0.0,0.0,0.0,0.0,0.0,0.0,0.0,0.0,0.0,0.0,0.9526,0.9429,0.9439,0.9394,0.9207,0.9103,0.9089,0.8034,0.7368,0.0,0.0,0.0,0.0,0.0,0.0,0.0,0.0,0.0,0.0,0.0,0.0,0.0,0.0,0.0,0.0,0.0,0.0,0.0,0.0,0.0,0.0,0.0,0.0,0.0,0.0,0.0,0.0,0.0,0.0,0.0,0.0,0.0,0.0,0.0,0.0,0.0,0.0,0.0,0.0,0.0,1.1839,1.139,1.152,1.15,0.0,1.011,0.8926,0.7863,0.7928,0.7608,0.6211,0.0,0.0,0.0,0.0,0.0,0.0,0.0,0.0,0.0,0.0,0.0,0.0,0.0,0.0,0.0,0.0,0.0,0.0,0.0,0.0,0.0,0.0,0.0,0.0,0.0,0.0,0.0,0.0,0.0,0.0,0.0,0.0,0.0,0.0,0.0,0.0,0.0,0.0,0.0,0.0,0.0,0.0,0.0,0.0,0.0,0.0,0.0,0.0,0.0,0.0,0.0,0.0,0.0,1.1272,1.0966,1.0547,1.0323,1.028,0.9635,0.9296,0.9296,0.8662,0.8266,0.0,0.0,0.0,0.0,0.0,0.0,0.0,0.0,0.0,0.0,0.0,0.0,0.0,0.0,0.0,0.0,0.0,0.0,0.0,0.0,0.0,0.0,0.0,0.0,0.0,0.0,0.0,0.0,0.988,1.002,1.0238,0.0,0.0,0.0,0.0,0.0,0.0,0.0,0.0,0.0,0.0,1.2401,1.2196,1.175,0.0,0.0,1.0381,0.9433,0.8922,0.8868,0.8602,0.7753,0.7731,0.0,0.0,0.0,0.0,0.0,0.0,0.0,0.0,0.0,0.0,0.0,0.0,0.0,0.0,0.0,0.0,0.0,0.0,0.0,0.0,0.0,0.0,0.0,0.0,0.0,0.0,0.0,0.0,0.0,0.0,0.0,0.0,0.0,0.0,0.0,0.0,0.0,0.0,0.0,0.0,0.0,0.0,0.0,0.0,0.0,0.0,0.0,0.0,0.0,0.0,0.0,0.0,1.1859,1.2033,1.1525,1.1236,1.1242,1.0571,1.0168,1.0048,0.9509,0.9101,0.0,0.0,0.0,0.0,0.0,0.0,0.0,0.0,0.0,0.0,0.0,0.0,0.0,0.0,0.0,0.0,0.0,0.0,0.0,0.0,0.0,0.0,0.0,0.0,0.0,0.0,0.0,0.0,1.0853,1.0909,1.1138,0.0,0.0,0.0,0.0,0.0,0.0,0.0,0.0,0.0,0.0,1.3495,1.3102,1.2513,1.1991,1.1754,1.1028,1.033,0.9978,0.9807,0.9532,0.8857,0.0,0.0,0.0,0.0,0.0,0.0,0.0,0.0,0.0,0.0,0.0,0.0,0.0,0.0,0.0,0.0,0.0,0.0,0.0,0.0,0.0,0.0,0.0,0.0,0.0,0.0,0.0,1.5618,0.0,0.0,1.6532,0.0,0.0,0.0,0.0,0.0,0.0,0.0,0.0,0.0,0.0,0.0,0.0,0.0,0.0,0.0,0.0,0.0,0.0,0.0,0.0,0.0,0.0,1.1745,1.2308,1.2321,1.2298,1.2291,1.2224,1.2085,1.1806,1.0705,0.9948,0.9661,0.0,0.0,0.0,0.0,0.0,0.0,0.0,0.0,0.0,0.0,0.0,0.0,0.0,0.0,0.0,0.0,0.0,0.0,0.0,0.0,0.0,0.0,0.0,0.0,0.0,0.0,1.2414,1.2539,1.2459,0.0,0.0,0.0,0.0,0.0,0.0,0.0,0.0,0.0,1.4518,1.5158,1.5093,1.3878,1.3918,1.3679,1.252,1.2294,1.1935,1.0987,1.0826,1.0399,0.0,0.0,0.0,0.0,0.0,0.0,0.0,0.0,0.0,0.0,0.0,0.0,0.0,0.0,0.0,0.0,0.0,0.0,0.0,0.0,0.0,0.0,0.0,0.0,0.0,0.0,0.0,1.7169,1.7197,0.0,0.0,0.0,0.0,0.0,0.0,0.0,0.0,0.0,0.0,0.0,1.8817,1.868,0.0,0.0,0.0,0.0,0.0,0.0,0.0,0.0,0.0,0.0,0.0,0.0,1.3302,1.35,1.3975,1.4091,1.3761,1.3239,1.2783,1.2447,1.1283,1.024,0.9271,0.0,0.0,0.0,0.0,0.0,0.0,0.0,0.0,0.0,0.0,0.0,0.0,0.0,0.0,0.0,0.0,0.0,0.0,0.0,0.0,0.0,0.0,0.0,0.0,0.0,1.2459,0.0,0.0,0.0,0.0,0.0,0.0,0.0,0.0,0.0,0.0,0.0,1.4247,1.4637,1.5074,1.5188,1.4752,1.4804,1.4684,0.0,0.0,0.0,0.0,0.0,0.0,0.0,0.0,0.0,0.0,0.0,0.0,0.0,0.0,1.1908,1.1371,1.1105,1.1071,1.1487,0.0,0.0,0.0,0.0,0.0,0.0,0.0,0.0,0.0,0.0,0.0,0.0,0.0,0.0,1.9069,1.9157,1.8983,0.0,0.0,0.0,0.0,0.0,0.0,0.0,0.0,2.0466,2.0579,2.014,2.014,2.0003,1.9741,1.976,1.8689,0.0,0.0,0.0,0.0,0.0,0.0,0.0,0.0,1.4148,1.4255,1.4699,1.4823,1.449,1.3855,1.3338,1.294,1.2151,1.1244,1.0275,1.0173,0.9887,0.0,0.0,0.0,0.0,0.0,0.0,0.0,0.0,0.0,0.0,0.0,0.0,0.0,0.0,0.0,0.0,0.0,0.0,0.0,0.0,0.0,0.0,0.0,1.3444,0.0,0.0,0.0,0.0,0.0,0.0,0.0,0.0,0.0,1.4863,1.5003,1.5382,1.5804,1.6034,1.6044,1.5728,0.0,0.0,0.0,0.0,0.0,0.0,0.0,1.3944,1.3952,1.3808,1.3519,1.2993,1.3295,1.3622,1.3506,0.0,0.0,1.2247,1.2112,1.2242,1.2353,1.2763,1.3049,1.278,1.3509,1.408,0.0,0.0,0.0,0.0,2.1874,0.0,0.0,0.0,2.1599,2.1375,0.0,2.0793,0.0,0.0,0.0,0.0,2.0624,2.1017,0.0,0.0,2.1083,2.1027,2.0698,2.0707,2.0675,2.0664,2.0662,2.036,1.9747,1.823,0.0,0.0,0.0,0.0,0.0,0.0,1.4272,1.4544,1.4619,1.4559,1.456,1.4147,1.3762,1.3378,1.3129,1.283,1.2618,1.2764,1.2518,1.1572,1.1696,0.0,0.0,0.0,0.0,0.0,0.0,0.0,0.0,0.0,0.0,0.0,0.0,0.0,0.0,0.0,0.0,0.0,0.0,0.0,0.0,1.463,0.0,0.0,0.0,0.0,0.0,0.0,0.0,0.0,0.0,0.0,1.6852,1.7145,1.7605,1.7973,0.0,0.0,0.0,0.0,1.6324,1.5446,1.5305,1.5305,1.534,1.5244,1.5184,1.5201,0.0,0.0,1.4754,1.496,1.4971,1.4702,1.4837,1.474,1.3445,1.3456,1.382,1.4126,1.4395,1.4783,1.5091,1.5053,1.5041,2.3745,0.0,0.0,0.0,0.0,2.2167,2.2286,2.3066,2.2631,2.2082,2.1385,2.125,0.0,0.0,0.0,0.0,0.0,0.0,2.1631,2.1565,2.2238,2.2517,2.2402,2.2372,2.2207,2.18,2.18,2.1091,1.9718,1.9216,1.8123,1.6503,0.0,0.0,0.0,0.0,1.5567,1.5657,1.5923,1.5932,1.5657,1.4971,1.4127,1.3135,1.3058,1.2959,1.289,1.2771,1.2576,1.2309,1.1847,0.0,0.0,0.0,0.0,0.0,0.0,0.0,0.0,0.0,0.0,0.0,0.0,0.0,0.0,0.0,0.0,0.0,0.0,0.0,1.5756,1.5942,1.605,0.0,0.0,0.0,0.0,0.0,0.0,0.0,0.0,0.0,1.7895,1.8637,1.9137,0.0,0.0,1.862,1.7716,1.7613,1.7501,1.726,1.7192,0.0,1.7192,1.6208,1.5486,1.5683,1.49,1.4455,1.5042,1.4655,1.4228,1.4155,1.4221,1.413,1.3847,1.4285,1.4752,1.492,1.5005,1.5074,1.5192,1.5453,1.5649,2.5252,2.4565,2.3391,2.3376,2.4028,2.334,2.3514,2.4308,2.3861,2.3307,2.2695,2.2283,2.1722,2.1153,2.0941,0.0,0.0,0.0,2.2384,2.2384,2.2884,2.2982,2.2782,2.2782,2.2493,2.1995,2.1983,2.1405,2.036,2.0141,1.9428,1.8275,0.0,0.0,1.6312,1.6727,1.6816,1.6548,1.6779,1.6636,1.6095,1.5457,1.4738,1.4013,1.3965,1.3965,1.3927,1.3812,1.3645,1.3484,1.3048,1.2725,0.0,0.0,0.0,0.0,0.0,0.0,0.0,0.0,0.0,0.0,0.0,1.5247,1.4381,0.0,0.0,0.0,1.5917,1.6168,1.6873,1.6789,0.0,0.0,0.0,0.0,0.0,0.0,0.0,1.8439,1.8937,1.9261,1.9284,2.0017,2.0178,1.9273,1.9158,1.8967,1.8431,0.0,1.8376,1.8376,1.8366,1.8344,1.8323,1.7503,1.6813,1.6661,1.5743,1.521,1.5693,1.5371,1.5006,1.5015,1.5015,1.5015,1.5015,1.5468,1.5667,1.5317,1.5556,1.5769,1.5811,1.6018,1.6179,2.6714,2.648,2.4259,2.4003,2.5051,2.4665,2.4915,2.5561,2.5051,2.48,2.4682,2.3714,2.3253,2.325,2.2774,0.0,2.3275,2.3275,2.3305,2.3263,2.3237,2.2905,2.2396,2.2346,2.2015,2.1418,2.1418,2.1405,2.1317,2.0855,2.0281,1.959,1.8382,1.7715,1.7639,1.8025,1.7897,1.7248,1.7238,1.6924,1.6237,1.5821,1.5575,1.5575,1.5584,1.5575,1.5575,1.5575,1.5397,1.5049,1.499,1.4614,1.3852,0.0,0.0,0.0,0.0,0.0,0.0,0.0,0.0,0.0,0.0,0.0,0.0,0.0,0.0,0.0,1.7481,0.0,1.7677,1.7364,0.0,0.0,0.0,1.7157,1.7209,1.814,1.8794,1.8794,0.0,0.0,2.0629,2.1069,2.0799,1.9184,1.8985,1.897,1.891,1.8854,1.8881,1.8846,1.8873,1.8903,1.883,1.8709,1.8382,1.7756,1.7215,1.675,1.675,1.676,1.6758,1.6678,1.6758,1.6748,1.6727,1.6707,1.6476,1.5615,1.6109,1.6653,1.6619,1.6602,1.6468,2.8395,2.8309,2.7229,2.6548,2.6151,2.6015,2.5818,2.5598,2.546,2.4958,2.4211,2.4481,2.4717,2.4852,2.4717,2.4731,2.4824,2.4866,2.4866,2.4839,2.431,2.3751,2.3117,2.2617,2.1863,2.0932,2.088,2.0654,2.0213,2.0075,1.9921,1.9739,1.9433,1.8727,1.7633,1.7717,1.7673,1.7506,1.7506,1.7422,1.7242,1.7134,1.7107,1.7079,1.7079,1.7079,1.7079,1.7079,1.7025,1.6933,1.6623,1.6383,1.6164,1.5527,0.0,0.0,0.0,0.0,0.0,0.0,0.0,0.0,0.0,1.6464,1.48,0.0,1.7045,0.0,1.8475,1.9071,1.8489,1.8357,0.0,0.0,1.8615,1.851,1.9071,1.9375,1.9527,1.9553,1.9808,2.0012,2.0012,2.0125,2.0068,1.9658,1.9757,1.965,1.9,1.8881,1.8881,1.8918,1.8907,1.8881,1.8885,1.8629,1.8273,1.7737,1.7483,1.7398,1.737,1.7387,1.7387,1.7398,1.7398,1.737,1.7374,1.7398,1.7094,1.6411,1.6485,1.6697,1.6687,1.6465,1.6222,2.8837,2.8543,2.8181,2.7512,2.6732,2.6719,2.6536,2.6222,2.5973,2.5528,2.4987,2.5167,2.5291,2.5398,2.5398,2.5398,2.5398,2.5398,2.5398,2.5356,2.4695,2.4081,2.3474,2.2802,2.2006,2.1169,2.1169,2.0985,2.0645,2.0632,2.0509,2.0245,2.0245,1.9696,1.8635,1.8581,1.8409,1.8085,1.777,1.7605,1.7605,1.7605,1.7605,1.7605,1.7605,1.7605,1.7605,1.7605,1.7605,1.7605,1.7375,1.7182,1.6995,1.6466,1.6097,0.0,0.0,0.0,0.0,0.0,0.0,0.0,0.0,0.0,0.0,0.0,1.7697,1.802,1.9132,1.9631,1.9228,1.9214,1.9371,1.9747,1.9449,1.9359,1.9773,2.008,2.0245,2.0245,2.0471,2.0546,2.0295,2.0258,2.0118,1.9862,1.9927,1.9844,1.9431,1.9308,1.9291,1.9291,1.9291,1.9291,1.9291,1.8846,1.8391,1.8139,1.7825,1.7605,1.7605,1.7605,1.7605,1.7605,1.7605,1.7605,1.7605,1.7605,1.744,1.7155,1.7053,1.6838,1.6255,1.6208,1.6265,2.8909,2.8291,2.8235,2.7801,2.7204,2.7105,2.7031,2.6866,2.64,2.6225,2.6214,2.573,2.5591,2.5701,2.5673,2.5701,2.5673,2.5687,2.5631,2.552,2.4865,2.4213,2.3592,2.2942,2.2297,2.1724,2.1697,2.1697,2.1697,2.1697,2.1424,2.093,2.0919,2.0622,2.0067,2.0042,1.9644,1.8847,1.8194,1.7868,1.7879,1.7879,1.7879,1.7879,1.7868,1.7879,1.7879,1.7868,1.7895,1.7868,1.7895,1.774,1.7371,1.7291,1.7088,0.0,1.6671,0.0,0.0,0.0,0.0,0.0,0.0,0.0,0.0,1.8324,1.8662,1.9304,1.9762,2.0042,2.0042,2.0042,2.0042,2.0042,2.0067,2.0042,2.0067,2.0559,2.0919,2.0919,2.139,2.1472,2.1004,2.0919,2.0658,2.0245,2.0156,2.0156,2.0042,1.9874,1.9757,1.9798,1.9798,1.9703,1.9691,1.9251,1.8883,1.878,1.8394,1.7895,1.795,1.7854,1.7843,1.79,1.792,1.787,1.7857,1.7922,1.7868,1.777,1.7744,1.7351,1.6259,1.6298,1.6595,3.0631,2.9967,2.9496,2.8906,2.8272,2.7727,2.7034,2.6345,2.6235,2.6273,2.6442,2.634,2.6642,2.7163,2.7188,2.7188,2.7188,2.7188,2.6868,2.6351,2.5692,2.479,2.3684,2.3007,2.2343,2.1734,2.1697,2.1697,2.1697,2.1697,2.1639,2.1544,2.1544,2.1472,2.1339,0.0,0.0,0.0,1.9475,1.9385,1.9371,1.9397,1.9397,1.9397,1.9397,0.0,1.9371,1.9371,1.9397,1.9371,1.9385,0.0,0.0,0.0,0.0,0.0,0.0,0.0,0.0,0.0,0.0,0.0,1.9552,1.9065,1.8306,1.9087,2.0099,2.1074,2.1298,2.1339,2.1339,2.1352,2.1339,2.1339,2.1328,2.1315,2.1339,2.1448,2.152,2.152,2.1639,2.1673,2.1568,2.152,2.1472,2.1304,2.1339,2.1339,2.129,2.0471,1.985,1.9798,1.9901,1.985,1.9798,1.9708,1.9644,1.9553,1.9527,1.9347,1.9232,1.8927,1.8878,1.916,1.9039,1.8841,1.9222,1.9397,1.905,1.8596,1.8478,1.8221,1.7385,1.7291,1.7385,3.0642,2.9998,2.9355,2.8738,0.0,2.7735,2.734,2.6903,2.6903,2.6958,2.7049,2.7034,2.7255,2.7585,2.7585,2.7585,2.7585,2.7585,2.724,2.6557,2.5914,2.5078,2.4112,2.3466,2.295,2.2651,2.2665,2.2665,2.2628,2.2651,2.2492,2.2207,2.2193,2.203,2.172,2.1697,2.1245,2.0295,2.0295,2.0131,1.9824,1.9798,1.9798,1.9798,1.9798,0.0,0.0,0.0,0.0,0.0,0.0,0.0,0.0,0.0,0.0,2.0285,2.007,1.9803,1.9588,2.0076,2.0386,2.0464,2.0713,2.0521,1.9598,2.0335,2.1087,2.1645,2.1697,2.1697,2.1697,2.1697,2.1697,2.1697,2.1697,2.1697,2.172,2.2007,2.2207,2.2216,2.2469,2.2538,2.223,2.2193,2.203,2.1758,2.1697,2.172,2.1649,2.1159,2.0756,2.0731,2.0731,2.0731,2.0744,2.0731,2.0582,2.037,2.0064,1.9785,1.9434,1.897,1.8694,1.8945,1.8794,1.8719,1.8932,1.9007,1.8896,1.856,1.8459,1.8358,1.7952,1.7807,1.7744,3.0148,2.9547,2.8861,2.8229,2.7585,2.7585,2.7585,2.7585,2.7585,0.0,0.0,2.7585,2.7585,2.7585,2.7585,2.7585,2.7585,2.7585,2.718,2.6417,2.5854,2.5173,2.441,2.3879,2.3595,2.3595,2.3595,2.3595,2.3595,2.3595,2.3355,2.2912,2.2852,2.2589,2.2086,2.2049,2.1748,2.1151,2.1017,2.0708,2.0156,2.0131,2.0131,2.0131,2.0144,2.0131,2.0131,2.0131,2.0131,2.0131,2.0131,2.0383,2.0906,2.0968,2.1186,2.1649,2.1697,2.1489,2.1093,2.1565,2.175,2.1383,2.1782,2.1806,2.1276,2.1634,2.1922,2.2002,2.2025,2.2049,2.2025,2.2025,2.2025,2.2025,2.2039,2.2025,2.2086,2.2492,2.2867,2.2897,2.3253,2.3421,2.292,2.2852,2.268,2.2179,2.2142,2.2025,2.2002,2.1815,2.1578,2.1578,2.153,2.1625,2.1659,2.1464,2.1336,2.0815,2.0303,1.9782,1.9228,1.869,1.8374,1.8456,1.827,1.8234,1.8202,1.8279,1.8204,1.8204,1.8204,1.8166,1.8069,1.7934,1.7867,3.0133,2.9547,2.8876,2.8203,2.7585,2.7585,2.7585,2.7585,2.7585,2.7585,2.7585,2.7585,2.7585,2.7585,2.7585,2.7585,2.7585,2.7585,2.6941,2.5764,2.5659,2.4956,2.3759,2.3655,2.3595,2.3595,2.3595,2.3595,2.3595,2.3595,2.3551,2.3486,2.3465,2.3406,2.3341,2.3341,2.3039,2.2443,2.1852,2.153,2.1435,2.1435,2.1435,2.1435,2.1424,2.1435,2.1411,2.1411,2.1435,2.1411,2.1435,2.1482,2.1568,2.1568,2.1602,2.1697,2.1697,2.1655,2.161,2.2197,2.2764,2.3179,2.3296,2.3098,2.2511,2.25,2.277,2.3238,2.3282,2.3319,2.3341,2.326,2.3238,2.326,2.3304,2.3341,2.326,2.3341,2.3443,2.3443,2.353,2.3595,2.3493,2.3443,2.3421,2.3341,2.3157,2.326,2.3047,2.2386,2.1767,2.1697,2.1697,2.1697,2.1796,2.1268,2.1011,2.0841,2.0293,1.9816,1.958,1.9073,1.8714,1.8812,1.8476,1.8219,1.819,1.8204,1.8185,1.8183,1.8194,1.8095,1.7713,1.7589,1.7811,2.931,2.8981,2.8349,2.7884,2.7585,2.7585,2.7585,2.7585,2.7585,2.7585,2.7585,2.7585,2.7585,2.7585,2.7585,2.7585,2.7585,2.7585,2.7076,2.6153,2.5779,2.5068,2.4156,2.3759,2.3595,2.3595,2.3595,2.3595,2.3595,2.3595,2.3595,2.3595,2.3595,2.3595,2.3595,2.3595,2.3465,2.3201,2.2566,2.2063,2.172,2.1697,2.1697,2.1697,2.1697,2.1697,2.1697,2.1697,2.1697,2.1697,2.1697,2.1852,2.2216,2.2239,2.2377,2.2711,2.2719,2.2733,2.2741,2.3017,2.3297,2.3573,2.3595,2.3486,2.3209,2.3201,2.3312,2.3551,2.3595,2.3595,2.3595,2.3595,2.3595,2.3595,2.3595,2.3595,2.3595,2.3595,2.3595,2.3595,2.3595,2.3724,2.3991,2.3773,2.3745,2.3943,2.3815,2.3616,2.3601,2.2856,2.2372,2.2603,2.2481,2.2438,2.2574,2.1888,2.1384,2.1278,2.0478,1.9796,1.9404,1.8838,1.8549,1.8491,1.8301,1.8177,1.8138,1.8125,1.8138,1.8152,1.816,1.8001,1.7829,1.7988,1.8196,2.8925,2.8751,2.8072,2.781,2.7795,2.7968,2.8018,2.8002,2.8002,2.8018,2.7968,2.7735,2.7585,2.7585,2.7585,2.7585,2.7585,2.7585,2.7255,2.6557,2.5914,2.5247,2.4575,2.3924,2.3595,2.3595,2.3595,2.3595,2.3595,2.3595,2.3595,2.3595,2.3595,2.3595,2.3595,2.3595,2.3595,2.3551,2.3135,2.2657,2.2156,2.2132,2.2142,2.2132,2.2156,2.2118,2.2118,2.2118,2.2062,2.1949,2.2062,2.2283,2.2664,2.2825,2.3098,2.353,2.3595,2.3595,2.3595,2.3595,2.3595,2.3595,2.3724,2.3773,2.3773,2.39,2.39,2.3815,2.3927,2.3991,2.4012,2.3991,2.3948,2.3964,2.3948,2.4012,2.397,2.3948,2.3964,2.3964,2.397,2.4158,2.4405,2.4225,2.4178,2.445,2.422,2.3985,2.3903,2.3461,2.3311,2.3269,2.2951,2.2581,2.3026,2.2178,2.1499,2.1452,2.0547,1.9785,1.9225,1.8753,1.8436,1.8425,1.8338,1.8254,1.8139,1.8108,1.8109,1.811,1.8118,1.8082,1.8089,1.8454,1.8665,2.9893,2.9367,2.8678,2.8431,2.8463,2.8973,2.918,2.918,2.9225,2.9248,2.9065,2.81,2.765,2.7585,2.7635,2.766,2.766,2.7585,2.7305,2.666,2.5914,2.5255,2.4672,2.3946,2.3595,2.3616,2.3616,2.3638,2.3595,2.3595,2.3595,2.3595,2.3595,2.3595,2.3595,2.3595,2.3595,2.3595,2.3551,2.3486,2.3428,2.3428,2.3428,2.3428,2.3406,2.3443,2.3311,2.3428,2.3139,2.2714,2.3073,2.319,2.2807,2.3231,2.353,2.3595,2.3595,2.3595,2.3616,2.3595,2.3638,2.3638,2.409,2.4328,2.4348,2.4756,2.4835,2.4536,2.4756,2.4969,2.5031,2.5008,2.495,2.491,2.495,2.5067,2.4989,2.5051,2.5031,2.5051,2.493,2.5067,2.5086,2.5047,2.5028,2.5028,2.4934,2.4871,2.4835,2.4385,2.3838,2.3352,2.2524,2.1939,2.1909,2.1306,2.0884,2.0767,2.0225,1.9745,1.9531,1.9487,1.9424,1.8893,1.8822,1.8688,1.8361,1.8092,1.8171,1.8341,1.8288,1.8171,1.8181,1.8574,1.8815,2.9655,2.943,2.9146,2.9035,2.9065,2.9316,2.9406,2.9406,2.9406,2.9406,2.9361,2.8841,2.8646,2.8662,2.867,2.867,2.8662,2.8685,2.8529,2.8202,2.7569,2.6882,2.6174,2.5509,2.4834,2.411,2.4074,2.3885,2.3638,2.3595,2.3595,2.3595,2.3595,2.3595,2.3595,2.3595,2.3595,2.3595,2.3595,2.3595,2.3595,2.3595,2.3595,2.3595,2.3595,2.34,2.3086,2.3077,2.2778,2.2224,2.2733,2.2972,2.2718,2.3266,2.3595,2.3616,2.3906,2.4204,2.4516,2.4536,2.4552,2.4552,2.4752,2.4891,2.4894,2.5354,2.5577,2.5392,2.5259,2.5202,2.5221,2.5202,2.5202,2.5202,2.5202,2.5221,2.5202,2.5202,2.5202,2.5202,2.5202,2.5354,2.558,2.567,2.5524,2.5297,2.5221,2.5259,2.5186,2.4678,2.4011,2.3304,2.2462,2.1938,2.1635,2.0752,2.0408,2.0468,2.0139,1.9723,1.9723,1.9723,1.9603,1.9387,1.935,1.9281,1.9151,1.9043,1.9024,1.8987,1.9024,1.9043,1.9024,1.9208,1.926,2.9783,2.9651,2.9651,2.9651,2.9673,2.9827,2.9892,2.9908,2.9892,2.9892,2.9892,2.9908,2.9892,2.9865,2.9563,2.9406,2.9406,2.9406,2.9406,2.9294,2.8516,2.7774,2.7267,2.6407,2.5536,2.4735,2.4617,2.443,2.4053,2.3879,2.3815,2.3815,2.3815,2.3745,2.3616,2.3724,2.3767,2.3595,2.3595,2.3595,2.3595,2.3595,2.3595,2.3595,2.3595,2.3332,2.2748,2.2703,2.2298,2.1485,2.2239,2.268,2.2637,2.3383,2.3879,2.4053,2.441,2.4792,2.5182,2.5202,2.5202,2.5202,2.5316,2.5427,2.5521,2.5906,2.6157,2.6139,2.5835,2.5654,2.5617,2.5617,2.5617,2.5617,2.5601,2.5617,2.5619,2.5617,2.5654,2.5617,2.5709,2.5746,2.6086,2.6175,2.605,2.5746,2.5654,2.5617,2.5531,2.5123,2.4495,2.3716,2.2937,2.2104,2.145,2.0633,2.0201,2.0127,1.9929,1.9723,1.9723,1.9723,1.9723,1.9566,1.9672,1.9672,1.9512,1.9584,1.9639,1.969,1.9672,1.9654,1.9566,1.9687,1.9545,3.0781,3.0309,3.0251,3.0267,3.0293,3.0821,3.1092,3.0978,3.1055,3.1075,3.1035,3.1038,3.1095,3.0958,2.9973,2.9429,2.9429,2.9496,2.9518,2.939,2.8164,2.74,2.7219,2.5922,2.5285,2.5179,2.5163,2.5125,2.5047,2.4612,2.4369,2.4348,2.4369,2.4101,2.3815,2.4158,2.4116,2.3752,2.3724,2.3659,2.3638,2.3638,2.3681,2.3702,2.3601,2.3314,2.281,2.2694,2.2129,2.0846,2.2029,2.2657,2.2581,2.3657,2.4576,2.5047,2.5144,2.5182,2.5259,2.5297,2.5278,2.5316,2.5726,2.5977,2.5979,2.6349,2.659,2.6641,2.6539,2.6522,2.6522,2.6453,2.6505,2.6522,2.6573,2.6573,2.659,2.647,2.6624,2.6573,2.6505,2.6504,2.6624,2.6657,2.6607,2.6522,2.659,2.6556,2.6419,2.6126,2.5569,2.4805,2.3777,2.2468,2.0866,2.0419,2.0198,2.0048,2.0002,1.9726,1.9723,1.9723,1.9723,1.9723,1.9723,1.9723,1.9723,1.9723,1.969,1.9723,1.9723,1.9723,1.9723,1.9723,1.9617,3.1075,3.0878,3.0878,3.0878,3.0898,3.1131,3.119,3.119,3.119,3.119,3.119,3.119,3.119,3.1188,3.074,3.0539,3.0576,3.0555,3.0555,3.0493,3.0011,2.9281,2.8367,2.7821,2.6891,2.5842,2.5707,2.554,2.5202,2.4992,2.4894,2.493,2.491,2.4796,2.4677,2.4812,2.4796,2.4652,2.4597,2.4632,2.4592,2.4617,2.4617,2.4581,2.381,2.3282,2.2952,2.2511,2.203,2.1616,2.2473,2.3142,2.3584,2.4407,2.5147,2.5633,2.5707,2.5835,2.6105,2.6158,2.6175,2.6192,2.6315,2.6435,2.647,2.6607,2.6708,2.6708,2.6708,2.6708,2.6708,2.6708,2.6708,2.6708,2.6708,2.6708,2.6708,2.6708,2.6708,2.6708,2.6708,2.6708,2.6708,2.6708,2.6708,2.6708,2.6708,2.6708,2.6674,2.6522,2.6184,2.5464,2.4579,2.3522,2.2118,2.1182,2.0632,2.0296,2.0072,1.9945,1.9889,1.9851,1.9851,1.9889,1.9854,1.9854,1.9907,1.9818,1.9815,1.978,1.9762,1.9723,1.9723,1.9723,1.9723,3.119,3.119,3.119,3.119,3.119,3.119,3.119,3.119,3.119,3.119,3.119,3.119,3.119,3.119,3.119,3.119,3.119,3.119,3.119,3.1157,3.0954,3.033,2.9433,2.8839,2.7901,2.6695,2.6327,2.6033,2.5726,2.5524,2.5465,2.5449,2.5449,2.537,2.5259,2.5354,2.5392,2.5259,2.5202,2.5202,2.5202,2.5202,2.5297,2.5277,2.4363,2.366,2.3472,2.2975,2.2608,2.2547,2.2864,2.3478,2.4348,2.5226,2.5854,2.6174,2.621,2.6366,2.6641,2.6708,2.6691,2.6708,2.6708,2.6708,2.6708,2.6708,2.6708,2.6708,2.6708,2.6708,2.6708,2.6708,2.6708,2.6708,2.6708,2.6708,2.6708,2.6708,2.6708,2.6708,2.6708,2.6708,2.6708,2.6708,2.6708,2.6708,2.6708,2.6708,2.6708,2.6674,2.6556,2.5964,2.5085,2.4252,2.3182,2.2256,2.1263,2.0796,2.0533,2.033,2.0174,2.0102,2.005,2.007,2.0087,2.0104,2.0067,1.998,1.9927,1.9909,1.9764,1.9723,1.9723,1.9723,1.9723,3.119,3.119,3.119,3.119,3.119,3.119,3.119,3.119,3.119,3.119,3.119,3.119,3.119,3.119,3.119,3.119,3.119,3.119,3.119,3.114,3.0565,3.0226,2.9939,2.8753,2.8027,2.7585,2.6995,2.6674,2.6556,2.6191,2.5997,2.5979,2.5997,2.5781,2.5259,2.5744,2.5744,2.5449,2.5373,2.5316,2.5221,2.5335,2.5559,2.5877,2.5232,2.4695,2.4307,2.416,2.3811,2.336,2.3274,2.3685,2.4888,2.5948,2.6657,2.6624,2.6657,2.6657,2.6691,2.6708,2.6708,2.6708,2.6708,2.6708,2.6708,2.6708,2.6708,2.6708,2.6708,2.6708,2.6708,2.6708,2.6708,2.6708,2.6708,2.6708,2.6708,2.6708,2.6708,2.6708,2.6708,2.6708,2.6708,2.6708,2.6708,2.6708,2.6708,2.6708,2.6708,2.6708,2.6674,2.6387,2.5455,2.4361,2.3853,2.3283,2.2231,2.134,2.1103,2.0894,2.0747,2.0648,2.0614,2.0599,2.0582,2.0599,2.0549,2.0465,2.0348,2.0278,2.0032,1.9836,1.9836,1.9854,1.9726,3.119,3.119,3.119,3.119,3.119,3.119,3.119,3.119,3.119,3.119,3.119,3.119,3.119,3.119,3.119,3.119,3.119,3.119,3.119,3.114,3.0937,3.0581,3.0074,2.96,2.8838,2.7824,2.7046,2.6708,2.6674,2.6556,2.6504,2.647,2.6487,2.6401,2.6228,2.6401,2.635,2.6263,2.6245,2.6229,2.6245,2.6229,2.6315,2.642,2.6235,2.6033,2.588,2.4963,2.458,2.478,2.483,2.5213,2.6,2.6489,2.6691,2.6708,2.6708,2.6708,2.6708,2.6708,2.6708,2.6708,2.6708,2.6708,2.6708,2.6708,2.6708,2.6708,2.6708,2.6708,2.6708,2.6708,2.6708,2.6708,2.6708,2.6708,2.6708,2.6708,2.6708,2.6708,2.6708,2.6708,2.6708,2.6708,2.6708,2.6708,2.6708,2.6708,2.6708,2.6708,2.6691,2.6573,2.5439,2.4609,2.4305,2.3799,2.2916,2.2247,2.1979,2.166,2.1454,2.1343,2.1295,2.1263,2.1231,2.1183,2.1119,2.1006,2.094,2.0682,2.0448,2.0278,2.0124,2.0113,2.015,3.119,3.119,3.119,3.119,3.119,3.119,3.119,3.119,3.119,3.119,3.119,3.119,3.119,3.119,3.119,3.119,3.119,3.119,3.119,3.119,3.119,3.0801,3.0057,2.9447,2.8804,2.7858,2.7063,2.6708,2.6708,2.6708,2.6708,2.6708,2.6708,2.6691,2.6708,2.6708,2.6708,2.6708,2.6674,2.6708,2.6708,2.6708,2.6708,2.6691,2.6708,2.6708,2.6623,2.5794,2.5507,2.5913,2.5998,2.6133,2.6319,2.6522,2.6708,2.6708,2.6708,2.6708,2.6708,2.6708,2.6708,2.6708,2.6708,2.6708,2.6708,2.6708,2.6708,2.6708,2.6708,2.6708,2.6708,2.6708,2.6708,2.6708,2.6708,2.6708,2.6708,2.6708,2.6708,2.6708,2.6708,2.6708,2.6708,2.6708,2.6708,2.6708,2.6708,2.6708,2.6708,2.6708,2.6708,2.6505,2.5744,2.5169,2.4881,2.4272,2.3528,2.3173,2.2938,2.2585,2.2298,2.2283,2.2251,2.2283,2.2266,2.2315,2.2268,2.1921,2.1714,2.1327,2.1022,2.0698,2.0596,2.0874,2.0864,3.119,3.119,3.119,3.119,3.119,3.119,3.119,3.119,3.119,3.119,3.119,3.119,3.119,3.119,3.119,3.119,3.119,3.119,3.119,3.119,3.1157,3.0818,3.0021,2.8737,2.801,2.7739,2.7063,2.6725,2.6708,2.6708,2.6708,2.6708,2.6708,2.6708,2.6708,2.6708,2.6708,2.6708,2.6708,2.6708,2.6708,2.6708,2.6708,2.6708,2.6708,2.6708,2.6674,2.6539,2.6556,2.6674,2.6607,2.6353,2.5964,2.6336,2.6708,2.6708,2.6708,2.6708,2.6708,2.6708,2.6708,2.6708,2.6708,2.6708,2.6708,2.6708,2.6708,2.6708,2.6708,2.6708,2.6708,2.6708,2.6708,2.6708,2.6708,2.6708,2.6708,2.6708,2.6708,2.6708,2.6708,2.6708,2.6708,2.6708,2.6708,2.6708,2.6708,2.6708,2.6708,2.6708,2.6708,2.6353,2.5879,2.5541,2.5203,2.4626,2.4,2.4225,2.3978,2.3647,2.3268,2.3201,2.3201,2.3263,2.3278,2.3354,2.3293,2.2968,2.2647,2.2403,2.1953,2.1343,2.1375,2.1788,2.1762,3.119,3.119,3.119,3.119,3.119,3.119,3.119,3.119,3.119,3.119,3.119,3.119,3.119,3.119,3.119,3.119,3.119,3.119,3.119,3.119,3.119,3.0784,2.9903,2.8551,2.7789,2.7705,2.708,2.6708,2.6708,2.6708,2.6708,2.6708,2.6708,2.6708,2.6708,2.6708,2.6708,2.6708,2.6708,2.6708,2.6708,2.6708,2.6708,2.6708,2.6708,2.6708,2.6708,2.6708,2.6708,2.6708,2.6708,2.6657,2.6404,2.659,2.6708,2.6708,2.6708,2.6708,2.6708,2.6708,2.6708,2.6708,2.6708,2.6708,2.6708,2.6708,2.6708,2.6708,2.6708,2.6708,2.6708,2.6708,2.6708,2.6708,2.6708,2.6708,2.6708,2.6708,2.6708,2.6708,2.6708,2.6708,2.6708,2.6708,2.6708,2.6708,2.6708,2.6708,2.6708,2.6708,2.6708,2.6488,2.6116,2.5795,2.5406,2.4846,2.4677,2.5135,2.5053,2.4799,2.4397,2.4076,2.4125,2.4173,2.4127,2.4174,2.4189,2.4033,2.3765,2.3405,2.317,2.2768,2.2867,2.3141,2.2906,3.119,3.119,3.119,3.119,3.119,3.119,3.119,3.119,3.119,3.119,3.119,3.119,3.119,3.119,3.119,3.119,3.119,3.119,3.119,3.1142,3.0869,3.048,2.9803,2.8551,2.7789,2.7722,2.7063,2.6742,2.6708,2.6708,2.6708,2.6708,2.6708,2.6708,2.6708,2.6708,2.6708,2.6708,2.6708,2.6708,2.6708,2.6708,2.6708,2.6708,2.6708,2.6708,2.6708,2.6708,2.6708,2.6708,2.6708,2.6708,2.6708,2.6708,2.6708,2.6708,2.6708,2.6708,2.6708,2.6708,2.6708,2.6708,2.6708,2.6708,2.6708,2.6708,2.6708,2.6708,2.6708,2.6708,2.6708,2.6708,2.6708,2.6708,2.6708,2.6708,2.6708,2.6708,2.6708,2.6708,2.6708,2.6708,2.6708,2.6708,2.6708,2.6708,2.6708,2.6708,2.6708,2.6708,2.6674,2.6505,2.6437,2.6201,2.6082,2.5675,2.5439,2.5845,2.5862,2.5659,2.5286,2.488,2.4812,2.4846,2.4914,2.4982,2.4982,2.4897,2.4596,2.4352,2.4309,2.4179,2.4115,2.4298,2.4046,3.119,3.119,3.119,3.119,3.119,3.119,3.119,3.119,3.119,3.119,3.119,3.119,3.119,3.119,3.119,3.119,3.119,3.119,3.119,3.1038,3.07,3.0294,2.9937,2.8753,2.7908,2.7587,2.7012,2.681,2.6742,2.6708,2.6708,2.6708,2.6708,2.6708,2.6708,2.6708,2.6708,2.6708,2.6708,2.6708,2.6708,2.6708,2.6708,2.6708,2.6708,2.6708,2.6708,2.6708,2.6708,2.6708,2.6708,2.6708,2.6708,2.6708,2.6708,2.6708,2.6708,2.6708,2.6708,2.6708,2.6708,2.6708,2.6708,2.6708,2.6708,2.6708,2.6759,2.6945,2.681,2.6996,2.7165,2.7046,2.7148,2.7182,2.7029,2.6826,2.6793,2.6742,2.6708,2.6708,2.6708,2.6708,2.6708,2.6708,2.6708,2.6708,2.6708,2.6708,2.6708,2.6708,2.6708,2.6657,2.664,2.6674,2.6623,2.6573,2.6454,2.6505,2.6454,2.6251,2.5879,2.5558,2.5423,2.5423,2.5642,2.571,2.5727,2.5575,2.5338,2.5271,2.5209,2.4988,2.485,2.5261,2.528,3.119,3.119,3.119,3.119,3.119,3.119,3.119,3.119,3.119,3.119,3.119,3.119,3.119,3.119,3.119,3.119,3.119,3.119,3.119,3.1173,3.1089,3.0598,3.0091,2.9144,2.8163,2.7452,2.7452,2.7249,2.6877,2.6742,2.6708,2.6708,2.6708,2.6708,2.6708,2.6708,2.6708,2.6708,2.6708,2.6708,2.6708,2.6708,2.6708,2.6708,2.6708,2.6708,2.6708,2.6708,2.6708,2.6708,2.6708,2.6708,2.6708,2.6708,2.6708,2.6708,2.6708,2.6708,2.6708,2.6708,2.6708,2.6708,2.6776,2.6708,2.6708,2.6793,2.7046,2.7367,2.7587,2.7807,2.8231,2.8468,2.8367,2.8214,2.7892,2.757,2.7469,2.7046,2.6742,2.6708,2.6708,2.6708,2.6708,2.6708,2.6708,2.6708,2.6708,2.6708,2.6708,2.6708,2.6708,2.6708,2.6708,2.6708,2.6708,2.6708,2.6708,2.6708,2.6708,2.6691,2.6319,2.6184,2.6031,2.6167,2.6437,2.642,2.6251,2.6336,2.6116,2.6116,2.6082,2.5929,2.5895,2.6268,2.6302,3.119,3.119,3.119,3.119,3.119,3.119,3.119,3.119,3.119,3.119,3.119,3.119,3.119,3.119,3.119,3.119,3.119,3.119,3.119,3.119,3.1157,3.0784,3.0328,2.9973,2.9264,2.7994,2.7722,2.7536,2.7249,2.6877,2.6708,2.6708,2.6708,2.6708,2.6708,2.6708,2.6708,2.6708,2.6708,2.6708,2.6708,2.6708,2.6708,2.6708,2.6708,2.6708,2.6708,2.6708,2.6708,2.6708,2.6708,2.6708,2.6708,2.6708,2.6708,2.6708,2.6708,2.6708,2.6708,2.6708,2.6708,2.6708,2.6996,2.7182,2.7351,2.7503,2.7909,2.823,2.8383,2.8587,2.8942,2.8976,2.8993,2.8942,2.8654,2.8383,2.8197,2.7402,2.6708,2.6708,2.6708,2.6708,2.6708,2.6809,2.6691,2.6708,2.6725,2.6725,2.6708,2.6708,2.6708,2.6708,2.6708,2.6708,2.6708,2.6708,2.6708,2.6708,2.6708,2.6708,2.6556,2.6573,2.6623,2.6674,2.6674,2.6674,2.6556,2.6691,2.6708,2.6539,2.6471,2.6623,2.6657,2.6539,2.6522,3.119,3.119,3.119,3.119,3.119,3.119,3.119,3.119,3.119,3.119,3.119,3.119,3.119,3.119,3.119,3.119,3.119,3.119,3.119,3.119,3.119,3.0886,3.0531,3.048,3.0176,2.9145,2.8433,2.801,2.7604,2.7114,2.6725,2.6708,2.6708,2.6708,2.6708,2.6708,2.6708,2.6708,2.6708,2.6708,2.6708,2.6708,2.6708,2.6708,2.6708,2.6708,2.6708,2.6708,2.6759,2.6843,2.6759,2.6843,2.6996,2.6742,2.6708,2.6708,2.6708,2.6708,2.6759,2.681,2.6894,2.6776,2.7537,2.7824,2.7942,2.8349,2.8822,2.9127,2.9314,2.945,2.9348,2.9534,2.9501,2.9417,2.9353,2.9272,2.9017,2.8032,2.7621,2.7317,2.7367,2.7316,2.7146,2.7094,2.6876,2.6725,2.6792,2.6809,2.6792,2.6775,2.6825,2.6708,2.6708,2.6708,2.6708,2.6708,2.6708,2.6708,2.6708,2.6708,2.6708,2.6708,2.6708,2.6708,2.6691,2.6708,2.6708,2.6708,2.6708,2.6708,2.6708,2.6708,2.6708,2.6708,2.6708,3.119,3.119,3.119,3.119,3.119,3.119,3.119,3.119,3.119,3.119,3.119,3.119,3.119,3.119,3.119,3.119,3.119,3.119,3.1157,3.114,3.1157,3.1004,3.0818,3.0615,3.0226,2.982,2.9127,2.8501,2.7756,2.7097,2.6725,2.6708,2.6708,2.6708,2.6776,2.6708,2.6742,2.681,2.6759,2.6708,2.6708,2.6708,2.6708,2.6708,2.6708,2.6742,2.6759,2.6759,2.6962,2.7469,2.7029,2.7486,2.7943,2.7402,2.6945,2.6894,2.6928,2.6979,2.6894,2.73,2.7215,2.7199,2.7994,2.8383,2.8263,2.8619,2.9397,2.9905,3.0378,3.0734,3.0818,3.0656,3.0789,3.0747,3.0585,3.0404,3.0318,2.9949,2.9484,2.9256,2.8725,2.8057,2.7899,2.7728,2.7628,2.7526,2.7455,2.7358,2.7244,2.7156,2.71,2.6906,2.6708,2.6708,2.6708,2.6708,2.6708,2.6708,2.6708,2.6708,2.6708,2.6708,2.6708,2.6708,2.6708,2.6708,2.6708,2.6708,2.6708,2.6708,2.6708,2.6708,2.6708,2.6708,2.6708,3.119,3.119,3.119,3.119,3.119,3.119,3.119,3.119,3.119,3.119,3.119,3.119,3.119,3.119,3.119,3.119,3.1173,3.119,3.0987,3.0801,3.0987,3.0954,3.0751,3.0565,3.0429,3.0125,2.9668,2.889,2.7841,2.7063,2.6793,2.6708,2.6708,2.6877,2.7063,2.6894,2.6979,2.708,2.6945,2.6742,2.6742,2.6742,2.6725,2.6725,2.6776,2.6894,2.7232,2.7283,2.7655,2.818,2.8078,2.8367,2.8553,2.8434,2.7876,2.7876,2.7842,2.7638,2.7486,2.7925,2.8061,2.757,2.8704,2.933,2.9313,2.9719,3.0209,3.0598,3.0835,3.119,3.1123,3.1389,3.1506,3.1532,3.155,3.1601,3.1581,3.1497,3.1367,3.1119,3.0264,2.9449,2.8807,2.8636,2.8504,2.8349,2.8174,2.8032,2.7875,2.783,2.7816,2.7404,2.7212,2.7063,2.7012,2.6945,2.7063,2.7012,2.6979,2.6979,2.6843,2.6911,2.681,2.6708,2.6708,2.6708,2.6708,2.6708,2.6708,2.6708,2.6708,2.6708,2.6708,2.6708,2.6708,3.119,3.119,3.119,3.119,3.119,3.119,3.119,3.119,3.119,3.119,3.119,3.1173,3.1106,3.1004,3.0954,3.0954,3.1024,3.1055,3.0818,3.0395,3.0632,3.0581,3.0226,3.0311,3.0311,2.9786,2.9702,2.9244,2.8315,2.7621,2.7182,2.7046,2.6962,2.7182,2.7536,2.7266,2.7418,2.7621,2.7537,2.7199,2.7165,2.7165,2.7148,2.7182,2.7148,2.7503,2.7994,2.8061,2.845,2.889,2.9044,2.9094,2.9348,2.9314,2.9297,2.9382,2.9179,2.8636,2.845,2.8755,2.8873,2.8213,2.9499,3.0057,3.019,3.0446,3.1089,3.121,3.1329,3.1351,3.1413,3.1714,3.1897,3.2022,3.2332,3.2631,3.2592,3.261,3.2769,3.234,3.1554,3.0924,3.0297,2.9692,2.9565,2.9407,2.9263,2.9248,2.9107,2.8992,2.8832,2.8198,2.7847,2.7569,2.7453,2.7318,2.7504,2.7723,2.774,2.774,2.7452,2.7215,2.7097,2.7029,2.6708,2.6708,2.6708,2.6708,2.6708,2.6708,2.6708,2.6708,2.6708,2.6708,2.6708,3.119,3.119,3.119,3.119,3.119,3.119,3.119,3.119,3.119,3.119,3.119,3.1157,3.0869,3.0497,3.0328,3.0277,3.048,3.0784,3.0666,3.0091,3.0277,2.9989,2.9264,2.9196,2.9533,2.9414,2.933,2.9077,2.8807,2.8653,2.8264,2.779,2.7706,2.7807,2.806,2.7841,2.8077,2.8687,2.8722,2.8637,2.8604,2.857,2.857,2.8587,2.8587,2.8654,2.8789,2.8856,2.923,2.9786,2.9382,2.9704,3.055,3.0294,3.0429,3.0328,2.989,2.8976,2.901,2.959,2.971,2.932,3.0197,3.055,3.0581,3.0809,3.1252,3.121,3.147,3.166,3.1716,3.2127,3.2332,3.2549,3.2825,3.3045,3.3139,3.3214,3.3433,3.3454,3.2664,3.2321,3.187,3.1225,3.0671,3.0499,3.0377,3.0391,3.0266,3.008,2.99,2.9308,2.8817,2.8546,2.8351,2.8133,2.8135,2.8439,2.8384,2.8401,2.8163,2.7858,2.7655,2.7503,2.7131,2.6759,2.6708,2.6708,2.6708,2.6708,2.6708,2.6708,2.6708,2.6708,2.6708,3.119,3.119,3.119,3.119,3.119,3.119,3.119,3.119,3.119,3.119,3.119,3.119,3.1004,3.0632,3.0345,3.0342,3.0615,3.0683,3.0176,2.9939,3.0108,2.9837,2.9008,2.9517,2.9991,2.9331,2.9738,3.0074,2.9719,2.9213,2.8756,2.8569,2.8518,2.8772,2.8838,2.8653,2.8975,2.9262,2.923,2.8993,2.8993,2.901,2.901,2.901,2.9044,2.9264,2.9533,2.9634,2.9989,3.0514,3.0328,3.048,3.099,3.0942,3.0983,3.1356,3.1015,3.0338,2.988,3.0559,3.0498,3.0308,3.0708,3.097,3.0874,3.117,3.1411,3.121,3.1565,3.1789,3.1986,3.2483,3.2777,3.3029,3.3258,3.339,3.3522,3.3638,3.3753,3.3793,3.3775,3.3305,3.2953,3.2602,3.2019,3.1706,3.1628,3.1674,3.1351,3.0934,3.0748,3.0485,3.0018,2.964,2.9449,2.9271,2.909,2.918,2.8915,2.8897,2.8825,2.8602,2.8385,2.8011,2.7587,2.7232,2.6877,2.6708,2.6708,2.6708,2.6708,2.6708,2.6708,2.6708,2.6708,3.119,3.119,3.119,3.119,3.119,3.119,3.119,3.119,3.119,3.119,3.1123,3.1004,3.0903,3.0835,3.0359,3.0326,3.0835,3.0511,2.9956,2.9922,3.004,2.9719,2.9228,2.9888,3.0243,2.9296,3.0446,3.0734,3.0362,2.9905,2.9602,2.9314,2.9281,2.9516,2.977,2.9617,2.9617,3.0243,2.9941,2.9721,2.967,2.9653,2.9653,2.9619,2.9636,2.9803,3.0277,3.0378,3.0734,3.097,3.1232,3.1255,3.1374,3.1531,3.1646,3.1986,3.1882,3.1673,3.1271,3.1409,3.1585,3.1445,3.1321,3.1604,3.1585,3.1824,3.1915,3.1656,3.2039,3.2179,3.2298,3.2934,3.3211,3.3419,3.3578,3.3721,3.3807,3.3807,3.3807,3.3807,3.3807,3.3807,3.3606,3.3688,3.3413,3.2991,3.2894,3.2889,3.2509,3.1947,3.1924,3.1773,3.1207,3.0921,3.0995,3.072,3.0425,3.0089,2.9833,2.9776,2.993,2.9483,2.9021,2.8593,2.8182,2.7638,2.7249,2.6979,2.6708,2.6708,2.6708,2.6708,2.6708,2.6708,2.6708,3.119,3.119,3.119,3.119,3.119,3.119,3.119,3.119,3.119,3.119,3.1106,3.0598,3.0378,3.0224,3.0277,3.0192,3.0294,3.0852,3.0463,3.0142,3.0074,2.9719,2.9448,2.9702,3.0277,3.0091,3.0818,3.1106,3.1072,3.0801,3.0446,3.0125,3.004,3.0057,3.0123,3.0159,3.0311,3.0818,3.0751,3.0784,3.0801,3.0818,3.0835,3.0886,3.0954,3.1072,3.1125,3.1024,3.1159,3.1349,3.1545,3.1751,3.1806,3.2039,3.2265,3.2467,3.2729,3.2558,3.2391,3.2276,3.2347,3.2363,3.2381,3.235,3.2179,3.235,3.2401,3.2351,3.2567,3.289,3.3105,3.3447,3.362,3.368,3.3721,3.3748,3.3807,3.3807,3.3807,3.3807,3.3807,3.3807,3.3807,3.3807,3.3807,3.3403,3.3366,3.3348,3.344,3.3076,3.325,3.3109,3.2428,3.2293,3.267,3.233,3.1604,3.1463,3.1372,3.1359,3.1444,3.0802,3.0076,2.9451,2.9054,2.8353,2.7722,2.7571,2.7334,2.6877,2.6759,2.6945,2.6894,2.6826,2.6776,3.119,3.119,3.119,3.119,3.119,3.119,3.119,3.119,3.119,3.119,3.1173,3.0903,3.0784,3.0666,3.0277,3.0378,3.0683,3.0497,3.0378,3.0395,3.0362,2.9989,2.9822,3.0023,3.0598,3.0395,3.0835,3.119,3.1173,3.119,3.1106,3.0835,3.0717,3.0784,3.0768,3.07,3.092,3.1038,3.119,3.119,3.119,3.119,3.119,3.119,3.119,3.1351,3.1471,3.1293,3.1543,3.1805,3.1861,3.2021,3.2213,3.2467,3.2681,3.2872,3.3169,3.3214,3.3207,3.3027,3.2809,3.2665,3.2885,3.3087,3.2679,3.2761,3.2731,3.2779,3.2952,3.3243,3.3258,3.3536,3.378,3.3807,3.3807,3.3807,3.3807,3.3807,3.3807,3.3807,3.3807,3.3807,3.3807,3.3807,3.3807,3.377,3.3788,3.3807,3.3807,3.3807,3.3807,3.3807,3.3173,3.3022,3.3338,3.303,3.2609,3.2662,3.2729,3.2517,3.2298,3.2177,3.1444,3.0751,3.0003,2.9419,2.8887,2.8404,2.7994,2.7588,2.7418,2.7418,2.7266,2.6996,2.681,3.119,3.119,3.119,3.119,3.119,3.119,3.119,3.119,3.119,3.119,3.119,3.119,3.119,3.1038,3.0751,3.0666,3.0937,3.0768,3.0548,3.0632,3.0768,3.0516,3.0328,3.0446,3.0903,3.0632,3.0835,3.119,3.119,3.119,3.114,3.114,3.119,3.114,3.114,3.119,3.119,3.119,3.119,3.119,3.119,3.1332,3.1391,3.1449,3.1564,3.1769,3.1932,3.1842,3.195,3.223,3.2383,3.2433,3.2631,3.2838,3.3057,3.324,3.3422,3.3536,3.362,3.3532,3.3225,3.3136,3.339,3.3375,3.3181,3.3181,3.3211,3.3057,3.324,3.3375,3.3375,3.3666,3.3807,3.3807,3.3807,3.3807,3.3807,3.3807,3.3807,3.3807,3.3807,3.3825,3.3862,3.388,3.3935,3.3899,3.3807,3.3807,3.3807,3.3807,3.3807,3.3807,3.3675,3.3675,3.3762,3.3427,3.3147,3.3216,3.3211,3.2983,3.2809,3.2709,3.2462,3.1687,3.1011,3.0525,3.011,2.9679,2.9006,2.8299,2.8095,2.7824,2.7469,2.7182,2.6843,3.1193,3.119,3.121,3.119,3.119,3.119,3.119,3.119,3.119,3.119,3.119,3.119,3.119,3.1173,3.1021,3.1089,3.114,3.1106,3.1038,3.1072,3.1089,3.1072,3.1055,3.1106,3.1123,3.1173,3.119,3.119,3.119,3.119,3.119,3.123,3.1252,3.1232,3.121,3.119,3.119,3.121,3.1232,3.1271,3.1411,3.1677,3.1788,3.1879,3.2092,3.2299,3.2417,3.2316,3.2401,3.2663,3.2887,3.2981,3.3151,3.3447,3.3638,3.3694,3.3753,3.378,3.3793,3.3762,3.368,3.3592,3.3753,3.368,3.3707,3.3753,3.3694,3.3462,3.3666,3.3739,3.378,3.3793,3.3807,3.3807,3.3807,3.3807,3.3807,3.3825,3.3825,3.4119,3.399,3.3862,3.3899,3.3954,3.4045,3.4027,3.3862,3.3825,3.3844,3.3807,3.3807,3.3807,3.3807,3.3807,3.3807,3.3807,3.3716,3.3748,3.3634,3.3375,3.3114,3.2925,3.2663,3.2351,3.2008,3.1517,3.1244,3.097,3.0352,2.9747,2.859,2.8111,2.7739,2.7435,2.7148,3.1603,3.1565,3.1312,3.119,3.119,3.119,3.119,3.119,3.119,3.119,3.119,3.119,3.119,3.119,3.119,3.119,3.119,3.119,3.119,3.119,3.119,3.119,3.119,3.119,3.119,3.119,3.119,3.119,3.119,3.119,3.119,3.123,3.143,3.1413,3.1271,3.1213,3.1274,3.1528,3.164,3.1733,3.2004,3.2179,3.2282,3.2264,3.2467,3.2697,3.2903,3.2761,3.2807,3.3133,3.3361,3.3332,3.3508,3.3793,3.3807,3.3807,3.3807,3.3807,3.3807,3.3807,3.3807,3.3807,3.3807,3.3807,3.3807,3.3807,3.3807,3.3807,3.3807,3.3807,3.3807,3.3807,3.3807,3.3807,3.3807,3.3807,3.3807,3.3825,3.3917,3.4454,3.4601,3.4963,3.511,3.4926,3.4908,3.4724,3.4614,3.41,3.3972,3.3862,3.3807,3.3807,3.3807,3.3807,3.3807,3.3807,3.3807,3.3793,3.3762,3.3675,3.3424,3.3186,3.3071,3.2903,3.2717,3.2509,3.2147,3.1849,3.1805,3.1201,3.0058,2.9295,2.9141,2.8473,2.7621,3.2039,3.2021,3.1769,3.1562,3.1391,3.1252,3.119,3.119,3.119,3.1271,3.137,3.1271,3.1291,3.1332,3.1252,3.119,3.119,3.119,3.119,3.119,3.119,3.119,3.119,3.121,3.119,3.121,3.121,3.119,3.119,3.119,3.1274,3.147,3.1678,3.1751,3.1675,3.175,3.1806,3.2021,3.2092,3.2161,3.2417,3.2616,3.2763,3.2793,3.2937,3.3121,3.324,3.324,3.3178,3.3546,3.362,3.3522,3.3753,3.3807,3.3807,3.3807,3.3807,3.3807,3.3807,3.3807,3.3807,3.3807,3.3807,3.3807,3.3807,3.3807,3.3807,3.3807,3.3807,3.3807,3.3807,3.3807,3.3807,3.3807,3.3862,3.3862,3.4229,3.4266,3.4633,3.5133,3.5555,3.5973,3.6229,3.6101,3.5936,3.5661,3.5404,3.4835,3.4302,3.4156,3.4009,3.3917,3.3844,3.3807,3.3807,3.3807,3.3807,3.3807,3.3807,3.3788,3.3757,3.3547,3.351,3.3476,3.3295,3.3092,3.2862,3.2658,3.2487,3.2186,3.1533,3.0941,3.0625,2.9695,2.8613,3.2517,3.25,3.2501,3.223,3.1789,3.1487,3.1271,3.121,3.123,3.1449,3.1752,3.1428,3.1562,3.1732,3.1447,3.1271,3.1232,3.123,3.119,3.119,3.119,3.119,3.123,3.1252,3.1312,3.1291,3.1351,3.1524,3.1291,3.1466,3.1621,3.1789,3.2004,3.2179,3.2367,3.2517,3.2517,3.2533,3.2763,3.2897,3.3144,3.3242,3.3436,3.349,3.356,3.3615,3.368,3.3666,3.3694,3.3793,3.378,3.3793,3.3807,3.3807,3.3807,3.3807,3.3807,3.3807,3.3807,3.3807,3.3807,3.3807,3.3807,3.3807,3.3807,3.3807,3.3807,3.3807,3.3807,3.3807,3.3807,3.3807,3.3807,3.3862,3.3935,3.4266,3.4766,3.5114,3.555,3.5991,3.6395,3.6707,3.6835,3.678,3.6909,3.6853,3.6578,3.6156,3.555,3.4747,3.4559,3.41,3.4009,3.3825,3.3807,3.3807,3.3807,3.3807,3.3807,3.3807,3.3807,3.3807,3.3707,3.368,3.3766,3.3625,3.3317,3.3136,3.3042,3.2702,3.2451,3.2014,3.1512,3.0809,2.9967,3.2999,3.295,3.2632,3.24,3.2281,3.2179,3.1787,3.1271,3.1488,3.1733,3.1789,3.2039,3.2162,3.2265,3.1842,3.166,3.1507,3.137,3.123,3.119,3.119,3.119,3.1291,3.143,3.1565,3.1714,3.1842,3.195,3.2074,3.2074,3.2092,3.2316,3.2533,3.2793,3.3011,3.3288,3.3151,3.315,3.3411,3.3679,3.3939,3.4131,3.4239,3.4237,3.3877,3.3862,3.3807,3.3807,3.3807,3.3807,3.3807,3.3807,3.3807,3.3807,3.3807,3.3807,3.3807,3.3807,3.3807,3.3807,3.3807,3.3807,3.3807,3.3807,3.3807,3.3807,3.3807,3.3807,3.3807,3.3807,3.3807,3.3807,3.3917,3.4045,3.4247,3.4747,3.5279,3.5844,3.6285,3.6927,3.7331,3.7551,3.7624,3.7753,3.7881,3.7955,3.779,3.7331,3.6762,3.5922,3.5023,3.4559,3.4229,3.4064,3.3862,3.3807,3.3807,3.3807,3.3807,3.3807,3.3807,3.3807,3.3807,3.3807,3.3807,3.3793,3.3675,3.3518,3.339,3.3522,3.3317,3.288,3.2367,3.174,3.1278,3.3451,3.339,3.3151,3.2919,3.2779,3.2583,3.2179,3.1805,3.1968,3.2074,3.2109,3.2367,3.2599,3.2697,3.2298,3.1969,3.1735,3.1584,3.1391,3.119,3.121,3.119,3.1312,3.1451,3.1487,3.175,3.1968,3.2039,3.2332,3.2501,3.2535,3.2793,3.3124,3.3273,3.3451,3.3592,3.3606,3.3654,3.3862,3.4254,3.4481,3.4601,3.4546,3.4491,3.4009,3.388,3.3807,3.3807,3.3807,3.3807,3.3807,3.3807,3.3807,3.3807,3.3807,3.3807,3.3807,3.3807,3.3807,3.3807,3.3807,3.3807,3.3807,3.3807,3.3807,3.3807,3.3807,3.3807,3.3807,3.3807,3.3807,3.3844,3.4064,3.4252,3.4766,3.5279,3.5862,3.645,3.7144,3.7841,3.823,3.8469,3.8615,3.8707,3.867,3.8487,3.8377,3.8193,3.7661,3.6982,3.5862,3.4949,3.4582,3.4321,3.4137,3.4027,3.4009,3.399,3.3807,3.3807,3.3825,3.3825,3.3825,3.3825,3.3807,3.3793,3.3748,3.3793,3.3721,3.3807,3.3807,3.3449,3.3125,3.2904,3.2553,3.3807,3.3793,3.3807,3.3522,3.3184,3.2793,3.2565,3.2517,3.2565,3.2583,3.2565,3.2598,3.2921,3.3105,3.2761,3.2383,3.2109,3.1861,3.1565,3.1252,3.1332,3.1332,3.1351,3.1387,3.1841,3.1712,3.1878,3.2515,3.2281,3.2549,3.3014,3.3243,3.3288,3.3524,3.3968,3.4041,3.417,3.444,3.4243,3.4248,3.4183,3.4045,3.3954,3.399,3.3899,3.3807,3.3807,3.3807,3.3807,3.3807,3.3807,3.3807,3.3807,3.3807,3.3807,3.3807,3.3807,3.3807,3.3807,3.3807,3.3807,3.3807,3.3807,3.3807,3.3807,3.3807,3.3807,3.3807,3.3807,3.3807,3.3807,3.4137,3.4399,3.4839,3.5389,3.6028,3.6703,3.7235,3.7771,3.8322,3.8469,3.8707,3.8707,3.8707,3.8707,3.8707,3.8689,3.8634,3.8377,3.7771,3.689,3.5646,3.5275,3.5018,3.4761,3.4633,3.4394,3.4229,3.4137,3.4064,3.4247,3.41,3.3844,3.3954,3.4082,3.388,3.3807,3.3807,3.3807,3.3807,3.3807,3.3807,3.3698,3.3556,3.3442,3.3807,3.3807,3.3807,3.3564,3.3258,3.3419,3.3087,3.2599,3.3207,3.3284,3.3121,3.3332,3.3508,3.3522,3.3196,3.2887,3.2729,3.2213,3.1807,3.1696,3.1677,3.1677,3.1824,3.2144,3.2484,3.2856,3.3072,3.3148,3.3163,3.3343,3.3476,3.3638,3.3643,3.389,3.444,3.4509,3.4784,3.5128,3.5078,3.4802,3.4729,3.5238,3.5495,3.478,3.4302,3.3899,3.3844,3.3807,3.3807,3.3807,3.3807,3.3807,3.3807,3.3807,3.3807,3.3807,3.3807,3.3807,3.3807,3.3807,3.3807,3.3807,3.3807,3.3807,3.3807,3.3807,3.3807,3.3807,3.3807,3.3807,3.399,3.4399,3.4894,3.5481,3.6046,3.678,3.7511,3.797,3.8432,3.856,3.867,3.8707,3.8707,3.8707,3.8707,3.8707,3.8707,3.8689,3.867,3.8303,3.7918,3.6909,3.6266,3.5917,3.5569,3.533,3.5147,3.5073,3.5037,3.4908,3.4729,3.4412,3.4156,3.4307,3.438,3.4211,3.4009,3.3807,3.3807,3.3807,3.3807,3.3807,3.3807,3.3698,3.3743,3.3807,3.3807,3.3807,3.3662,3.3536,3.3707,3.3504,3.3225,3.3592,3.368,3.3508,3.3694,3.3807,3.3807,3.355,3.3317,3.3151,3.2713,3.2366,3.2196,3.2109,3.2109,3.24,3.2713,3.2648,3.2983,3.3332,3.349,3.3908,3.3793,3.378,3.3825,3.3862,3.4045,3.4564,3.4821,3.5279,3.5628,3.5848,3.5848,3.55,3.5459,3.5385,3.4619,3.4376,3.4064,3.4137,3.4064,3.3807,3.3807,3.3807,3.3807,3.3807,3.3807,3.3807,3.3807,3.3807,3.3807,3.3844,3.3862,3.3844,3.3825,3.3807,3.3807,3.3807,3.3807,3.3807,3.3807,3.3807,3.3807,3.4344,3.4802,3.5642,3.634,3.6798,3.7382,3.7918,3.8377,3.8597,3.8634,3.8707,3.8707,3.8707,3.8707,3.8707,3.8707,3.8707,3.8707,3.8707,3.8707,3.8377,3.801,3.7257,3.656,3.6046,3.5954,3.5973,3.5936,3.5954,3.5752,3.5514,3.4853,3.4472,3.4963,3.5023,3.4582,3.4362,3.4192,3.388,3.3807,3.3807,3.3807,3.3807,3.3807,3.3807,3.3807,3.3807,3.3807,3.3807,3.3807,3.3807,3.3793,3.3793,3.3807,3.3807,3.378,3.3793,3.3807,3.3807,3.3775,3.3536,3.3302,3.306,3.2825,3.2681,3.2582,3.2582,3.2614,3.2745,3.3013,3.3263,3.3563,3.4006,3.4431,3.4266,3.4119,3.3954,3.388,3.3917,3.4266,3.478,3.55,3.6197,3.6615,3.689,3.6101,3.5055,3.5018,3.4816,3.4559,3.4468,3.4614,3.4486,3.4027,3.3917,3.3954,3.3972,3.3954,3.3972,3.4229,3.4247,3.4229,3.4174,3.4082,3.4137,3.399,3.3862,3.3844,3.3862,3.388,3.399,3.399,3.4064,3.4064,3.4321,3.4857,3.5518,3.6395,3.7052,3.7492,3.7863,3.8303,3.8673,3.8689,3.8707,3.8707,3.8707,3.8707,3.8707,3.8707,3.8707,3.8707,3.8707,3.8707,3.8707,3.856,3.8377,3.7991,3.7312,3.6798,3.6762,3.6927,3.6872,3.6853,3.6615,3.6285,3.5661,3.5514,3.6009,3.5936,3.5298,3.4912,3.4743,3.4394,3.4027,3.4137,3.4192,3.3807,3.3807,3.3807,3.3807,3.3807,3.3807,3.3807,3.3807,3.3807,3.3807,3.3807,3.3807,3.3807,3.3825,3.3825,3.3807,3.3825,3.3807,3.3803,3.398,3.3626,3.3298,3.3075,3.3384,3.324,3.3196,3.3478,3.3949,3.4265,3.4608,3.5066,3.511,3.4908,3.4747,3.4674,3.4009,3.4449,3.5679,3.6119,3.6505,3.711,3.7294,3.7474,3.7437,3.6629,3.6009,3.5771,3.5569,3.5316,3.5151,3.4894,3.4802,3.4601,3.4307,3.4412,3.4449,3.4449,3.4688,3.5092,3.5037,3.4839,3.4784,3.4798,3.4688,3.4211,3.4211,3.4156,3.4321,3.4637,3.4729,3.4963,3.5055,3.5349,3.5862,3.6523,3.729,3.7603,3.7973,3.8248,3.8615,3.8689,3.8707,3.8707,3.8707,3.8707,3.8707,3.8707,3.8707,3.8707,3.8707,3.8707,3.8707,3.8707,3.8707,3.8597,3.8469,3.8542,3.8248,3.7973,3.801,3.7918,3.7679,3.7312,3.6942,3.6501,3.6538,3.6982,3.6615,3.5936,3.5624,3.544,3.4945,3.4651,3.4729,3.4656,3.4192,3.3807,3.3807]}]]